[[{"header":{"parameterUnit":"m.s-1","parameterCategory":1,"la1":31.0,"la2":29.5877,"lo1":-88.7671,"lo2":-86.6584,"dy":0.0162,"dx":0.0185,"nx":115,"ny":88,"refTime":"2023-03-11T06:00:00:Z","depth":0,"parameterNumber":2,"parameterNumberName":"U-component_of_WINDS"},"data":[0.0,0.0,0.0,0.0,0.0,0.0,0.0,0.0,0.0,0.0,0.0,0.0,0.0,0.0,0.0,0.0,0.0,0.0,0.0,0.0,0.0,0.0,0.0,0.0,0.0,0.0,0.0,0.0,0.0,0.0,0.0,0.0,0.0,0.0,0.0,0.0,0.0,0.0,0.0,0.0,0.0,0.0,0.0,0.0,0.0,0.0,0.0,0.0,0.0,0.0,0.0,0.0,0.0,0.0,0.0,0.0,0.0,0.0,0.0,0.0,0.0,0.0,0.0,0.0,0.0,0.0,0.0,0.0,0.0,0.0,0.0,0.0,0.0,0.0,0.0,0.0,0.0,0.0,0.0,0.0,0.0,0.0,0.0,0.0,0.0,0.0,0.0,0.0,0.0,0.0,0.0,0.0,0.0,0.0,0.0,0.0,0.0,0.0,0.0,0.0,0.0,0.0,0.0,0.0,0.0,0.0,0.0,0.0,0.0,0.0,0.0,0.0,0.0,0.0,0.0,0.0,0.0,0.0,0.0,0.0,0.0,0.0,0.0,0.0,0.0,0.0,0.0,0.0,0.0,0.0,0.0,0.0,0.0,0.0,0.0,0.0,0.0,0.0,0.0,0.0,0.0,0.0,0.0,0.0,0.0,0.0,0.0,0.0,0.0,0.0,0.0,0.0,0.0,0.0,0.0,0.0,0.0,0.0,0.0,0.0,0.0,0.0,0.0,0.0,0.0,0.0,0.0,0.0,0.0,0.0,0.0,0.0,0.0,0.0,0.0,0.0,0.0,0.0,0.0,0.0,0.0,0.0,0.0,0.0,0.0,0.0,0.0,0.0,0.0,0.0,0.0,0.0,0.0,0.0,0.0,0.0,0.0,0.0,0.0,0.0,0.0,0.0,0.0,0.0,0.0,0.0,0.0,0.0,0.0,0.0,0.0,0.0,0.0,0.0,0.0,0.0,0.0,0.0,0.0,0.0,0.0,0.0,0.0,0.0,0.0,0.0,0.0,0.0,0.0,0.0,0.0,0.0,0.0,0.0,0.0,0.0,0.0,0.0,0.0,0.0,0.0,0.0,0.0,0.0,0.0,0.0,0.0,0.0,0.0,0.0,0.0,0.0,0.0,0.0,0.0,0.0,0.0,0.0,0.0,0.0,0.0,0.0,0.0,0.0,0.0,0.0,0.0,0.0,0.0,0.0,0.0,0.0,0.0,0.0,0.0,0.0,0.0,0.0,0.0,0.0,0.0,0.0,0.0,0.0,0.0,0.0,0.0,0.0,0.0,0.0,0.0,0.0,0.0,0.0,0.0,0.0,0.0,0.0,0.0,0.0,0.0,0.0,0.0,0.0,0.0,0.0,0.0,0.0,0.0,0.0,0.0,0.0,0.0,0.0,0.0,0.0,0.0,0.0,0.0,0.0,0.0,0.0,0.0,0.0,0.0,0.0,0.0,0.0,0.0,0.0,0.0,0.0,0.0,0.0,0.0,0.0,0.0,0.0,0.0,0.0,0.0,0.0,0.0,0.0,0.0,0.0,0.0,0.0,0.0,0.0,0.0,0.0,0.0,0.0,0.0,0.0,0.0,0.0,0.0,0.0,0.0,0.0,0.0,0.0,0.0,0.0,0.0,0.0,0.0,0.0,0.0,0.0,0.0,0.0,0.0,0.0,0.0,0.0,0.0,0.0,0.0,0.0,0.0,0.0,0.0,0.0,0.0,0.0,0.0,0.0,0.0,0.0,0.0,0.0,0.0,0.0,0.0,0.0,0.0,0.0,0.0,0.0,0.0,0.0,0.0,0.0,0.0,0.0,0.0,0.0,0.0,0.0,0.0,0.0,0.0,0.0,0.0,0.0,0.0,0.0,0.0,0.0,0.0,0.0,0.0,0.0,0.0,0.0,0.0,0.0,0.0,0.0,0.0,0.0,0.0,0.0,0.0,0.0,0.0,0.0,0.0,0.0,0.0,0.0,0.0,0.0,0.0,0.0,0.0,0.0,0.0,0.0,0.0,0.0,0.0,0.0,0.0,0.0,0.0,0.0,0.0,0.0,0.0,0.0,0.0,0.0,0.0,0.0,0.0,0.0,0.0,0.0,0.0,0.0,0.0,0.0,0.0,0.0,0.0,0.0,0.0,0.0,0.0,0.0,0.0,0.0,0.0,0.0,0.0,0.0,0.0,0.0,0.0,0.0,0.0,0.0,0.0,0.0,0.0,0.0,0.0,0.0,0.0,0.0,0.0,0.0,0.0,0.0,0.0,0.0,0.0,0.0,0.0,0.0,0.0,0.0,0.0,0.0,0.0,0.0,0.0,0.0,0.0,0.0,0.0,0.0,0.0,0.0,0.0,0.0,0.0,0.0,0.0,0.0,0.0,0.0,0.0,0.0,0.0,0.0,0.0,0.0,0.0,0.0,0.0,0.0,0.0,0.0,0.0,0.0,0.0,0.0,0.0,0.0,0.0,0.0,0.0,0.0,0.0,0.0,0.0,0.0,0.0,0.0,0.0,0.0,0.0,0.0,0.0,0.0,0.0,0.0,0.0,0.0,0.0,0.0,0.0,0.0,0.0,0.0,0.0,0.0,0.0,0.0,0.0,0.0,0.0,0.0,0.0,0.0,0.0,0.0,0.0,0.0,0.0,0.0,0.0,0.0,0.0,0.0,0.0,0.0,0.0,0.0,0.0,0.0,0.0,0.0,0.0,0.0,0.0,0.0,0.0,0.0,0.0,0.0,0.0,0.0,0.0,0.0,0.0,0.0,0.0,0.0,0.0,0.0,0.0,0.0,0.0,0.0,0.0,0.0,0.0,0.0,0.0,0.0,0.0,0.0,0.0,0.0,0.0,0.0,0.0,0.0,0.0,0.0,0.0,0.0,0.0,0.0,0.0,0.0,0.0,0.0,0.0,0.0,0.0,0.0,0.0,0.0,0.0,0.0,0.0,0.0,0.0,0.0,0.0,0.0,0.0,0.0,0.0,0.0,0.0,0.0,0.0,0.0,0.0,0.0,0.0,0.0,0.0,0.0,0.0,0.0,0.0,0.0,0.0,0.0,0.0,0.0,0.0,0.0,0.0,0.0,0.0,0.0,0.0,0.0,0.0,0.0,0.0,0.0,0.0,0.0,0.0,0.0,0.0,0.0,0.0,0.0,0.0,0.0,0.0,0.0,0.0,0.0,0.0,0.0,0.0,0.0,0.0,0.0,0.0,0.0,0.0,0.0,0.0,0.0,0.0,0.0,0.0,0.0,0.0,0.0,0.0,0.0,0.0,0.0,0.0,0.0,0.0,0.0,0.0,0.0,0.0,0.0,0.0,0.0,0.0,0.0,0.0,0.0,0.0,0.0,0.0,0.0,0.0,0.0,0.0,0.0,0.0,0.0,0.0,0.0,0.0,0.0,0.0,0.0,0.0,0.0,0.0,0.0,0.0,0.0,0.0,0.0,0.0,0.0,0.0,0.0,0.0,0.0,0.0,0.0,0.0,0.0,0.0,0.0,0.0,0.0,0.0,0.0,0.0,0.0,0.0,0.0,0.0,0.0,0.0,0.0,0.0,0.0,0.0,0.0,0.0,0.0,0.0,0.0,0.0,0.0,0.0,0.0,0.0,0.0,0.0,0.0,0.0,0.0,0.0,0.0,0.0,0.0,0.0,0.0,0.0,0.0,0.0,0.0,0.0,0.0,0.0,0.0,0.0,0.0,0.0,0.0,0.0,0.0,0.0,0.0,0.0,0.0,0.0,0.0,0.0,0.0,0.0,0.0,0.0,0.0,0.0,0.0,0.0,0.0,0.0,0.0,0.0,0.0,0.0,0.0,0.0,0.0,0.0,0.0,0.0,0.0,0.0,0.0,0.0,0.0,0.0,0.0,0.0,0.0,0.0,0.0,0.0,0.0,0.0,0.0,0.0,0.0,0.0,0.0,0.0,0.0,0.0,0.0,0.0,0.0,0.0,0.0,0.0,0.0,0.0,0.0,0.0,0.0,0.0,0.0,0.0,0.0,0.0,0.0,0.0,0.0,0.0,0.0,0.0,0.0,0.0,0.0,0.0,0.0,0.0,0.0,0.0,0.0,0.0,0.0,0.0,0.0,0.0,0.0,0.0,0.0,0.0,0.0,0.0,0.0,0.0,0.0,0.0,0.0,0.0,0.0,0.0,0.0,0.0,0.0,0.0,0.0,0.0,0.0,0.0,0.0,0.0,0.0,0.0,0.0,0.0,0.0,0.0,0.0,0.0,0.0,0.0,0.0,0.0,0.0,0.0,0.0,0.0,0.0,0.0,0.0,5.9258,0.0,0.0,0.0,0.0,0.0,0.0,0.0,0.0,0.0,0.0,0.0,0.0,0.0,0.0,0.0,0.0,0.0,0.0,0.0,0.0,0.0,0.0,0.0,0.0,0.0,0.0,0.0,0.0,0.0,0.0,0.0,0.0,0.0,0.0,0.0,0.0,0.0,0.0,0.0,0.0,0.0,0.0,0.0,0.0,0.0,0.0,0.0,0.0,0.0,0.0,0.0,0.0,0.0,0.0,0.0,0.0,0.0,0.0,0.0,0.0,0.0,0.0,0.0,0.0,0.0,0.0,0.0,0.0,0.0,0.0,0.0,0.0,0.0,0.0,0.0,0.0,0.0,0.0,0.0,0.0,0.0,0.0,0.0,0.0,0.0,0.0,0.0,0.0,0.0,0.0,0.0,0.0,0.0,0.0,0.0,0.0,0.0,0.0,0.0,0.0,0.0,0.0,0.0,0.0,0.0,0.0,0.0,0.0,0.0,0.0,6.1759,6.1055,6.0117,5.9453,5.918,0.0,0.0,0.0,0.0,0.0,0.0,0.0,0.0,0.0,0.0,0.0,0.0,0.0,0.0,0.0,0.0,0.0,0.0,0.0,0.0,0.0,0.0,0.0,0.0,0.0,0.0,0.0,0.0,0.0,0.0,0.0,0.0,0.0,0.0,0.0,0.0,0.0,0.0,0.0,0.0,0.0,0.0,0.0,0.0,0.0,0.0,0.0,0.0,0.0,0.0,0.0,0.0,0.0,0.0,0.0,0.0,0.0,0.0,0.0,0.0,0.0,0.0,0.0,0.0,0.0,0.0,0.0,0.0,0.0,0.0,0.0,0.0,0.0,0.0,0.0,0.0,0.0,0.0,0.0,0.0,0.0,0.0,0.0,0.0,0.0,0.0,0.0,0.0,0.0,0.0,0.0,0.0,0.0,0.0,0.0,0.0,0.0,0.0,0.0,0.0,0.0,0.0,0.0,0.0,0.0,0.0,0.0,0.0,0.0,0.0,0.0,0.0,5.8977,5.8318,5.8789,0.0,0.0,0.0,0.0,0.0,0.0,0.0,0.0,0.0,0.0,0.0,0.0,0.0,0.0,0.0,0.0,0.0,0.0,0.0,0.0,0.0,0.0,0.0,0.0,0.0,0.0,0.0,0.0,0.0,0.0,0.0,0.0,0.0,0.0,0.0,0.0,0.0,0.0,0.0,0.0,0.0,0.0,0.0,0.0,0.0,0.0,0.0,0.0,0.0,0.0,0.0,0.0,0.0,0.0,0.0,0.0,0.0,0.0,0.0,0.0,0.0,0.0,0.0,0.0,0.0,0.0,0.0,0.0,0.0,0.0,0.0,0.0,0.0,0.0,0.0,0.0,0.0,0.0,0.0,0.0,0.0,0.0,0.0,0.0,0.0,0.0,0.0,0.0,0.0,0.0,0.0,0.0,0.0,0.0,0.0,0.0,0.0,0.0,0.0,0.0,0.0,0.0,0.0,0.0,0.0,0.0,0.0,0.0,0.0,0.0,5.9504,5.8037,5.8562,0.0,5.793,0.0,0.0,0.0,0.0,0.0,0.0,0.0,0.0,0.0,0.0,0.0,0.0,0.0,0.0,0.0,0.0,0.0,0.0,0.0,0.0,0.0,0.0,0.0,0.0,0.0,0.0,0.0,0.0,0.0,0.0,0.0,0.0,0.0,0.0,0.0,0.0,0.0,0.0,0.0,0.0,0.0,0.0,0.0,0.0,0.0,0.0,0.0,0.0,0.0,0.0,0.0,0.0,0.0,0.0,0.0,0.0,0.0,0.0,0.0,0.0,0.0,0.0,0.0,0.0,0.0,0.0,0.0,0.0,0.0,0.0,0.0,0.0,0.0,0.0,0.0,0.0,0.0,0.0,0.0,0.0,0.0,0.0,0.0,0.0,0.0,0.0,0.0,0.0,0.0,0.0,0.0,0.0,0.0,0.0,0.0,0.0,0.0,0.0,0.0,0.0,0.0,0.0,0.0,0.0,0.0,0.0,0.0,0.0,0.0,0.0,5.9746,5.9218,5.8593,5.7875,0.0,0.0,0.0,0.0,0.0,0.0,0.0,0.0,0.0,0.0,0.0,0.0,0.0,0.0,0.0,0.0,0.0,0.0,0.0,0.0,0.0,0.0,0.0,0.0,0.0,0.0,0.0,0.0,0.0,0.0,0.0,0.0,0.0,0.0,0.0,0.0,0.0,0.0,0.0,0.0,0.0,0.0,0.0,0.0,0.0,0.0,0.0,0.0,0.0,0.0,0.0,0.0,0.0,0.0,0.0,0.0,0.0,0.0,0.0,0.0,0.0,0.0,0.0,0.0,0.0,0.0,0.0,0.0,0.0,0.0,0.0,0.0,0.0,0.0,0.0,0.0,0.0,0.0,0.0,0.0,0.0,0.0,0.0,0.0,0.0,0.0,0.0,0.0,0.0,0.0,0.0,0.0,0.0,0.0,0.0,0.0,0.0,0.0,0.0,0.0,0.0,0.0,0.0,0.0,0.0,0.0,0.0,0.0,0.0,0.0,5.9592,5.9215,5.9166,5.8052,5.7117,5.6458,0.0,0.0,0.0,0.0,0.0,0.0,0.0,0.0,0.0,0.0,0.0,0.0,0.0,0.0,0.0,0.0,0.0,0.0,0.0,0.0,0.0,0.0,0.0,0.0,0.0,0.0,0.0,0.0,0.0,0.0,0.0,0.0,0.0,0.0,0.0,0.0,0.0,0.0,0.0,0.0,0.0,0.0,0.0,0.0,0.0,0.0,0.0,0.0,0.0,0.0,0.0,0.0,0.0,0.0,0.0,0.0,0.0,0.0,0.0,0.0,0.0,0.0,0.0,0.0,0.0,0.0,0.0,0.0,0.0,0.0,0.0,0.0,0.0,0.0,0.0,0.0,0.0,0.0,0.0,0.0,0.0,0.0,0.0,0.0,0.0,0.0,0.0,0.0,0.0,0.0,0.0,0.0,0.0,0.0,0.0,0.0,0.0,0.0,0.0,0.0,0.0,0.0,0.0,0.0,0.0,0.0,0.0,0.0,5.8681,5.7937,5.7218,5.6602,5.6485,5.6388,0.0,0.0,0.0,0.0,0.0,0.0,0.0,0.0,0.0,0.0,0.0,0.0,0.0,0.0,0.0,0.0,0.0,0.0,0.0,0.0,0.0,0.0,0.0,0.0,0.0,0.0,0.0,0.0,0.0,0.0,0.0,0.0,0.0,0.0,0.0,0.0,0.0,0.0,0.0,0.0,0.0,0.0,0.0,0.0,0.0,0.0,0.0,0.0,0.0,0.0,0.0,0.0,0.0,0.0,0.0,0.0,0.0,0.0,0.0,0.0,0.0,0.0,0.0,0.0,0.0,0.0,0.0,0.0,0.0,0.0,0.0,0.0,0.0,0.0,0.0,0.0,0.0,0.0,0.0,0.0,0.0,0.0,0.0,0.0,0.0,0.0,0.0,0.0,0.0,0.0,0.0,0.0,0.0,0.0,0.0,0.0,0.0,0.0,0.0,0.0,0.0,0.0,0.0,0.0,0.0,0.0,0.0,0.0,0.0,5.9351,5.8661,5.7909,5.7056,5.6509,5.6239,0.0,0.0,0.0,0.0,0.0,0.0,0.0,0.0,0.0,0.0,0.0,0.0,0.0,0.0,0.0,0.0,0.0,0.0,0.0,0.0,0.0,0.0,0.0,0.0,0.0,0.0,0.0,0.0,0.0,0.0,0.0,0.0,0.0,0.0,0.0,0.0,0.0,0.0,0.0,0.0,0.0,0.0,0.0,0.0,0.0,0.0,0.0,0.0,0.0,0.0,0.0,0.0,0.0,0.0,0.0,0.0,0.0,0.0,0.0,0.0,0.0,0.0,0.0,0.0,0.0,0.0,0.0,0.0,0.0,0.0,0.0,0.0,0.0,0.0,0.0,0.0,0.0,0.0,0.0,0.0,0.0,0.0,0.0,0.0,0.0,0.0,0.0,0.0,0.0,0.0,0.0,0.0,0.0,0.0,0.0,0.0,0.0,0.0,0.0,0.0,0.0,0.0,0.0,0.0,0.0,0.0,0.0,0.0,0.0,5.9002,0.0,5.7572,5.6958,5.6411,5.611,0.0,0.0,0.0,0.0,0.0,0.0,0.0,0.0,0.0,0.0,0.0,0.0,0.0,0.0,0.0,0.0,0.0,0.0,0.0,0.0,0.0,0.0,0.0,0.0,0.0,0.0,0.0,0.0,0.0,0.0,0.0,0.0,0.0,0.0,0.0,0.0,0.0,0.0,0.0,0.0,0.0,0.0,0.0,0.0,0.0,0.0,0.0,0.0,0.0,0.0,0.0,0.0,0.0,0.0,0.0,0.0,0.0,0.0,0.0,0.0,0.0,0.0,0.0,0.0,0.0,0.0,0.0,0.0,0.0,0.0,0.0,0.0,0.0,0.0,0.0,0.0,0.0,0.0,0.0,0.0,0.0,0.0,0.0,0.0,0.0,0.0,0.0,0.0,0.0,0.0,0.0,0.0,0.0,0.0,0.0,0.0,0.0,0.0,0.0,0.0,0.0,0.0,0.0,0.0,0.0,0.0,0.0,0.0,5.8042,5.7348,5.6553,5.6227,5.6051,5.6089,5.599,0.0,0.0,0.0,0.0,0.0,0.0,0.0,0.0,0.0,0.0,0.0,0.0,0.0,0.0,0.0,0.0,0.0,0.0,0.0,0.0,0.0,0.0,0.0,0.0,0.0,0.0,0.0,0.0,0.0,0.0,0.0,0.0,0.0,0.0,0.0,0.0,0.0,0.0,0.0,0.0,0.0,0.0,0.0,0.0,0.0,0.0,0.0,0.0,0.0,0.0,0.0,0.0,0.0,0.0,0.0,0.0,0.0,0.0,0.0,0.0,0.0,0.0,0.0,0.0,0.0,0.0,0.0,0.0,0.0,0.0,0.0,0.0,0.0,0.0,0.0,0.0,0.0,0.0,0.0,0.0,0.0,0.0,0.0,0.0,0.0,0.0,0.0,0.0,0.0,0.0,0.0,0.0,0.0,0.0,0.0,0.0,0.0,0.0,0.0,0.0,0.0,0.0,0.0,0.0,0.0,0.0,0.0,0.0,0.0,5.7965,5.7776,5.7892,5.8351,5.6811,5.6445,0.0,0.0,0.0,0.0,0.0,0.0,0.0,0.0,0.0,0.0,0.0,0.0,0.0,0.0,0.0,0.0,0.0,0.0,0.0,0.0,0.0,0.0,0.0,0.0,0.0,0.0,0.0,0.0,0.0,0.0,0.0,0.0,0.0,0.0,0.0,0.0,0.0,0.0,0.0,0.0,0.0,0.0,0.0,0.0,0.0,0.0,0.0,0.0,0.0,0.0,0.0,0.0,0.0,0.0,0.0,0.0,0.0,0.0,0.0,0.0,0.0,0.0,0.0,0.0,0.0,0.0,0.0,0.0,0.0,0.0,0.0,0.0,0.0,0.0,0.0,0.0,0.0,0.0,0.0,0.0,0.0,0.0,0.0,0.0,0.0,0.0,0.0,0.0,0.0,0.0,0.0,0.0,0.0,0.0,0.0,0.0,0.0,0.0,0.0,0.0,0.0,0.0,0.0,0.0,0.0,0.0,0.0,0.0,0.0,6.0127,5.9271,5.9177,5.9973,5.8192,5.7405,5.7807,0.0,0.0,0.0,0.0,0.0,0.0,0.0,0.0,0.0,0.0,0.0,0.0,0.0,0.0,0.0,0.0,0.0,0.0,0.0,0.0,0.0,0.0,0.0,0.0,0.0,0.0,0.0,0.0,0.0,0.0,0.0,0.0,0.0,0.0,0.0,0.0,0.0,0.0,0.0,0.0,0.0,0.0,0.0,0.0,0.0,0.0,0.0,0.0,0.0,0.0,0.0,0.0,0.0,0.0,0.0,0.0,0.0,0.0,0.0,0.0,0.0,0.0,0.0,0.0,0.0,0.0,0.0,0.0,0.0,0.0,0.0,0.0,0.0,0.0,0.0,0.0,0.0,0.0,0.0,0.0,0.0,0.0,0.0,0.0,0.0,0.0,0.0,0.0,0.0,0.0,0.0,0.0,0.0,0.0,0.0,0.0,0.0,0.0,0.0,0.0,0.0,0.0,0.0,0.0,0.0,0.0,0.0,0.0,6.3666,6.1396,6.0627,6.1243,6.0242,5.8896,0.0,0.0,0.0,0.0,0.0,0.0,0.0,0.0,0.0,0.0,0.0,0.0,0.0,0.0,0.0,0.0,0.0,0.0,0.0,0.0,0.0,0.0,0.0,0.0,0.0,0.0,0.0,0.0,0.0,0.0,0.0,0.0,0.0,0.0,0.0,0.0,0.0,0.0,0.0,0.0,0.0,0.0,0.0,0.0,0.0,0.0,0.0,0.0,0.0,0.0,0.0,0.0,0.0,0.0,0.0,0.0,0.0,0.0,0.0,0.0,0.0,0.0,0.0,0.0,0.0,0.0,0.0,0.0,0.0,0.0,0.0,0.0,0.0,0.0,0.0,0.0,0.0,0.0,0.0,0.0,0.0,0.0,0.0,0.0,0.0,0.0,0.0,0.0,0.0,0.0,0.0,0.0,0.0,0.0,0.0,0.0,0.0,0.0,0.0,0.0,0.0,0.0,0.0,0.0,0.0,0.0,0.0,0.0,0.0,6.7898,6.859,6.809,6.6436,6.3166,6.0896,0.0,0.0,0.0,0.0,0.0,0.0,0.0,0.0,0.0,0.0,0.0,0.0,0.0,0.0,0.0,0.0,0.0,0.0,0.0,0.0,0.0,0.0,0.0,0.0,0.0,0.0,0.0,0.0,0.0,0.0,0.0,0.0,0.0,0.0,0.0,0.0,0.0,0.0,0.0,0.0,0.0,0.0,0.0,0.0,0.0,0.0,0.0,0.0,0.0,0.0,0.0,0.0,0.0,0.0,0.0,0.0,0.0,0.0,0.0,0.0,0.0,0.0,0.0,0.0,0.0,0.0,0.0,0.0,0.0,0.0,0.0,0.0,0.0,0.0,0.0,0.0,0.0,0.0,0.0,0.0,0.0,0.0,0.0,0.0,0.0,0.0,0.0,0.0,0.0,0.0,0.0,0.0,0.0,0.0,0.0,0.0,0.0,0.0,0.0,0.0,0.0,0.0,0.0,0.0,0.0,0.0,0.0,0.0,6.7422,7.0706,7.4476,7.5399,7.3245,6.8398,6.4397,0.0,0.0,0.0,0.0,0.0,0.0,0.0,0.0,0.0,0.0,0.0,0.0,0.0,0.0,0.0,0.0,0.0,0.0,0.0,0.0,0.0,0.0,0.0,0.0,0.0,0.0,0.0,0.0,0.0,0.0,0.0,0.0,0.0,0.0,0.0,0.0,0.0,0.0,0.0,0.0,0.0,0.0,0.0,0.0,0.0,0.0,0.0,0.0,0.0,0.0,0.0,0.0,0.0,0.0,0.0,0.0,0.0,0.0,0.0,0.0,0.0,0.0,0.0,0.0,0.0,0.0,0.0,0.0,0.0,0.0,0.0,0.0,0.0,0.0,0.0,0.0,0.0,0.0,0.0,0.0,0.0,0.0,0.0,0.0,0.0,0.0,0.0,0.0,0.0,0.0,0.0,0.0,0.0,0.0,0.0,0.0,0.0,0.0,0.0,0.0,0.0,0.0,0.0,0.0,0.0,0.0,0.0,0.0,7.1541,7.2899,7.9092,8.1747,8.0246,7.4284,6.8359,0.0,0.0,0.0,0.0,0.0,0.0,0.0,0.0,0.0,0.0,0.0,0.0,0.0,0.0,0.0,0.0,0.0,0.0,0.0,0.0,0.0,0.0,0.0,0.0,0.0,0.0,0.0,0.0,0.0,0.0,0.0,0.0,0.0,0.0,0.0,0.0,0.0,0.0,0.0,0.0,0.0,0.0,0.0,0.0,0.0,0.0,0.0,0.0,0.0,0.0,0.0,0.0,0.0,0.0,0.0,0.0,0.0,0.0,0.0,0.0,0.0,0.0,0.0,0.0,0.0,0.0,0.0,0.0,0.0,0.0,0.0,0.0,0.0,0.0,0.0,0.0,0.0,0.0,0.0,0.0,0.0,0.0,0.0,0.0,0.0,0.0,0.0,0.0,0.0,0.0,0.0,0.0,0.0,0.0,0.0,0.0,0.0,0.0,0.0,0.0,0.0,0.0,0.0,0.0,0.0,0.0,0.0,0.0,7.2947,7.7092,8.1208,8.3478,8.3785,7.6092,6.9783,0.0,0.0,0.0,0.0,0.0,0.0,0.0,0.0,0.0,0.0,0.0,0.0,0.0,0.0,0.0,0.0,0.0,0.0,0.0,0.0,0.0,0.0,0.0,0.0,0.0,0.0,0.0,0.0,0.0,0.0,0.0,0.0,0.0,0.0,0.0,0.0,0.0,0.0,0.0,0.0,0.0,0.0,0.0,0.0,0.0,0.0,0.0,0.0,5.75,0.0,0.0,0.0,0.0,0.0,0.0,0.0,0.0,0.0,0.0,0.0,0.0,0.0,0.0,0.0,0.0,0.0,0.0,0.0,0.0,0.0,0.0,0.0,0.0,0.0,0.0,0.0,0.0,0.0,0.0,0.0,0.0,0.0,0.0,0.0,0.0,0.0,0.0,0.0,0.0,0.0,0.0,0.0,0.0,0.0,0.0,0.0,0.0,0.0,0.0,0.0,0.0,0.0,0.0,0.0,0.0,0.0,0.0,0.0,7.4589,7.9592,8.3439,8.5401,8.5209,7.8746,7.2399,0.0,0.0,0.0,0.0,0.0,0.0,0.0,0.0,0.0,0.0,0.0,0.0,0.0,0.0,0.0,0.0,0.0,0.0,0.0,0.0,0.0,0.0,0.0,0.0,0.0,0.0,0.0,0.0,0.0,0.0,0.0,0.0,0.0,0.0,0.0,0.0,0.0,0.0,0.0,0.0,0.0,0.0,0.0,0.0,0.0,0.0,0.0,0.0,0.0,0.0,0.0,0.0,0.0,0.0,0.0,0.0,0.0,0.0,0.0,0.0,0.0,0.0,0.0,0.0,0.0,0.0,0.0,0.0,0.0,0.0,0.0,0.0,0.0,0.0,0.0,0.0,0.0,0.0,0.0,0.0,0.0,0.0,0.0,0.0,0.0,0.0,0.0,0.0,0.0,0.0,0.0,0.0,0.0,0.0,0.0,0.0,0.0,0.0,0.0,0.0,0.0,0.0,0.0,0.0,0.0,0.0,0.0,7.0609,7.653,8.1593,8.567,8.7248,8.6055,8.1285,7.5091,6.7628,0.0,0.0,0.0,0.0,0.0,0.0,0.0,0.0,0.0,0.0,0.0,0.0,0.0,0.0,0.0,0.0,0.0,0.0,0.0,0.0,0.0,0.0,0.0,0.0,0.0,0.0,0.0,0.0,0.0,0.0,0.0,0.0,0.0,0.0,0.0,0.0,0.0,0.0,5.7148,5.7695,0.0,0.0,0.0,0.0,0.0,0.0,0.0,0.0,5.7539,0.0,0.0,0.0,0.0,0.0,0.0,0.0,0.0,0.0,0.0,0.0,0.0,0.0,0.0,0.0,0.0,0.0,0.0,0.0,0.0,0.0,0.0,0.0,0.0,0.0,0.0,0.0,0.0,0.0,0.0,0.0,0.0,0.0,0.0,0.0,0.0,0.0,0.0,0.0,0.0,0.0,0.0,0.0,0.0,0.0,0.0,0.0,0.0,0.0,0.0,0.0,0.0,0.0,0.0,0.0,0.0,6.6451,7.3214,7.9139,8.4209,8.7709,8.8402,8.6094,8.19,7.6015,6.859,0.0,0.0,0.0,0.0,0.0,0.0,0.0,0.0,0.0,0.0,0.0,0.0,0.0,0.0,0.0,0.0,0.0,0.0,0.0,0.0,0.0,0.0,0.0,0.0,0.0,0.0,0.0,0.0,0.0,0.0,0.0,0.0,0.0,0.0,0.0,0.0,0.0,0.0,0.0,5.9336,5.9844,0.0,0.0,0.0,0.0,0.0,0.0,0.0,0.0,5.8828,0.0,0.0,0.0,0.0,0.0,0.0,0.0,0.0,0.0,0.0,0.0,0.0,0.0,0.0,0.0,0.0,0.0,0.0,0.0,0.0,0.0,0.0,0.0,0.0,0.0,0.0,0.0,0.0,0.0,0.0,0.0,0.0,0.0,0.0,0.0,0.0,0.0,0.0,0.0,0.0,0.0,0.0,0.0,0.0,0.0,0.0,0.0,0.0,0.0,0.0,0.0,0.0,0.0,0.0,0.0,6.8551,7.5577,8.1508,8.6055,8.8209,8.8286,8.6094,8.1554,7.6169,0.0,0.0,0.0,0.0,0.0,0.0,0.0,0.0,0.0,0.0,0.0,0.0,0.0,0.0,0.0,0.0,0.0,0.0,0.0,0.0,0.0,0.0,0.0,0.0,0.0,0.0,0.0,0.0,0.0,0.0,0.0,0.0,0.0,0.0,0.0,0.0,0.0,0.0,0.0,0.0,6.082,6.1953,6.4062,0.0,0.0,0.0,0.0,0.0,0.0,5.9726,5.9219,0.0,0.0,0.0,0.0,0.0,0.0,0.0,0.0,0.0,0.0,0.0,0.0,0.0,0.0,0.0,0.0,0.0,0.0,0.0,0.0,0.0,0.0,0.0,0.0,0.0,0.0,0.0,0.0,0.0,0.0,0.0,0.0,0.0,0.0,0.0,0.0,0.0,0.0,0.0,0.0,0.0,0.0,0.0,0.0,0.0,0.0,0.0,0.0,0.0,0.0,0.0,0.0,0.0,0.0,0.0,6.9787,7.7406,8.3341,8.7248,8.8594,8.8209,8.6094,8.1323,7.6284,0.0,0.0,0.0,0.0,0.0,0.0,0.0,0.0,0.0,0.0,0.0,0.0,0.0,0.0,0.0,0.0,0.0,0.0,0.0,0.0,0.0,0.0,0.0,0.0,0.0,0.0,0.0,0.0,0.0,0.0,0.0,0.0,0.0,0.0,0.0,0.0,0.0,0.0,0.0,0.0,0.0,6.3633,6.5351,6.4414,0.0,0.0,0.0,0.0,6.1484,6.1211,0.0,0.0,0.0,0.0,0.0,0.0,0.0,0.0,0.0,0.0,0.0,0.0,0.0,0.0,0.0,0.0,0.0,0.0,0.0,0.0,0.0,0.0,0.0,0.0,0.0,0.0,0.0,0.0,0.0,0.0,0.0,0.0,0.0,0.0,0.0,0.0,0.0,0.0,0.0,0.0,0.0,0.0,0.0,0.0,0.0,0.0,0.0,0.0,0.0,0.0,0.0,0.0,0.0,0.0,0.0,0.0,6.9812,7.7916,8.3845,8.7325,8.971,8.9363,8.617,8.19,7.6899,0.0,0.0,0.0,0.0,0.0,0.0,0.0,0.0,0.0,0.0,0.0,0.0,0.0,0.0,0.0,0.0,0.0,0.0,0.0,0.0,0.0,0.0,0.0,0.0,0.0,0.0,0.0,0.0,0.0,0.0,0.0,0.0,0.0,0.0,0.0,0.0,0.0,0.0,0.0,0.0,0.0,6.3633,6.5351,6.543,6.5312,0.0,0.0,0.0,6.5117,6.6211,0.0,0.0,0.0,0.0,0.0,0.0,0.0,0.0,0.0,0.0,0.0,0.0,0.0,0.0,0.0,0.0,0.0,0.0,0.0,0.0,0.0,0.0,0.0,0.0,0.0,0.0,0.0,0.0,0.0,0.0,0.0,0.0,0.0,0.0,0.0,0.0,0.0,0.0,0.0,0.0,0.0,0.0,0.0,0.0,0.0,0.0,0.0,0.0,0.0,0.0,0.0,0.0,0.0,0.0,0.0,6.7345,7.126,7.9479,8.5185,8.8017,8.921,8.8594,8.617,8.1093,7.6515,0.0,0.0,0.0,0.0,0.0,0.0,0.0,0.0,0.0,0.0,0.0,0.0,0.0,0.0,0.0,0.0,0.0,0.0,0.0,0.0,0.0,0.0,0.0,0.0,0.0,0.0,0.0,0.0,0.0,0.0,0.0,0.0,0.0,0.0,0.0,0.0,0.0,0.0,0.0,0.0,0.0,0.0,6.7031,6.707,0.0,0.0,0.0,6.7305,6.6484,0.0,0.0,0.0,0.0,0.0,0.0,0.0,0.0,0.0,0.0,0.0,0.0,0.0,0.0,0.0,0.0,0.0,0.0,0.0,0.0,0.0,0.0,0.0,0.0,0.0,0.0,0.0,0.0,0.0,0.0,0.0,0.0,0.0,0.0,0.0,0.0,0.0,0.0,0.0,0.0,0.0,0.0,0.0,0.0,0.0,0.0,0.0,0.0,0.0,0.0,0.0,0.0,0.0,0.0,0.0,0.0,0.0,7.2869,8.0817,8.6219,8.8863,8.8979,8.8094,8.6094,8.1016,0.0,0.0,0.0,0.0,0.0,0.0,0.0,0.0,0.0,0.0,0.0,0.0,0.0,0.0,0.0,0.0,0.0,0.0,0.0,0.0,0.0,0.0,0.0,0.0,0.0,0.0,0.0,5.6836,0.0,0.0,0.0,0.0,0.0,0.0,0.0,0.0,0.0,0.0,0.0,0.0,0.0,0.0,6.8945,6.8555,6.8867,6.9219,0.0,0.0,6.8945,6.8281,6.9101,6.8711,0.0,0.0,0.0,0.0,0.0,0.0,0.0,0.0,0.0,0.0,0.0,0.0,0.0,0.0,0.0,0.0,0.0,0.0,0.0,0.0,0.0,0.0,0.0,0.0,0.0,0.0,0.0,0.0,0.0,0.0,0.0,0.0,0.0,0.0,0.0,0.0,0.0,0.0,0.0,0.0,0.0,0.0,0.0,0.0,0.0,0.0,0.0,0.0,0.0,0.0,0.0,0.0,0.0,0.0,0.0,7.4561,8.1397,8.6526,8.9671,8.9825,8.8632,8.6132,8.267,7.8554,0.0,0.0,0.0,0.0,0.0,0.0,0.0,0.0,0.0,0.0,0.0,0.0,0.0,0.0,0.0,0.0,0.0,0.0,0.0,0.0,0.0,0.0,0.0,0.0,0.0,0.0,0.0,0.0,0.0,0.0,0.0,0.0,0.0,0.0,0.0,0.0,0.0,0.0,0.0,0.0,0.0,6.8515,6.9219,7.0703,7.2031,0.0,0.0,7.1719,7.164,7.3047,7.25,6.7539,0.0,0.0,0.0,0.0,0.0,0.0,0.0,0.0,0.0,0.0,0.0,0.0,0.0,0.0,0.0,0.0,0.0,0.0,0.0,0.0,0.0,0.0,0.0,0.0,0.0,0.0,0.0,0.0,0.0,0.0,0.0,0.0,0.0,0.0,0.0,0.0,0.0,0.0,0.0,0.0,0.0,0.0,0.0,0.0,0.0,0.0,0.0,0.0,0.0,0.0,0.0,0.0,0.0,7.0413,7.548,8.2706,8.7837,9.0556,9.071,8.9748,8.7748,8.3901,7.9708,0.0,0.0,0.0,0.0,0.0,0.0,0.0,0.0,0.0,0.0,0.0,0.0,0.0,0.0,0.0,0.0,0.0,0.0,0.0,0.0,0.0,0.0,0.0,0.0,0.0,0.0,0.0,0.0,5.9375,6.0039,5.9492,0.0,0.0,0.0,0.0,0.0,0.0,0.0,0.0,0.0,0.0,7.0664,7.0976,7.2031,0.0,0.0,7.3476,7.3398,7.289,7.3359,7.2422,6.8359,6.6797,0.0,0.0,0.0,0.0,0.0,0.0,0.0,0.0,0.0,0.0,0.0,0.0,0.0,0.0,0.0,0.0,0.0,0.0,0.0,0.0,0.0,0.0,0.0,0.0,0.0,0.0,0.0,0.0,0.0,0.0,0.0,0.0,0.0,0.0,0.0,0.0,0.0,0.0,0.0,0.0,0.0,0.0,0.0,0.0,0.0,0.0,0.0,0.0,0.0,0.0,0.0,0.0,7.1672,7.7462,8.4084,8.8877,9.1902,9.171,9.0787,8.9017,8.517,8.1208,0.0,0.0,0.0,0.0,0.0,0.0,0.0,0.0,0.0,0.0,0.0,0.0,0.0,0.0,0.0,0.0,0.0,0.0,0.0,0.0,0.0,0.0,0.0,0.0,0.0,0.0,0.0,0.0,6.043,6.1094,6.0469,0.0,0.0,0.0,0.0,0.0,0.0,0.0,0.0,0.0,0.0,7.1719,7.1953,7.2969,7.3672,7.3672,7.4219,7.4297,7.3437,7.332,7.2226,6.9062,0.0,0.0,0.0,0.0,0.0,0.0,0.0,0.0,0.0,0.0,0.0,0.0,0.0,0.0,0.0,0.0,0.0,0.0,0.0,0.0,0.0,0.0,0.0,0.0,0.0,0.0,0.0,0.0,0.0,0.0,0.0,0.0,0.0,0.0,0.0,0.0,0.0,0.0,0.0,0.0,0.0,0.0,0.0,0.0,0.0,0.0,0.0,0.0,0.0,0.0,0.0,0.0,0.0,0.0,8.0855,8.527,8.9453,9.3441,9.2864,9.1672,8.9902,8.6632,8.3247,7.9746,0.0,0.0,0.0,0.0,0.0,0.0,0.0,0.0,0.0,0.0,0.0,0.0,0.0,0.0,0.0,0.0,0.0,0.0,0.0,0.0,0.0,0.0,0.0,0.0,0.0,0.0,5.9255,5.9883,6.039,0.0,0.0,0.0,0.0,0.0,0.0,0.0,0.0,0.0,0.0,6.9101,7.1055,7.1875,7.3476,7.4531,7.4531,7.457,7.4297,7.3476,7.332,7.2422,0.0,0.0,0.0,0.0,0.0,0.0,0.0,0.0,0.0,0.0,0.0,0.0,0.0,0.0,0.0,0.0,0.0,0.0,0.0,0.0,0.0,0.0,0.0,0.0,0.0,0.0,0.0,0.0,6.6399,0.0,0.0,0.0,0.0,0.0,0.0,0.0,0.0,0.0,0.0,0.0,7.1364,7.1657,0.0,0.0,0.0,0.0,0.0,0.0,0.0,0.0,0.0,0.0,0.0,0.0,7.4549,8.1003,8.6384,9.0836,9.4441,9.4287,9.3326,9.1633,8.8902,8.4747,7.9107,0.0,0.0,0.0,0.0,0.0,0.0,0.0,0.0,0.0,0.0,0.0,0.0,0.0,0.0,0.0,0.0,0.0,0.0,0.0,0.0,0.0,0.0,0.0,0.0,0.0,6.1516,0.0,0.0,0.0,0.0,0.0,0.0,0.0,0.0,0.0,0.0,0.0,6.7617,6.8515,7.0252,7.1555,7.1877,7.3399,7.4466,0.0,0.0,0.0,0.0,0.0,0.0,0.0,0.0,0.0,0.0,0.0,0.0,0.0,0.0,6.4883,6.1484,6.1328,6.1562,6.0976,0.0,0.0,0.0,0.0,0.0,0.0,0.0,0.0,0.0,0.0,0.0,0.0,0.0,0.0,0.0,0.0,6.8112,0.0,0.0,0.0,0.0,0.0,0.0,0.0,0.0,7.2112,7.3619,7.4483,7.4697,7.4832,0.0,7.4562,7.3245,0.0,0.0,0.0,0.0,0.0,0.0,0.0,0.0,7.6002,8.1875,8.7225,9.1681,9.5249,9.5134,9.448,9.3364,9.0017,8.5517,7.9715,7.6494,7.3668,0.0,0.0,0.0,0.0,0.0,0.0,0.0,0.0,0.0,0.0,0.0,0.0,0.0,0.0,0.0,0.0,0.0,0.0,0.0,0.0,0.0,0.0,0.0,6.3416,0.0,0.0,0.0,0.0,0.0,0.0,0.0,0.0,0.0,6.6351,6.7877,6.9238,7.0113,7.1144,7.1821,7.1894,0.0,0.0,0.0,0.0,0.0,0.0,0.0,7.2969,7.1836,7.1953,7.1914,7.1015,7.1055,7.1211,7.125,0.0,0.0,6.5273,6.4844,6.5117,6.4883,6.5273,6.5937,6.6797,6.7422,6.8008,0.0,0.0,0.0,0.0,0.0,0.0,0.0,0.0,7.2234,7.1652,0.0,7.1497,0.0,0.0,0.0,0.0,0.0,0.0,0.0,0.0,7.5846,7.7053,7.6573,7.7216,7.7578,7.763,7.6809,7.634,7.6216,7.4572,0.0,0.0,0.0,0.0,0.0,0.0,7.7753,8.3603,8.791,9.2065,9.6095,9.548,9.4943,9.4674,9.0056,8.5593,8.167,7.8884,7.6356,7.4072,7.1343,0.0,0.0,0.0,0.0,0.0,0.0,0.0,0.0,0.0,0.0,0.0,0.0,0.0,0.0,0.0,0.0,0.0,0.0,0.0,0.0,6.3535,0.0,0.0,0.0,0.0,0.0,0.0,0.0,0.0,0.0,0.0,6.8048,6.9433,7.0736,7.149,0.0,0.0,0.0,0.0,7.4305,7.3534,7.4804,7.5625,7.4883,7.539,7.5859,7.5859,0.0,0.0,7.6133,7.5312,7.4765,7.4765,7.539,7.4687,7.0547,6.9687,6.9805,7.0508,7.0664,7.1133,7.1914,7.2109,7.2226,7.5589,0.0,0.0,0.0,0.0,7.3301,7.5136,7.7536,7.7051,7.66,7.5994,7.4769,0.0,0.0,0.0,0.0,0.0,0.0,7.402,7.6393,7.7884,7.9438,8.0931,8.1725,8.2058,8.2134,8.1831,8.1977,8.2416,8.0912,7.7341,7.1898,0.0,0.0,0.0,0.0,8.0674,8.5344,9.0136,9.383,9.6249,9.5553,9.4271,9.247,8.98,8.694,8.401,8.1385,7.9133,7.7232,7.4687,0.0,0.0,0.0,0.0,0.0,0.0,0.0,0.0,0.0,0.0,0.0,0.0,0.0,0.0,0.0,0.0,0.0,0.0,0.0,6.4417,6.5254,6.5317,0.0,0.0,0.0,0.0,0.0,0.0,0.0,0.0,0.0,7.092,7.1186,7.1395,0.0,0.0,7.1716,7.1739,7.3138,7.4303,7.4716,0.0,0.0,0.0,7.6836,7.664,7.6797,7.7539,7.8242,7.8555,7.8398,7.8242,7.8242,7.8437,7.8164,7.7031,7.5234,7.4023,7.3633,7.3984,7.4687,7.5508,7.6172,7.6797,8.1551,7.7393,7.537,7.5271,7.6579,7.7349,7.8982,8.0933,8.0805,8.0284,7.9368,7.8143,7.648,7.461,7.3921,0.0,0.0,0.0,7.7297,7.9954,8.0692,8.2051,8.3828,8.4277,8.4523,8.4609,8.4861,8.4881,8.4613,8.3661,8.0787,7.5966,0.0,0.0,7.4465,7.9018,8.3114,8.6692,9.0719,9.3638,9.5369,9.4929,9.364,9.1539,8.9756,8.7461,8.4714,8.2492,8.0506,7.873,7.6878,7.5187,0.0,0.0,0.0,0.0,0.0,0.0,0.0,0.0,0.0,0.0,0.0,6.1593,5.924,0.0,0.0,0.0,6.4359,6.6397,6.7782,6.7653,0.0,0.0,0.0,0.0,0.0,0.0,0.0,6.6946,6.9167,7.1274,7.2685,7.2894,7.3048,7.3491,7.3529,7.3509,7.3544,0.0,7.5714,7.6278,7.7014,7.772,7.839,7.8369,7.8445,7.9023,7.9492,8.0039,8.0586,8.0742,8.0742,8.0742,8.0742,8.0742,8.0742,7.9453,7.8164,7.7344,7.7539,7.8164,7.9062,7.9922,8.0703,8.6628,8.4866,8.1376,8.021,8.069,8.1501,8.2591,8.3765,8.3801,8.3051,8.187,8.1544,8.0073,7.7872,7.7441,0.0,0.0,8.0039,8.1612,8.3334,8.3951,8.4755,8.5724,8.5621,8.5632,8.583,8.6437,8.5944,8.4619,8.435,8.35,8.1946,8.1041,7.9664,7.818,8.1914,8.5175,8.7632,9.0256,9.2354,9.4009,9.3921,9.3173,9.1558,8.9821,8.7416,8.432,8.2605,8.0837,7.9028,7.8206,7.727,7.6148,0.0,0.0,0.0,0.0,0.0,0.0,0.0,0.0,0.0,0.0,0.0,0.0,0.0,0.0,0.0,6.8359,0.0,7.0937,7.0348,0.0,0.0,0.0,6.9129,6.9899,7.0092,7.0194,7.0092,0.0,0.0,0.0,0.0,7.5491,7.6374,7.6427,7.6413,7.6494,7.7213,7.7911,7.7929,7.8715,7.9223,7.9365,7.9941,8.0635,8.148,8.1951,8.1914,8.2109,8.2187,8.2226,8.2187,8.2304,8.2304,8.2383,8.2148,8.207,8.1172,8.1015,8.125,8.1914,8.2695,8.3281,9.1583,9.0005,8.9084,8.7132,8.4595,8.53,8.6219,8.7031,8.7068,8.6518,8.5594,8.4903,8.4007,8.2839,8.2744,8.2829,8.3107,8.3445,8.4147,8.5198,8.5918,8.674,8.7524,8.8146,8.8446,8.847,8.8593,8.8784,8.8861,8.7746,8.6722,8.5917,8.5102,8.3111,8.0282,8.355,8.6235,8.8094,9.0652,9.2373,9.3264,9.3765,9.2974,9.0834,8.9641,8.7511,8.4372,8.2989,8.1346,7.9269,7.9245,7.8685,7.727,7.4678,0.0,0.0,0.0,0.0,0.0,0.0,0.0,0.0,0.0,6.673,6.328,0.0,6.7821,0.0,6.9706,7.1668,7.186,7.1734,0.0,0.0,7.1151,7.142,7.1618,7.2762,7.3311,7.2696,7.4081,7.5168,7.5418,7.6727,7.7949,7.8777,7.7421,7.6571,7.7216,7.7949,7.8745,7.9394,8.0076,8.0708,8.0785,8.1167,8.1504,8.1708,8.1761,8.1836,8.2031,8.207,8.2109,8.2265,8.2304,8.2539,8.3164,8.2773,8.2539,8.2812,8.2461,8.2031,8.2265,8.3008,8.3594,9.4299,9.3382,9.3051,9.162,8.9528,8.8904,8.8867,8.9271,8.9271,8.9014,8.8536,8.7399,8.6224,8.5159,8.5527,8.5673,8.571,8.604,8.6848,8.7949,8.839,8.9228,9.0389,9.0441,9.0667,9.0997,9.0667,9.0508,9.055,9.0401,8.9841,8.8801,8.9098,8.791,8.5507,8.5871,8.7192,8.9373,9.0907,9.1944,9.2431,9.2829,9.1979,8.9803,8.8446,8.6084,8.2593,8.0906,7.9293,7.7711,7.7521,7.7291,7.6847,7.4716,7.3129,0.0,0.0,0.0,0.0,0.0,0.0,0.0,0.0,0.0,0.0,0.0,7.0717,0.0,7.2552,0.0,7.336,7.3311,7.3119,7.2629,7.2996,7.3457,7.386,7.5053,7.5707,7.5245,7.6322,7.7246,7.7669,7.8515,7.94,8.0238,7.924,7.8613,7.9054,7.9537,7.9943,8.0444,8.0846,8.1131,8.1246,8.167,8.1862,8.1647,8.1868,8.2104,8.2026,8.1987,8.2187,8.2734,8.2578,8.2734,8.3828,8.3125,8.2695,8.3672,8.3476,8.2929,8.289,8.3554,8.4336,9.5951,9.5878,9.496,9.4556,9.4263,9.2024,9.1069,9.1069,9.1069,9.1033,9.0812,8.9344,8.7876,8.6628,8.7325,8.7692,8.7839,8.85,8.9638,9.1033,9.1069,9.1875,9.3231,9.25,9.2464,9.3234,9.2501,9.1767,9.1143,9.2537,9.2464,9.1105,9.2354,9.246,9.132,8.8474,8.8205,9.057,9.1024,9.1398,9.1692,9.1461,9.0397,8.8487,8.6579,8.3825,8.0163,7.7892,7.6253,7.5344,7.4977,7.5246,7.6032,7.4755,7.3678,0.0,7.2091,0.0,0.0,0.0,0.0,0.0,0.0,0.0,0.0,7.2188,7.3332,7.4745,7.5553,7.5707,7.4938,7.4966,7.5043,7.5053,7.5139,7.5485,7.6245,7.6976,7.7438,7.7438,7.8169,7.8977,7.9592,7.9862,8.0285,8.09,8.09,8.0893,8.1208,8.117,8.1208,8.1246,8.1362,8.1631,8.167,8.2093,8.2324,8.19,8.2301,8.2586,8.234,8.2309,8.2617,8.3437,8.3164,8.3242,8.4765,8.375,8.3281,8.4726,8.4492,8.4023,8.4062,8.4687,8.5742,9.8411,9.83,9.6869,9.5878,9.518,9.4079,9.3602,9.3602,9.3602,9.3235,9.2574,9.1546,9.0959,9.0665,9.0812,9.1253,9.195,9.2097,9.2684,9.3602,9.3602,9.3749,9.4043,9.3859,9.3932,9.4079,9.3896,9.3749,9.3602,9.3932,9.3713,9.3044,9.2639,9.2579,0.0,0.0,0.0,0.0,9.1195,9.1832,9.12,9.0267,8.8801,8.7105,8.4183,0.0,7.8664,7.6736,7.5105,7.3897,7.5207,0.0,0.0,0.0,0.0,0.0,0.0,0.0,0.0,0.0,0.0,0.0,7.4802,7.458,7.4034,7.4793,7.5399,7.5745,7.5899,7.5938,7.5784,7.6429,7.6813,7.6823,7.7361,7.7861,7.8015,7.8169,7.8246,7.8284,7.9054,7.9592,7.9823,8.04,8.09,8.1054,8.1093,8.14,8.1946,8.2016,8.2054,8.2093,8.2554,8.3054,8.3131,8.317,8.3208,8.3208,8.324,8.3433,8.3439,8.3479,8.3679,8.4297,8.4297,8.4492,8.5703,8.5117,8.4648,8.5781,8.582,8.5703,8.5703,8.6406,8.7304,10.087,0.0,9.9585,9.8814,0.0,9.7603,9.7236,9.7126,9.5144,9.4079,9.3675,9.3272,9.3015,9.3051,9.3015,9.3272,9.3675,9.3675,9.4116,9.4887,9.4887,9.5107,9.5474,9.507,9.5107,9.5437,9.4666,9.4703,9.5474,9.5474,9.5329,9.5148,9.4743,9.4665,9.5012,9.3994,9.2602,9.0732,9.1749,9.2262,9.2055,9.1016,8.9596,8.7693,0.0,0.0,0.0,0.0,0.0,0.0,0.0,0.0,0.0,0.0,0.0,7.7177,7.653,7.6492,7.7177,7.766,7.8083,7.8477,7.8531,7.7993,7.6686,7.6985,7.7592,7.8438,7.813,7.7861,7.79,7.8276,7.8353,7.7977,7.8254,7.8485,7.8554,7.89,7.9131,7.9208,7.9939,8.0439,8.0439,8.0785,8.1093,8.1093,8.1093,8.1246,8.167,8.2054,8.2401,8.2824,8.2824,8.2939,8.2978,8.3362,8.3439,8.317,8.367,8.4093,8.3912,8.3912,8.4146,8.4785,8.474,8.4841,8.6059,8.5565,8.5273,8.6758,8.7031,8.7383,8.8281,8.8398,8.8476,10.3366,10.3256,10.2301,10.1824,10.1641,10.087,10.0429,10.0062,0.0,0.0,0.0,9.4336,9.4263,9.4299,9.4299,9.4373,9.452,9.452,9.496,9.5694,9.5731,9.6061,9.6649,9.6025,9.6061,9.6612,9.5327,9.5474,9.6869,9.6759,9.6869,9.7052,9.6869,9.6722,9.6722,9.6832,9.5688,9.3367,9.2939,9.2905,9.3125,9.2242,9.0836,8.8856,8.6352,8.3411,7.9928,7.7454,7.5509,7.4147,7.4075,7.4411,7.5205,7.4884,7.5311,7.6607,7.6873,7.7523,7.8869,7.9623,8.0354,8.1054,8.1093,8.0484,7.9069,7.8946,7.9477,8.0785,8.0208,7.9746,7.9592,7.9738,7.9507,7.8784,7.8869,7.8985,7.9015,7.9554,8.0015,8.0092,8.0631,8.1093,8.1054,8.1054,8.1093,8.1093,8.1093,8.1285,8.1554,8.2208,8.2978,8.3862,8.3747,8.3131,8.3131,8.367,8.3708,8.3407,8.4291,8.4868,8.445,8.4297,8.4676,8.5536,8.5036,8.5349,8.6399,8.5884,8.5825,8.7916,8.8125,8.8476,9.0508,9.0234,8.9883,10.5862,10.5752,10.421,10.3146,10.2485,10.1677,10.0943,10.0062,9.7493,9.5988,9.529,9.4589,9.4295,9.4299,9.4299,9.4666,9.5327,9.5327,9.5768,0.0,9.6539,9.6612,9.6685,9.6575,9.6575,9.6685,9.6465,9.6832,9.7566,9.7052,9.7383,9.8447,9.7383,9.6722,9.6759,9.7386,9.753,9.7117,9.5395,9.4116,9.3487,9.232,9.0823,8.9145,8.6746,8.4211,8.1562,7.9108,7.7027,7.5543,7.54,7.5602,7.6022,7.667,7.7756,7.9362,7.9591,7.993,8.0677,8.0823,8.0977,8.1093,8.1093,8.0977,8.0785,8.0746,8.0554,8.0092,7.9939,7.9477,7.8861,7.943,7.9815,7.9708,8.0285,8.0708,8.0631,8.0785,8.0862,8.0862,8.1016,8.1093,8.1093,8.1093,8.1093,8.1093,8.1093,8.1593,8.2747,8.3324,8.4055,8.5324,8.567,8.5555,8.5247,8.5593,8.544,8.5593,8.5632,8.5824,8.5599,8.5599,8.5786,8.6247,8.6061,8.6277,8.677,8.6693,8.6979,8.8117,8.8657,8.9531,9.0898,9.125,9.1719,10.7697,10.7624,10.6853,10.6082,10.5238,10.3513,10.2081,10.0833,9.9286,9.8149,9.7493,9.7085,9.6645,9.6245,9.6245,9.6208,9.6171,9.6171,9.6355,9.6685,9.6722,9.6906,9.7276,9.6869,9.7163,9.7933,9.7566,9.797,9.9071,9.8814,9.9035,9.9659,9.8594,9.8048,9.8014,9.8385,9.8562,9.8467,9.6751,9.5621,9.5258,9.3856,9.2524,9.1343,8.9283,8.7328,8.53,8.2942,8.1104,7.9941,7.902,7.8772,7.9239,7.8928,7.9575,8.134,8.1554,8.1837,8.2446,8.2471,8.2278,8.1816,8.1778,8.1554,8.1131,8.1093,8.0939,8.0554,8.0516,8.0362,7.9939,8.0246,8.0508,8.0516,8.0862,8.1093,8.1093,8.1093,8.1093,8.1093,8.1093,8.1093,8.1093,8.1093,8.1093,8.1093,8.1093,8.1747,8.3324,8.3593,8.4209,8.567,8.5747,8.5478,8.5478,8.544,8.544,8.5472,8.5786,8.6055,8.6094,8.6094,8.617,8.6247,8.6286,8.6517,8.694,8.7209,8.7827,8.903,8.9647,9.0383,9.1295,9.1886,9.2265,10.9239,10.9055,10.8872,10.8211,10.7147,10.5091,10.3439,10.2265,10.1494,10.0796,10.0172,9.9475,9.8778,9.819,9.797,9.753,9.7016,9.6795,9.6795,9.6942,9.6942,9.7423,9.8051,9.7533,9.8007,9.9218,9.8741,9.9292,10.0686,10.065,10.0466,10.0246,9.9659,9.937,9.9379,9.9526,9.9701,9.9785,9.8699,9.7823,9.7199,9.5841,9.474,9.3896,9.2281,9.0665,8.905,8.6852,8.5227,8.4276,8.2647,8.1921,8.2132,8.1039,8.1042,8.2528,8.2831,8.324,8.3879,8.408,8.3811,8.2971,8.2894,8.2547,8.1785,8.167,8.1593,8.14,8.1362,8.1439,8.1593,8.167,8.1631,8.1631,8.1477,8.1516,8.1631,8.1516,8.1362,8.1362,8.1554,8.1593,8.1246,8.1439,8.1708,8.1747,8.1516,8.2054,8.351,8.3894,8.4516,8.5478,8.5555,8.5286,8.517,8.5209,8.5247,8.5164,8.567,8.6017,8.6094,8.6094,8.6094,8.6132,8.6094,8.6324,8.6978,8.7401,8.8051,8.9112,8.9755,9.0659,9.1522,9.1954,9.2304,11.0524,10.9826,10.9129,10.7881,10.6559,10.5458,10.4908,10.4614,10.3897,10.3529,10.3036,10.0386,9.9139,9.8924,9.83,9.7933,9.7713,9.7052,9.7126,9.775,9.7787,9.8195,9.9011,9.8929,9.9286,10.0166,10.0172,10.087,10.2301,10.1751,10.1053,10.0356,10.0209,10.0289,10.0331,10.0961,10.1654,10.2321,10.2211,10.1083,9.8998,9.8007,9.7163,9.6355,9.4777,9.3161,9.1473,8.9861,8.8248,8.6738,8.5133,8.3966,8.3301,8.2451,8.2338,8.3079,8.3154,8.359,8.4882,8.5504,8.5549,8.4753,8.4632,8.4279,8.3478,8.3362,8.3016,8.2516,8.2285,8.2477,8.3247,8.3279,8.3163,8.3093,8.2624,8.2509,8.3016,8.267,8.217,8.217,8.2747,8.2824,8.1708,8.2362,8.317,8.3125,8.2593,8.2785,8.4279,8.4664,8.4939,8.5786,8.5978,8.594,8.5901,8.5978,8.5901,8.594,8.6017,8.6094,8.6094,8.6094,8.6094,8.6094,8.6094,8.617,8.6478,8.6824,8.7517,8.8209,8.9171,9.0287,9.121,9.1824,9.2332,11.1001,11.0707,11.0377,10.9569,10.8358,10.6633,10.5862,10.5752,10.4485,10.3852,10.3733,10.2477,10.1413,10.0503,10.0172,9.9548,9.8594,9.8264,9.8557,9.9255,9.9328,10.0036,10.1113,10.0693,10.1164,10.2257,10.1971,10.2301,10.3146,10.3036,10.2742,10.2448,10.2412,10.2456,10.2469,10.2757,10.3072,10.3337,10.3374,10.2908,10.1898,10.0209,9.8704,9.7456,9.6282,9.496,9.3308,9.1694,9.0336,8.9163,8.7593,8.6605,8.6269,8.5495,8.5373,8.5939,8.6824,8.7452,8.791,8.8205,8.7748,8.6488,8.6368,8.6017,8.5176,8.5093,8.5093,8.5132,8.3939,8.3247,8.3593,8.3625,8.3587,8.3555,8.3285,8.3215,8.3516,8.3285,8.3054,8.3093,8.3362,8.3401,8.2824,8.317,8.3587,8.3587,8.3247,8.3676,8.4747,8.4901,8.5247,8.5901,8.6094,8.6094,8.6094,8.6094,8.6094,8.6094,8.6094,8.6094,8.6094,8.6094,8.6094,8.6094,8.6094,8.6324,8.6863,8.7094,8.7517,8.8094,8.8902,9.0059,9.0482,9.171,9.2896,11.1221,11.1184,11.0964,11.0414,10.9533,10.7807,10.6926,10.6596,10.5432,10.4807,10.4577,10.4567,10.3843,10.2558,10.2045,10.1164,10.0172,9.9879,10.0209,10.0907,10.0943,10.1684,10.2837,10.2419,10.3036,10.4237,10.4027,10.4137,10.4761,10.4394,10.421,10.421,10.4027,10.3999,10.4235,10.4182,10.4421,10.4839,10.4692,10.4557,10.432,10.2412,10.0429,9.8668,9.7346,9.6025,9.4666,9.3015,9.1877,9.1253,8.9752,8.8874,8.8871,8.8099,8.7992,8.8679,8.9853,9.0562,9.0643,9.0872,9.021,8.8679,8.8444,8.7983,8.7064,8.6791,8.7094,8.744,8.6055,8.5093,8.4978,8.501,8.501,8.4978,8.4637,8.4445,8.4978,8.4516,8.4055,8.4247,8.467,8.4632,8.4516,8.4132,8.374,8.4241,8.4368,8.4604,8.5445,8.5863,8.617,8.644,8.6632,8.6594,8.6247,8.6094,8.6094,8.6094,8.6094,8.6094,8.6094,8.6094,8.6094,8.6094,8.6094,8.6247,8.6671,8.7094,8.8094,8.9017,8.9671,9.0056,9.0444,9.1864,9.3169,11.1221,11.1111,11.0377,10.9716,10.8835,10.8725,10.8248,10.7587,10.7415,10.6974,10.6339,10.6229,10.5789,10.4834,10.3513,10.2669,10.2412,10.1677,10.1824,10.2558,10.2595,10.3036,10.377,10.3806,10.4677,10.6133,10.6144,10.6486,10.7147,10.5789,10.5054,10.5018,10.4394,10.4366,10.5036,10.5147,10.5872,10.7061,10.6548,10.6266,10.6046,10.4541,10.2448,10.0172,9.797,9.6392,9.5364,9.3896,9.3014,9.2978,9.1363,9.0484,9.0374,8.9713,8.9614,9.0342,9.1132,9.1846,9.2417,9.3019,9.2707,9.1325,9.0941,9.0329,8.9025,8.879,8.8825,8.8709,8.8594,8.8363,8.8248,8.7935,8.8012,8.7979,8.6863,8.6824,8.8055,8.617,8.5401,8.5786,8.644,8.6748,8.6978,8.5093,8.4747,8.5478,8.5945,8.6257,8.7022,8.7863,8.794,8.7632,8.7786,8.7979,8.6517,8.6286,8.6247,8.6094,8.6094,8.6094,8.6094,8.6094,8.6094,8.6094,8.6094,8.6209,8.6478,8.7401,8.8863,8.971,8.9855,9.0129,9.0402,9.1675,9.2903,11.1221,11.1184,11.0891,11.0597,11.0304,10.979,10.9386,10.9055,10.8591,10.8223,10.7881,10.7404,10.7,10.667,10.6082,10.4944,10.3513,10.3146,10.3476,10.4173,10.4247,10.4687,10.5458,10.6019,10.6523,10.7122,10.7722,10.7844,10.744,10.6449,10.5935,10.5899,10.5642,10.5946,10.6617,10.6728,10.7268,10.8211,10.7575,10.7135,10.6963,10.5018,10.2962,10.1127,9.9255,9.7383,9.5547,9.4444,9.3601,9.3125,9.2537,9.1987,9.14,9.1106,9.1053,9.1359,9.2504,9.3037,9.2847,9.3793,9.4057,9.2982,9.2826,9.2556,9.2021,9.1902,9.1672,9.121,9.1095,9.0941,9.0171,8.9398,8.8705,8.8628,8.8137,8.7752,8.7825,8.7478,8.7055,8.6478,8.6863,8.7401,8.7325,8.6555,8.6319,8.6819,8.6906,8.7368,8.7987,8.8521,8.8632,8.8363,8.844,8.8286,8.7171,8.694,8.6824,8.6324,8.6094,8.617,8.617,8.6209,8.6209,8.6094,8.6094,8.6478,8.6824,8.7863,8.9325,8.9556,8.9705,9.0283,9.0325,9.1982,9.2905,11.1221,11.1221,11.1221,11.1221,11.1148,11.0597,11.023,10.9973,10.9386,10.9019,10.8725,10.8248,10.8028,10.7954,10.7991,10.7147,10.5532,10.5238,10.5238,10.5495,10.5532,10.5825,10.6413,10.7195,10.7783,10.8088,10.8785,10.8945,10.8285,10.7294,10.6926,10.7147,10.6926,10.7195,10.7867,10.8014,10.8407,10.8822,10.8162,10.7722,10.7624,10.5311,10.3256,10.1824,10.0099,9.8117,9.5988,9.5138,9.4442,9.3933,9.3639,9.3087,9.2317,9.195,9.1938,9.2216,9.3073,9.3719,9.3601,9.4482,9.4789,9.4176,9.4097,9.4057,9.3751,9.348,9.3018,9.2633,9.2479,9.221,9.1672,9.0825,9.0129,8.9594,8.9252,8.8983,8.8671,8.8671,8.8248,8.7709,8.7671,8.794,8.8094,8.7974,8.782,8.782,8.8017,8.8521,8.8909,8.9367,8.9325,8.9171,8.9402,8.9056,8.8325,8.8055,8.7594,8.7094,8.6901,8.6748,8.644,8.644,8.6324,8.6209,8.6401,8.6824,8.7517,8.8479,8.9017,8.9402,9.0017,9.0748,9.1441,9.2521,9.329,11.1221,11.1221,11.1221,11.1221,11.1221,11.1111,11.0707,11.0157,11.0032,10.9629,10.9166,10.8822,10.8785,10.8799,10.8688,10.8615,10.8138,10.7477,10.689,10.6449,10.6413,10.6413,10.6559,10.7415,10.8187,10.8785,10.9569,10.9826,10.9459,10.8175,10.7807,10.8358,10.7881,10.8003,10.8798,10.8811,10.9239,10.9555,10.8551,10.8125,10.8321,10.5715,10.366,10.2522,10.0466,9.8557,9.6832,9.5948,9.5361,9.5256,9.4705,9.3932,9.3198,9.2391,9.2196,9.2876,9.3099,9.3783,9.4934,9.5214,9.5251,9.5135,9.502,9.4712,9.4097,9.3405,9.2941,9.2864,9.2749,9.2595,9.2672,9.29,9.2669,9.1441,9.0559,9.0329,9.0594,8.9671,8.9017,8.944,8.9171,8.9094,8.944,8.9128,8.8738,8.8782,8.921,8.9675,8.9906,9.0406,9.0633,9.0287,9.0248,9.0056,8.9633,8.921,8.8556,8.8012,8.7974,8.7858,8.7248,8.7017,8.6786,8.6671,8.7209,8.7632,8.844,8.9363,9.0017,9.0479,9.0979,9.1287,9.2095,9.2941,9.3713,11.1221,11.1221,11.1221,11.1221,11.1221,11.1221,11.1038,11.0854,11.0854,11.0707,11.0377,10.99,10.9643,10.9459,10.9092,10.8505,10.7954,10.7697,10.744,10.722,10.7183,10.7183,10.744,10.8651,10.9423,10.9509,10.9276,10.8872,10.8358,10.7844,10.7734,10.7918,10.8285,10.8848,10.9559,10.9619,11.006,11.0546,10.9812,10.9189,10.8725,10.6706,10.4687,10.2815,10.1384,9.9989,9.8411,9.6535,9.5581,9.5508,9.5251,9.4995,9.4593,9.3455,9.3088,9.3782,9.437,9.5073,9.5915,9.6028,9.6174,9.648,9.6211,9.5826,9.552,9.5211,9.4749,9.4287,9.421,9.4018,9.3518,9.3518,9.3515,9.2977,9.2207,9.171,9.1787,9.0594,9.0094,9.0517,9.0056,8.971,8.9825,8.9594,8.9517,8.9513,8.9825,9.0098,9.0675,9.0979,9.1171,9.0902,9.1056,9.0941,9.0287,8.9979,8.9748,8.9094,8.8897,8.8705,8.8128,8.7748,8.744,8.744,8.794,8.8556,8.9363,9.0171,9.0902,9.1133,9.1287,9.1787,9.2438,9.3172,9.4059,11.1221,11.1221,11.1221,11.1221,11.1221,11.1221,11.1221,11.1221,11.1221,11.1221,11.1074,11.0671,11.045,11.0267,10.9606,10.8982,10.8468,10.8175,10.8028,10.7954,10.7661,10.7734,10.8138,10.9375,11.0012,10.9963,10.9546,10.8799,10.8064,10.8064,10.8175,10.8542,10.8982,10.9606,11.0391,11.0464,11.0795,11.1038,11.0069,10.9299,10.8505,10.689,10.5201,10.3696,10.2522,10.131,9.9952,9.8264,9.6938,9.6388,9.5875,9.5545,9.5401,9.4299,9.3786,9.4264,9.4776,9.5359,9.6283,9.61,9.6473,9.7135,9.6749,9.6288,9.6211,9.6095,9.5518,9.5095,9.4941,9.4749,9.4326,9.4518,9.4634,9.467,9.3595,9.2903,9.2405,9.1556,9.0941,9.1095,9.071,9.0441,9.0402,9.0402,9.0402,9.0364,9.0402,9.0444,9.1056,9.1171,9.121,9.121,9.1171,9.0941,9.0594,9.0633,9.0864,9.0325,8.9748,8.9363,8.8902,8.8748,8.8517,8.8363,8.8671,8.9094,8.9863,9.0979,9.1787,9.1748,9.1864,9.2746,9.3554,9.3903,9.4597,11.1221,11.1221,11.1221,11.1221,11.1221,11.1221,11.1221,11.1221,11.1221,11.1221,11.1184,11.1111,11.1148,11.1001,11.023,10.979,10.979,10.9019,10.8762,10.8652,10.8321,10.8321,10.9129,10.9826,11.0134,10.9987,10.99,10.9496,10.8688,10.8799,10.9239,10.9753,10.9936,11.0377,11.0964,11.1148,11.1074,11.0781,10.9679,10.8945,10.8615,10.667,10.5238,10.4944,10.366,10.2522,10.1604,10.0693,9.948,9.8011,9.6425,9.5728,9.5547,9.485,9.441,9.4593,9.4483,9.5331,9.614,9.6032,9.6121,9.7289,9.6788,9.6288,9.6211,9.5788,9.5365,9.5249,9.5211,9.5134,9.5211,9.5634,9.6057,9.6057,9.4828,9.3713,9.2749,9.2595,9.2326,9.1595,9.1287,9.121,9.1133,9.1095,9.1133,9.1248,9.1287,9.1364,9.1556,9.1672,9.1364,9.1325,9.1402,9.1095,9.0825,9.0864,9.1056,9.0864,9.0364,9.0017,8.9594,8.944,8.9594,8.944,8.9556,8.9902,9.0556,9.1787,9.2479,9.2556,9.313,9.4051,9.4439,9.4634,9.4982,11.1221,11.1221,11.1221,11.1221,11.1221,11.1221,11.1221,11.1221,11.1221,11.1221,11.1221,11.1221,11.1221,11.1111,11.034,10.9973,10.979,10.9202,10.9166,10.9569,10.9496,10.9826,11.045,11.0744,11.056,11.0032,10.9973,10.9569,10.8909,10.9349,10.9753,11.001,11.056,11.0964,11.1184,11.1221,11.0817,11.0391,10.995,10.9032,10.7954,10.733,10.6339,10.5128,10.4687,10.4027,10.3256,10.2493,10.0986,9.8851,9.7273,9.6685,9.7052,9.5988,9.5474,9.5914,9.6025,9.6431,9.699,9.6574,9.6679,9.7366,9.6711,9.6288,9.6288,9.6095,9.5942,9.5942,9.5942,9.5942,9.598,9.6134,9.6288,9.6249,9.5712,9.4905,9.3864,9.3903,9.3787,9.2479,9.2172,9.1902,9.1518,9.1364,9.1556,9.1979,9.2172,9.229,9.2479,9.221,9.1941,9.1825,9.1787,9.1402,9.1171,9.1171,9.1171,9.1171,9.0864,9.0556,9.0171,8.9863,9.021,9.0479,9.0902,9.1287,9.1902,9.2787,9.3056,9.3403,9.3787,9.4439,9.4708,9.4941,9.5328,11.1221,11.1221,11.1221,11.1221,11.1221,11.1221,11.1221,11.1221,11.1221,11.1221,11.1221,11.1221,11.1221,11.1111,11.034,11.001,10.99,10.9533,10.9569,10.9936,11.0304,11.0707,11.1111,11.1221,11.0766,11.0106,11.0047,10.9533,10.9055,10.9606,10.9936,11.012,11.0781,11.1184,11.1221,11.1184,11.0744,11.006,10.9669,10.886,10.7661,10.7257,10.667,10.5789,10.5642,10.5275,10.4467,10.3586,10.2236,10.0319,9.8961,9.83,9.8227,9.7199,9.6722,9.7163,9.6906,9.7056,9.7392,9.6783,9.6573,9.7124,9.6557,9.6134,9.6211,9.6288,9.6288,9.6249,9.6288,9.6288,9.6288,9.6288,9.6288,9.6288,9.6288,9.5711,9.4364,9.4672,9.4326,9.3441,9.2979,9.2864,9.2287,9.221,9.2476,9.2823,9.3018,9.3213,9.3405,9.2941,9.2479,9.2287,9.1902,9.1402,9.1479,9.1556,9.1556,9.1518,9.1479,9.1171,9.0941,9.0556,9.0941,9.1479,9.2133,9.2672,9.3095,9.3557,9.4018,9.4326,9.4518,9.4826,9.5249,9.5326,9.5749,11.1221,11.1221,11.1221,11.1221,11.1221,11.1221,11.1221,11.1221,11.1221,11.1221,11.1221,11.1221,11.1221,11.1148,11.056,11.0157,11.0157,11.0157,11.0157,11.0414,11.0744,11.1184,11.1184,11.1221,11.0802,11.0326,11.0193,10.9826,10.9606,10.9936,11.012,11.0377,11.0928,11.1184,11.1148,11.1111,11.0597,10.9766,10.9007,10.8272,10.7489,10.6963,10.6706,10.6596,10.6486,10.6119,10.5301,10.4577,10.3403,10.1868,10.09,9.9989,9.9297,9.8411,9.7933,9.775,9.7273,9.7126,9.735,9.6472,9.6065,9.6952,9.6245,9.5714,9.6405,9.6713,9.6788,9.6596,9.6442,9.6442,9.6288,9.6288,9.6288,9.6288,9.6288,9.5903,9.5365,9.5134,9.4788,9.398,9.3826,9.3826,9.371,9.3708,9.3705,9.3708,9.3749,9.3674,9.3597,9.3133,9.271,9.2441,9.1941,9.1325,9.1633,9.1979,9.1979,9.1941,9.2053,9.1937,9.1864,9.171,9.1941,9.2402,9.3095,9.3518,9.3826,9.4326,9.4903,9.5211,9.5365,9.5788,9.6172,9.598,9.6134,11.1221,11.1221,11.1221,11.1221,11.1221,11.1221,11.1221,11.1221,11.1221,11.1221,11.1221,11.1221,11.1221,11.1184,11.1001,11.0964,11.0891,11.0891,11.0964,11.0964,11.1074,11.1221,11.1221,11.1221,11.1111,11.0928,11.0928,11.0817,11.0744,11.0671,11.0928,11.0964,11.1038,11.1221,11.1148,11.0582,10.9849,10.9055,10.8382,10.7599,10.7232,10.722,10.7294,10.7257,10.7257,10.689,10.6302,10.5972,10.5064,10.3492,10.2052,10.0943,10.0062,9.9218,9.8557,9.8007,9.7713,9.7383,9.6942,9.6615,9.6436,9.6733,9.6831,9.713,9.7286,9.7817,9.7789,9.7442,9.725,9.6903,9.6403,9.6288,9.6288,9.6288,9.6288,9.6249,9.6057,9.598,9.5557,9.498,9.4672,9.448,9.3864,9.3903,9.4093,9.4477,9.4439,9.4172,9.3787,9.3364,9.2903,9.2595,9.1825,9.1364,9.1979,9.2441,9.2749,9.271,9.271,9.2864,9.2826,9.2787,9.2941,9.3441,9.4095,9.4441,9.4634,9.5211,9.5788,9.598,9.6095,9.6211,9.6288,9.6288,9.6442,11.1221,11.1221,11.1221,11.1221,11.1221,11.1221,11.1221,11.1221,11.1221,11.1221,11.1221,11.1221,11.1221,11.1221,11.1221,11.1221,11.1221,11.1221,11.1221,11.1184,11.1221,11.1221,11.1221,11.1221,11.1221,11.1221,11.1221,11.1221,11.1221,11.1221,11.1184,11.1221,11.1221,11.1221,11.1111,11.0399,10.9849,10.9349,10.8591,10.793,10.7746,10.7881,10.7881,10.7661,10.7551,10.722,10.6449,10.6376,10.5642,10.4513,10.3227,10.2052,10.0833,9.9769,9.8924,9.8521,9.7603,9.7236,9.6759,9.6392,9.6208,9.6578,9.6668,9.7007,9.7413,9.8044,9.8012,9.7635,9.7442,9.7173,9.6403,9.6288,9.6288,9.6288,9.6288,9.6288,9.6288,9.6288,9.6172,9.5711,9.5595,9.5403,9.5095,9.4711,9.4864,9.5403,9.5439,9.5134,9.4362,9.39,9.3095,9.2556,9.171,9.1556,9.2287,9.2903,9.3557,9.3595,9.3595,9.3864,9.3982,9.3905,9.3903,9.4403,9.4826,9.5172,9.548,9.6057,9.6288,9.6249,9.6211,9.6249,9.6326,9.6326,9.6634,11.1221,11.1221,11.1221,11.1221,11.1221,11.1221,11.1221,11.1221,11.1221,11.1221,11.1221,11.1221,11.1221,11.1221,11.1221,11.1221,11.1221,11.1221,11.1221,11.1221,11.1221,11.1221,11.1221,11.1221,11.1221,11.1221,11.1221,11.1221,11.1221,11.1221,11.1221,11.1221,11.1221,11.1074,11.0891,11.0252,10.9665,10.9436,10.8762,10.8542,10.8652,10.8799,10.8615,10.8028,10.7624,10.7183,10.6559,10.6302,10.5935,10.496,10.4256,10.3125,10.1611,10.0209,9.9181,9.9071,9.7823,9.7052,9.6722,9.6205,9.6058,9.6575,9.6284,9.6449,9.7365,9.8034,9.8165,9.7859,9.7635,9.7173,9.6403,9.6288,9.6288,9.6288,9.6288,9.6288,9.6288,9.6288,9.6249,9.6249,9.6057,9.5903,9.598,9.5826,9.6134,9.6249,9.6211,9.5903,9.5093,9.4244,9.3361,9.2864,9.221,9.2479,9.3249,9.4018,9.4595,9.4595,9.4595,9.4749,9.502,9.502,9.498,9.5057,9.5441,9.5711,9.5903,9.6134,9.6288,9.6288,9.6288,9.6288,9.6326,9.6403,9.6865,11.1221,11.1221,11.1221,11.1221,11.1221,11.1221,11.1221,11.1221,11.1221,11.1221,11.1221,11.1221,11.1221,11.1221,11.1221,11.1221,11.1221,11.1221,11.1221,11.1184,11.1148,11.1111,11.1111,11.1074,11.1111,11.1221,11.1221,11.1221,11.1221,11.1221,11.1221,11.1221,11.1221,11.0964,11.0267,10.9519,10.9189,10.9215,10.8602,10.8478,10.9005,10.9386,10.9312,10.8505,10.7918,10.7183,10.6596,10.6302,10.5668,10.4253,10.3944,10.3036,10.1824,10.0686,9.9842,9.9035,9.808,9.7163,9.6759,9.6612,9.6539,9.6759,9.6869,9.7248,9.7964,9.8816,9.8916,9.8484,9.7863,9.7173,9.6403,9.6288,9.6288,9.6288,9.6288,9.6288,9.6288,9.6288,9.6288,9.6288,9.6288,9.6288,9.6288,9.6288,9.6288,9.6172,9.598,9.5711,9.5095,9.4172,9.3249,9.3018,9.2826,9.3557,9.4403,9.5211,9.5788,9.5672,9.5634,9.5634,9.5865,9.6019,9.6095,9.5865,9.5826,9.6057,9.6211,9.6288,9.6288,9.6288,9.6288,9.6288,9.6403,9.6596,9.7173,11.1221,11.1221,11.1221,11.1221,11.1221,11.1221,11.1221,11.1221,11.1221,11.1221,11.1221,11.1221,11.1221,11.1221,11.1221,11.1221,11.1221,11.1221,11.1221,11.1148,11.0817,11.0634,11.0582,11.0634,11.0509,11.0656,11.1001,11.1221,11.1221,11.1221,11.1221,11.1221,11.1221,11.0781,11.012,10.9716,10.9386,10.9252,10.9042,10.9123,10.9812,11.012,10.9569,10.8799,10.7991,10.722,10.6559,10.6376,10.6082,10.5301,10.4798,10.3889,10.275,10.1538,10.0356,9.9218,9.8043,9.7199,9.6795,9.6722,9.6685,9.6722,9.7129,9.7392,9.7971,9.8703,9.9277,9.8796,9.8012,9.7173,9.6403,9.6288,9.6288,9.6288,9.6288,9.6288,9.6288,9.6288,9.6288,9.6288,9.6288,9.6288,9.6288,9.6288,9.6288,9.6134,9.5865,9.5557,9.5135,9.4405,9.3633,9.3557,9.3633,9.4249,9.5018,9.5672,9.6288,9.6288,9.6288,9.6288,9.6288,9.6288,9.6288,9.6172,9.6288,9.6288,9.6288,9.6288,9.6288,9.6288,9.6288,9.6326,9.6519,9.6827,9.752,11.1221,11.1221,11.1221,11.1221,11.1221,11.1221,11.1221,11.1221,11.1221,11.1074,11.0964,11.0928,11.0817,11.0781,11.0891,11.1001,11.1184,11.1221,11.1221,11.1038,11.045,11.012,11.023,11.012,11.023,11.0619,11.0928,11.1221,11.1221,11.1221,11.1221,11.1221,11.1184,11.0781,11.012,10.9913,10.995,10.9987,10.9959,11.0399,11.0634,11.0304,10.9496,10.8652,10.7918,10.722,10.6486,10.6376,10.6229,10.5825,10.5311,10.466,10.3823,10.2382,10.0943,9.9585,9.7933,9.7126,9.6942,9.6722,9.6722,9.6722,9.6722,9.7056,9.7617,9.8365,9.8917,9.8538,9.8212,9.7326,9.6557,9.6288,9.6288,9.6288,9.6288,9.6288,9.6288,9.6288,9.6288,9.6288,9.6288,9.6288,9.6288,9.6288,9.6288,9.6288,9.6057,9.598,9.5558,9.5095,9.4518,9.4403,9.4518,9.5018,9.5518,9.5826,9.6249,9.6288,9.6288,9.6288,9.6288,9.6288,9.6288,9.6288,9.6288,9.6288,9.6288,9.6288,9.6288,9.6288,9.6288,9.648,9.6826,9.7442,9.8173,11.1221,11.1221,11.1221,11.1221,11.1221,11.1221,11.1221,11.1221,11.1221,11.0781,11.023,11.0157,10.9863,10.9606,11.0047,11.0597,11.1001,11.1221,11.1148,11.0928,11.034,11.0317,11.0772,11.0281,11.0377,11.0656,11.1074,11.1221,11.1221,11.1221,11.1221,11.1221,11.1148,11.0817,11.0047,11.0134,11.0036,10.9987,10.9959,11.0142,11.023,11.0047,10.9129,10.8285,10.7587,10.722,10.6559,10.6449,10.6156,10.5521,10.5301,10.4703,10.3824,10.2367,10.1641,10.0613,9.9292,9.775,9.7603,9.7089,9.6722,9.6722,9.6722,9.6759,9.7358,9.8198,9.8719,9.7773,9.8201,9.7942,9.6826,9.6365,9.6326,9.6288,9.6288,9.6288,9.6288,9.6288,9.6288,9.6288,9.6288,9.6288,9.6288,9.6288,9.6288,9.6288,9.6249,9.6172,9.6019,9.5557,9.5288,9.5134,9.5172,9.5634,9.5788,9.6134,9.6211,9.6288,9.6288,9.6288,9.6288,9.6288,9.6288,9.6288,9.6288,9.6288,9.6288,9.6288,9.6288,9.6365,9.6442,9.6826,9.7287,9.8019,9.8865,11.1221,11.1221,11.1221,11.1221,11.1221,11.1221,11.1221,11.1221,11.1221,11.0744,11.0083,10.9973,10.979,10.9569,11.0304,11.0597,11.0671,11.1001,11.0891,11.0597,11.0193,11.0207,11.0367,11.0207,11.0304,11.0546,11.1001,11.1221,11.1221,11.1221,11.1221,11.1221,11.1184,11.0781,11.0193,11.045,11.0354,11.0281,11.0377,11.0671,11.045,10.9863,10.9202,10.8872,10.7661,10.7073,10.7011,10.6523,10.6302,10.5814,10.5814,10.5154,10.4164,10.3219,10.2558,10.1347,10.0136,9.8888,9.797,9.7199,9.6869,9.6722,9.6799,9.6877,9.7388,9.8178,9.8837,9.8421,9.9083,9.8635,9.7403,9.7019,9.6673,9.6519,9.648,9.6403,9.6365,9.6288,9.6288,9.6288,9.6288,9.6288,9.6288,9.6288,9.6288,9.6288,9.6288,9.6249,9.6211,9.6057,9.5865,9.5826,9.5942,9.6134,9.6134,9.6249,9.6249,9.6288,9.6288,9.6288,9.6288,9.6288,9.6288,9.6288,9.6288,9.6288,9.6288,9.6288,9.6288,9.648,9.6673,9.7171,9.771,9.8865,9.9673,11.0891,11.0891,11.0928,11.1001,11.1148,11.0817,11.0707,11.0891,11.0634,11.012,10.9496,10.9166,10.9202,10.9716,11.0157,11.023,11.0083,11.0817,11.0634,11.023,11.001,11.0207,11.0317,11.023,11.0157,11.0326,11.1001,11.1184,11.1221,11.1221,11.1221,11.1221,11.1221,11.0891,11.0634,11.0744,11.0817,11.0501,11.0854,11.0964,11.0671,10.9973,10.9643,10.9055,10.8138,10.7232,10.7342,10.6827,10.6376,10.6339,10.5972,10.5348,10.4761,10.3806,10.3109,10.2045,10.0943,9.9732,9.8668,9.7787,9.7126,9.6906,9.6722,9.6877,9.7388,9.8215,9.863,9.8414,9.9121,9.8859,9.8212,9.7864,9.7672,9.7211,9.6865,9.6711,9.6519,9.6403,9.6288,9.6288,9.6288,9.6288,9.6288,9.6288,9.6288,9.6288,9.6288,9.6288,9.6288,9.6249,9.6211,9.6095,9.6172,9.6288,9.6288,9.6288,9.6288,9.6288,9.6288,9.6288,9.6288,9.6288,9.6288,9.6288,9.6288,9.6288,9.6288,9.6288,9.6288,9.648,9.6749,9.7441,9.8173,9.9442,10.0327,11.0047,11.0083,11.0047,11.045,11.1001,10.9569,10.9423,11.001,10.9349,10.8688,10.7991,10.7257,10.7844,10.8652,10.9166,10.9496,10.9973,11.0817,11.056,11.0193,11.0047,11.0377,11.0524,11.045,11.034,11.0964,11.1184,11.1184,11.1221,11.1221,11.1221,11.1221,11.1221,11.1184,11.1074,11.1074,11.1184,11.0928,11.1148,11.0854,11.0671,11.034,11.0267,10.9239,10.8725,10.8334,10.7647,10.6864,10.6376,10.6376,10.5909,10.5652,10.5275,10.4173,10.3403,10.2779,10.1604,10.054,9.9769,9.8521,9.7827,9.7533,9.7203,9.6762,9.699,9.7525,9.7803,9.8083,9.8909,9.9058,9.8746,9.8672,9.8557,9.7865,9.7288,9.7019,9.6749,9.6442,9.6326,9.6288,9.6326,9.6365,9.6596,9.6673,9.6403,9.6365,9.6288,9.6288,9.6288,9.6288,9.6288,9.6249,9.6249,9.6288,9.6288,9.6288,9.6288,9.6288,9.6288,9.6288,9.6288,9.6288,9.6288,9.6288,9.6288,9.6288,9.6288,9.6288,9.6326,9.648,9.6942,9.7941,9.8942,10.0096,10.075,10.9276,10.9202,10.8725,10.8982,10.9679,10.9055,10.8982,10.9202,10.8945,10.8358,10.7551,10.7342,10.7489,10.8028,10.8615,10.8945,10.9349,11.0083,11.012,11.0083,11.0083,11.0487,11.0634,11.0597,11.0414,11.1038,11.1221,11.1221,11.1221,11.1221,11.1221,11.1221,11.1221,11.1221,11.1221,11.1221,11.1221,11.1221,11.1221,11.1001,11.0854,11.045,11.0377,11.0377,10.8468,10.8407,10.8076,10.7048,10.6559,10.6266,10.5935,10.5909,10.5689,10.4504,10.3843,10.3366,10.2118,10.1531,10.065,9.9181,9.7787,9.7203,9.6832,9.6722,9.6762,9.7351,9.7719,9.8154,9.8816,9.9193,9.8937,9.9207,9.925,9.8365,9.7788,9.7519,9.7211,9.6942,9.6711,9.6826,9.6634,9.6519,9.6826,9.7096,9.6749,9.6442,9.6365,9.6326,9.6519,9.6442,9.648,9.6403,9.6365,9.6288,9.6288,9.6288,9.6288,9.6288,9.6288,9.6288,9.6288,9.6288,9.6288,9.6288,9.6288,9.6288,9.6288,9.6288,9.6403,9.6596,9.7557,9.8826,9.9865,10.0789,10.1058,10.8431,10.8358,10.7844,10.8064,10.8688,10.8285,10.8211,10.8358,10.8138,10.7807,10.722,10.7268,10.7415,10.7661,10.8101,10.8395,10.8652,10.9202,10.9533,10.9679,10.9863,11.0414,11.0795,11.0781,11.0744,11.1148,11.1221,11.1221,11.1221,11.1221,11.1221,11.1221,11.1221,11.1221,11.1221,11.1221,11.1221,11.1221,11.1221,11.1221,11.1074,11.0744,11.0597,11.0854,10.9386,10.8578,10.8407,10.7562,10.6791,10.6376,10.6082,10.5789,10.5422,10.4908,10.4173,10.3439,10.2779,10.2338,10.12,9.9616,9.7819,9.6979,9.6759,9.6722,9.6877,9.721,9.7348,9.7889,9.8815,9.9387,9.8997,9.9692,10.0019,9.9365,9.8904,9.8596,9.8173,9.7865,9.7557,9.7403,9.7288,9.7403,9.7557,9.7942,9.7827,9.7557,9.7519,9.748,9.7442,9.725,9.6865,9.6711,9.6519,9.6403,9.6288,9.6326,9.6365,9.6288,9.6288,9.6288,9.6288,9.6365,9.6365,9.6288,9.6288,9.6288,9.6326,9.6326,9.6519,9.6711,9.8056,9.9519,10.0289,10.1096,10.1173,10.7624,10.7624,10.7551,10.7991,10.8431,10.711,10.6926,10.7477,10.6963,10.6596,10.6559,10.6523,10.689,10.7367,10.7551,10.7771,10.8138,10.8652,10.9092,10.9459,10.9826,11.0464,11.0832,11.1015,11.0854,11.1148,11.1221,11.1221,11.1221,11.1221,11.1221,11.1221,11.1221,11.1221,11.1221,11.1221,11.1221,11.1221,11.1221,11.1221,11.1184,11.1038,11.1111,11.0891,11.012,10.9312,10.8664,10.7856,10.7085,10.6449,10.5814,10.5825,10.6046,10.4981,10.4247,10.377,10.3182,10.2485,10.1457,9.9952,9.8557,9.7346,9.7273,9.7089,9.6832,9.6875,9.7064,9.7636,9.8058,9.8794,9.9402,10.0147,10.0284,10.025,9.975,9.9288,9.8865,9.8519,9.8173,9.798,9.8404,9.8711,9.875,9.8827,9.8904,9.8827,9.875,9.8634,9.8365,9.8019,9.7519,9.7057,9.6826,9.6519,9.6442,9.6403,9.6403,9.6326,9.6557,9.6826,9.6865,9.6942,9.6788,9.6519,9.648,9.6673,9.6557,9.6403,9.7057,9.7827,9.8903,10.0096,10.0827,10.1289,10.1289,10.6816,10.678,10.678,10.6963,10.711,10.6633,10.6559,10.6743,10.6523,10.6376,10.6376,10.6376,10.6486,10.6743,10.6963,10.733,10.8285,10.8542,10.9055,11.0267,11.0157,11.0487,11.0905,11.0868,11.0744,11.1074,11.1221,11.1221,11.1221,11.1221,11.1221,11.1221,11.1221,11.1221,11.1221,11.1221,11.1221,11.1221,11.1221,11.1221,11.1221,11.1221,11.1221,11.1184,11.0414,10.9679,10.8995,10.815,10.7415,10.6754,10.6119,10.6192,10.6413,10.5495,10.4981,10.4394,10.377,10.3366,10.1934,10.0429,9.9469,9.8668,9.8154,9.7933,9.7603,9.7493,9.7392,9.7285,9.7562,9.8316,9.9084,9.99,10.0169,10.0211,9.9865,9.9481,9.9096,9.8865,9.8596,9.8557,9.8788,9.9327,9.9519,9.9788,9.9904,9.975,9.9635,9.9173,9.8865,9.8596,9.8211,9.7596,9.7211,9.6826,9.6596,9.6903,9.7096,9.7134,9.7595,9.8133,9.8056,9.7673,9.775,9.7711,9.7365,9.7096,9.7211,9.7442,9.8327,9.9211,9.9904,10.0442,10.1019,10.1289,10.1289,10.6229,10.6009,10.6266,10.6192,10.6046,10.6266,10.6376,10.6376,10.6376,10.6376,10.6376,10.6376,10.6376,10.6376,10.6486,10.7,10.8321,10.8395,10.9239,11.056,11.0267,11.034,11.0487,11.0597,11.0671,11.0928,11.1111,11.1221,11.1221,11.1221,11.1221,11.1221,11.1221,11.1221,11.1221,11.1221,11.1221,11.1221,11.1221,11.1221,11.1221,11.1221,11.1221,11.1074,11.0671,11.0083,10.9312,10.8664,10.8051,10.7379,10.6974,10.6827,10.6791,10.6339,10.5568,10.4651,10.3513,10.3036,10.1677,10.1164,10.0429,10.0026,9.9506,9.8882,9.8337,9.8007,9.764,9.7504,9.7395,9.7868,9.8539,9.9363,9.9855,9.9906,10.0249,9.9903,9.9942,9.9712,9.9673,9.9558,9.9558,10.0019,10.0289,10.0673,10.0943,10.0634,10.0404,9.9904,9.9481,9.9288,9.9019,9.8519,9.8019,9.7711,9.7634,9.7788,9.7904,9.7979,9.8441,9.9018,9.8711,9.8327,9.8596,9.8788,9.8327,9.8019,9.8173,9.8596,9.9211,9.975,10.0289,10.0789,10.1212,10.1289,10.1289,10.5899,10.5275,10.6009,10.5825,10.5311,10.5935,10.6302,10.6376,10.6376,10.6376,10.6376,10.6376,10.6376,10.6376,10.6376,10.6963,10.7734,10.7844,10.8945,10.9863,11.0267,11.0252,11.0472,11.0729,11.0729,11.0582,11.0729,11.1221,11.1221,11.0964,11.1001,11.1148,11.1038,11.1074,11.1111,11.1221,11.1221,11.1221,11.1221,11.1221,11.1221,11.1221,11.1221,11.1148,11.1001,11.0524,10.9973,10.9619,10.9154,10.8529,10.7904,10.7647,10.7268,10.6827,10.5458,10.4173,10.2815,10.2191,10.2081,10.1971,10.1531,10.12,10.0276,9.9579,9.8956,9.8557,9.8043,9.7566,9.7357,9.7502,9.7852,9.8689,9.946,10.0049,10.0816,10.0901,10.1019,10.1019,10.0981,10.0943,10.0904,10.1058,10.0981,10.1289,10.1289,10.1135,10.0865,10.0866,10.0442,10.0212,9.9942,9.9596,9.9135,9.8788,9.8711,9.8596,9.875,9.8865,9.9096,9.9519,9.9173,9.9134,9.9481,9.9558,9.9096,9.8904,9.8981,9.9327,9.9865,10.0366,10.075,10.0943,10.1289,10.1289,10.1289,10.5899,10.5165,10.5385,10.4981,10.443,10.5128,10.5789,10.6339,10.6376,10.6376,10.6376,10.6376,10.6376,10.6376,10.6376,10.722,10.7991,10.8652,10.9606,11.0267,11.0744,11.0854,11.0928,11.1038,11.1038,11.1001,11.1074,11.1221,11.1074,11.0781,11.0817,11.1074,11.0781,11.0817,11.1038,11.1221,11.1184,11.1148,11.1148,11.1221,11.1221,11.1221,11.1221,11.1221,11.1221,11.0781,11.0267,11.012,10.9459,10.8321,10.7881,10.7477,10.667,10.6486,10.5899,10.5642,10.4394,10.3403,10.3815,10.3492,10.2941,10.2419,10.1714,10.098,10.0172,9.9218,9.8521,9.797,9.7236,9.7211,9.7722,9.8457,9.9215,9.9926,10.0688,10.1208,10.1326,10.1288,10.1288,10.1289,10.1289,10.1289,10.1289,10.1289,10.1289,10.1289,10.1289,10.1289,10.1212,10.0943,10.0712,10.0327,10.0058,9.9673,9.9404,9.925,9.9519,9.9788,9.9981,10.025,10.0327,10.0365,10.048,10.0327,9.9942,9.9788,9.975,10.0096,10.0404,10.0789,10.1135,10.1212,10.1289,10.1289,10.1327,10.4908,10.4247,10.4504,10.432,10.4027,10.443,10.5091,10.5862,10.6229,10.6376,10.6376,10.6376,10.6376,10.6376,10.6486,10.722,10.8688,10.8799,10.9606,11.0817,11.1221,11.0928,11.0839,11.1038,11.0964,11.1001,11.1074,11.1221,11.1001,11.0854,11.0854,11.1111,11.0597,11.0781,11.1074,11.1184,11.0964,11.0891,11.0928,11.1148,11.1184,11.1184,11.1221,11.1221,11.1221,11.0891,11.0524,11.0436,10.9812,10.8895,10.8725,10.793,10.7048,10.6644,10.5899,10.5458,10.4614,10.4027,10.4146,10.3962,10.3595,10.3264,10.286,10.1978,10.0833,9.9732,9.9071,9.8411,9.7497,9.6911,9.7579,9.8281,9.8983,9.9686,10.0506,10.128,10.1323,10.1325,10.1287,10.1288,10.1289,10.1289,10.1289,10.1289,10.1289,10.1289,10.1289,10.1289,10.1289,10.1212,10.1019,10.0827,10.0673,10.0442,10.0173,9.9981,10.025,10.0481,10.0712,10.0981,10.1289,10.1212,10.0981,10.0904,10.0827,10.0635,10.0442,10.0558,10.0827,10.1135,10.1327,10.1327,10.1327,10.1289,10.1327,10.3366,10.2558,10.3293,10.3513,10.3733,10.3733,10.432,10.5128,10.5825,10.6266,10.6339,10.6376,10.6376,10.6376,10.6413,10.7183,10.8248,10.8725,10.9496,11.1111,11.1184,11.0964,11.0692,11.0656,11.0546,11.0436,11.0399,11.056,11.0817,11.0597,11.0487,11.1074,11.0964,11.0964,11.1148,11.1001,11.0671,11.0391,11.0501,11.0721,11.0928,11.1038,11.1148,11.1221,11.1221,11.1148,11.1148,11.1148,11.1148,11.045,10.973,10.8713,10.7573,10.6644,10.5678,10.5311,10.4834,10.4687,10.4651,10.4623,10.421,10.3724,10.3256,10.2419,10.1274,9.9916,9.9071,9.8484,9.7607,9.7239,9.7686,9.8687,9.9559,10.0006,10.0668,10.1197,10.1399,10.1345,10.1288,10.1289,10.1289,10.1289,10.1289,10.1289,10.1289,10.1289,10.1289,10.1289,10.1289,10.1289,10.125,10.1135,10.1019,10.0943,10.0943,10.0827,10.0981,10.1212,10.1289,10.1289,10.1289,10.1289,10.1289,10.1212,10.1096,10.1173,10.1135,10.1096,10.1058,10.1173,10.1327,10.1366,10.1404,10.1558,10.1635,10.2669,10.0907,10.109,10.1494,10.2118,10.2742,10.3806,10.5018,10.463,10.5264,10.6229,10.6376,10.6376,10.6376,10.6376,10.7037,10.7807,10.8505,10.9349,11.0193,11.0744,11.0854,11.0656,11.0362,11.023,10.99,10.9716,10.9606,10.9643,10.9606,10.979,11.0267,11.045,11.0707,11.1038,11.0692,11.023,10.9693,10.9559,10.9803,11.012,11.034,11.0487,11.0928,11.1148,11.1148,11.1184,11.1221,11.0436,10.9468,10.9129,10.8223,10.6974,10.6339,10.6119,10.6009,10.5752,10.5568,10.5495,10.5348,10.4897,10.4127,10.3513,10.2669,10.1567,10.0026,9.8924,9.8374,9.797,9.775,9.7937,9.9051,9.9981,10.0382,10.0692,10.1012,10.1332,10.1329,10.1248,10.1289,10.1289,10.1289,10.1289,10.1289,10.1289,10.1289,10.1289,10.1289,10.1289,10.1289,10.1289,10.125,10.125,10.1212,10.1289,10.1289,10.1289,10.1289,10.1289,10.1289,10.1327,10.1289,10.1289,10.1289,10.1289,10.1289,10.1289,10.125,10.125,10.1443,10.1597,10.175,10.2174,10.2443,10.2404,10.12,10.0319,10.0319,10.054,10.1053,10.1824,10.2889,10.3806,10.3531,10.4311,10.5678,10.5899,10.6046,10.6302,10.6376,10.678,10.7514,10.7991,10.8688,10.9423,10.9973,11.0216,11.0142,10.9922,10.9913,10.9669,10.9129,10.8909,10.8688,10.9312,10.9753,10.9973,11.0193,11.0524,11.0692,11.0179,10.9519,10.8934,10.8456,10.8676,10.9092,10.9349,10.9863,11.0414,11.0707,11.0817,11.1184,11.1184,11.0472,10.9409,10.8762,10.7697,10.678,10.6376,10.6339,10.6339,10.6302,10.6376,10.6302,10.6009,10.5495,10.4577,10.3044,10.1985,10.1413,9.9983,9.9255,9.8704,9.8668,9.8447,9.8631,9.9563,9.9967,10.0389,10.0475,10.0638,10.0966,10.1067,10.1131,10.1289,10.1289,10.1289,10.1289,10.1289,10.1289,10.1327,10.1327,10.1366,10.1366,10.1289,10.1289,10.1289,10.1289,10.1289,10.1289,10.1289,10.1289,10.1289,10.1289,10.1327,10.1366,10.1327,10.1289,10.152,10.152,10.1289,10.1289,10.1481,10.175,10.1981,10.2097,10.2212,10.2751,10.3366,10.3482,9.9512,9.9952,9.9952,10.0062,10.0283,10.1017,10.1898,10.2669,10.2632,10.3549,10.5018,10.5044,10.5484,10.6156,10.6413,10.689,10.733,10.7661,10.8175,10.8542,10.8872,10.9423,10.9409,10.9152,10.8945,10.8811,10.8481,10.8285,10.8211,10.8945,10.9569,10.99,11.0304,11.0582,11.0017,10.9629,10.8969,10.8223,10.7746,10.7709,10.7954,10.8395,10.9276,10.9753,11.0157,11.0524,11.1001,11.1001,11.0582,10.9482,10.8285,10.7257,10.667,10.6376,10.6376,10.6376,10.6376,10.6376,10.6266,10.5668,10.5228,10.4394,10.2536,10.1434,10.09,10.0313,9.9585,9.9475,9.9402,9.9255,9.9438,9.9921,10.0252,10.0367,10.0387,10.0373,10.0653,10.0946,10.1161,10.1402,10.1597,10.1597,10.152,10.152,10.152,10.152,10.1443,10.1481,10.1481,10.1366,10.1289,10.1289,10.1289,10.1289,10.1289,10.1327,10.1327,10.1289,10.1327,10.1366,10.1558,10.1981,10.2174,10.1981,10.1943,10.1943,10.1866,10.202,10.2289,10.252,10.2789,10.2981,10.3712,10.4251,10.4634,9.8778,9.8337,9.8337,9.8741,9.9402,10.0209,10.1347,10.2448,10.2045,10.2962,10.443,10.4457,10.4861,10.6339,10.6376,10.6596,10.6816,10.7183,10.7514,10.7844,10.8248,10.8688,10.8799,10.8418,10.7648,10.7404,10.7268,10.6963,10.7477,10.8431,10.8725,10.8321,10.9679,10.9776,10.9013,10.8588,10.8088,10.7587,10.7624,10.7575,10.7881,10.8431,10.9166,10.99,11.0634,11.0928,11.1074,11.0546,10.9834,10.8808,10.7648,10.6816,10.6486,10.6376,10.6376,10.6376,10.6376,10.6302,10.6046,10.5411,10.4897,10.3962,10.2433,10.1434,10.0943,10.054,10.0172,10.054,10.0356,9.9805,9.9952,10.065,10.1133,10.0729,10.0601,10.0531,10.0633,10.1051,10.143,10.2082,10.2711,10.2557,10.2404,10.2443,10.2597,10.2444,10.202,10.1981,10.1827,10.1597,10.1327,10.1289,10.1289,10.1289,10.1289,10.1327,10.1327,10.1327,10.152,10.1903,10.2442,10.3135,10.3212,10.2866,10.2904,10.302,10.2943,10.2481,10.2751,10.302,10.3443,10.3866,10.4559,10.4828,10.4982]},{"header":{"parameterUnit":"m.s-1","parameterCategory":1,"la1":31.0,"la2":29.5877,"lo1":-88.7671,"lo2":-86.6584,"dy":0.0162,"dx":0.0185,"nx":115,"ny":88,"refTime":"2023-03-11T06:00:00:Z","depth":0,"parameterNumber":3,"parameterNumberName":"V-component_of_WINDS"},"data":[0.0,0.0,0.0,0.0,0.0,0.0,0.0,0.0,0.0,0.0,0.0,0.0,0.0,0.0,0.0,0.0,0.0,0.0,0.0,0.0,0.0,0.0,0.0,0.0,0.0,0.0,0.0,0.0,0.0,0.0,0.0,0.0,0.0,0.0,0.0,0.0,0.0,0.0,0.0,0.0,0.0,0.0,0.0,0.0,0.0,0.0,0.0,0.0,0.0,0.0,0.0,0.0,0.0,0.0,0.0,0.0,0.0,0.0,0.0,0.0,0.0,0.0,0.0,0.0,0.0,0.0,0.0,0.0,0.0,0.0,0.0,0.0,0.0,0.0,0.0,0.0,0.0,0.0,0.0,0.0,0.0,0.0,0.0,0.0,0.0,0.0,0.0,0.0,0.0,0.0,0.0,0.0,0.0,0.0,0.0,0.0,0.0,0.0,0.0,0.0,0.0,0.0,0.0,0.0,0.0,0.0,0.0,0.0,0.0,0.0,0.0,0.0,0.0,0.0,0.0,0.0,0.0,0.0,0.0,0.0,0.0,0.0,0.0,0.0,0.0,0.0,0.0,0.0,0.0,0.0,0.0,0.0,0.0,0.0,0.0,0.0,0.0,0.0,0.0,0.0,0.0,0.0,0.0,0.0,0.0,0.0,0.0,0.0,0.0,0.0,0.0,0.0,0.0,0.0,0.0,0.0,0.0,0.0,0.0,0.0,0.0,0.0,0.0,0.0,0.0,0.0,0.0,0.0,0.0,0.0,0.0,0.0,0.0,0.0,0.0,0.0,0.0,0.0,0.0,0.0,0.0,0.0,0.0,0.0,0.0,0.0,0.0,0.0,0.0,0.0,0.0,0.0,0.0,0.0,0.0,0.0,0.0,0.0,0.0,0.0,0.0,0.0,0.0,0.0,0.0,0.0,0.0,0.0,0.0,0.0,0.0,0.0,0.0,0.0,0.0,0.0,0.0,0.0,0.0,0.0,0.0,0.0,0.0,0.0,0.0,0.0,0.0,0.0,0.0,0.0,0.0,0.0,0.0,0.0,0.0,0.0,0.0,0.0,0.0,0.0,0.0,0.0,0.0,0.0,0.0,0.0,0.0,0.0,0.0,0.0,0.0,0.0,0.0,0.0,0.0,0.0,0.0,0.0,0.0,0.0,0.0,0.0,0.0,0.0,0.0,0.0,0.0,0.0,0.0,0.0,0.0,0.0,0.0,0.0,0.0,0.0,0.0,0.0,0.0,0.0,0.0,0.0,0.0,0.0,0.0,0.0,0.0,0.0,0.0,0.0,0.0,0.0,0.0,0.0,0.0,0.0,0.0,0.0,0.0,0.0,0.0,0.0,0.0,0.0,0.0,0.0,0.0,0.0,0.0,0.0,0.0,0.0,0.0,0.0,0.0,0.0,0.0,0.0,0.0,0.0,0.0,0.0,0.0,0.0,0.0,0.0,0.0,0.0,0.0,0.0,0.0,0.0,0.0,0.0,0.0,0.0,0.0,0.0,0.0,0.0,0.0,0.0,0.0,0.0,0.0,0.0,0.0,0.0,0.0,0.0,0.0,0.0,0.0,0.0,0.0,0.0,0.0,0.0,0.0,0.0,0.0,0.0,0.0,0.0,0.0,0.0,0.0,0.0,0.0,0.0,0.0,0.0,0.0,0.0,0.0,0.0,0.0,0.0,0.0,0.0,0.0,0.0,0.0,0.0,0.0,0.0,0.0,0.0,0.0,0.0,0.0,0.0,0.0,0.0,0.0,0.0,0.0,0.0,0.0,0.0,0.0,0.0,0.0,0.0,0.0,0.0,0.0,0.0,0.0,0.0,0.0,0.0,0.0,0.0,0.0,0.0,0.0,0.0,0.0,0.0,0.0,0.0,0.0,0.0,0.0,0.0,0.0,0.0,0.0,0.0,0.0,0.0,0.0,0.0,0.0,0.0,0.0,0.0,0.0,0.0,0.0,0.0,0.0,0.0,0.0,0.0,0.0,0.0,0.0,0.0,0.0,0.0,0.0,0.0,0.0,0.0,0.0,0.0,0.0,0.0,0.0,0.0,0.0,0.0,0.0,0.0,0.0,0.0,0.0,0.0,0.0,0.0,0.0,0.0,0.0,0.0,0.0,0.0,0.0,0.0,0.0,0.0,0.0,0.0,0.0,0.0,0.0,0.0,0.0,0.0,0.0,0.0,0.0,0.0,0.0,0.0,0.0,0.0,0.0,0.0,0.0,0.0,0.0,0.0,0.0,0.0,0.0,0.0,0.0,0.0,0.0,0.0,0.0,0.0,0.0,0.0,0.0,0.0,0.0,0.0,0.0,0.0,0.0,0.0,0.0,0.0,0.0,0.0,0.0,0.0,0.0,0.0,0.0,0.0,0.0,0.0,0.0,0.0,0.0,0.0,0.0,0.0,0.0,0.0,0.0,0.0,0.0,0.0,0.0,0.0,0.0,0.0,0.0,0.0,0.0,0.0,0.0,0.0,0.0,0.0,0.0,0.0,0.0,0.0,0.0,0.0,0.0,0.0,0.0,0.0,0.0,0.0,0.0,0.0,0.0,0.0,0.0,0.0,0.0,0.0,0.0,0.0,0.0,0.0,0.0,0.0,0.0,0.0,0.0,0.0,0.0,0.0,0.0,0.0,0.0,0.0,0.0,0.0,0.0,0.0,0.0,0.0,0.0,0.0,0.0,0.0,0.0,0.0,0.0,0.0,0.0,0.0,0.0,0.0,0.0,0.0,0.0,0.0,0.0,0.0,0.0,0.0,0.0,0.0,0.0,0.0,0.0,0.0,0.0,0.0,0.0,0.0,0.0,0.0,0.0,0.0,0.0,0.0,0.0,0.0,0.0,0.0,0.0,0.0,0.0,0.0,0.0,0.0,0.0,0.0,0.0,0.0,0.0,0.0,0.0,0.0,0.0,0.0,0.0,0.0,0.0,0.0,0.0,0.0,0.0,0.0,0.0,0.0,0.0,0.0,0.0,0.0,0.0,0.0,0.0,0.0,0.0,0.0,0.0,0.0,0.0,0.0,0.0,0.0,0.0,0.0,0.0,0.0,0.0,0.0,0.0,0.0,0.0,0.0,0.0,0.0,0.0,0.0,0.0,0.0,0.0,0.0,0.0,0.0,0.0,0.0,0.0,0.0,0.0,0.0,0.0,0.0,0.0,0.0,0.0,0.0,0.0,0.0,0.0,0.0,0.0,0.0,0.0,0.0,0.0,0.0,0.0,0.0,0.0,0.0,0.0,0.0,0.0,0.0,0.0,0.0,0.0,0.0,0.0,0.0,0.0,0.0,0.0,0.0,0.0,0.0,0.0,0.0,0.0,0.0,0.0,0.0,0.0,0.0,0.0,0.0,0.0,0.0,0.0,0.0,0.0,0.0,0.0,0.0,0.0,0.0,0.0,0.0,0.0,0.0,0.0,0.0,0.0,0.0,0.0,0.0,0.0,0.0,0.0,0.0,0.0,0.0,0.0,0.0,0.0,0.0,0.0,0.0,0.0,0.0,0.0,0.0,0.0,0.0,0.0,0.0,0.0,0.0,0.0,0.0,0.0,0.0,0.0,0.0,0.0,0.0,0.0,0.0,0.0,0.0,0.0,0.0,0.0,0.0,0.0,0.0,0.0,0.0,0.0,0.0,0.0,0.0,0.0,0.0,0.0,0.0,0.0,0.0,0.0,0.0,0.0,0.0,0.0,0.0,0.0,0.0,0.0,0.0,0.0,0.0,0.0,0.0,0.0,0.0,0.0,0.0,0.0,0.0,0.0,0.0,0.0,0.0,0.0,0.0,0.0,0.0,0.0,0.0,0.0,0.0,0.0,0.0,0.0,0.0,0.0,0.0,0.0,0.0,0.0,0.0,0.0,0.0,0.0,0.0,0.0,0.0,0.0,0.0,0.0,0.0,0.0,0.0,0.0,0.0,0.0,0.0,0.0,0.0,0.0,0.0,0.0,0.0,0.0,0.0,0.0,0.0,0.0,0.0,0.0,0.0,0.0,0.0,0.0,0.0,0.0,0.0,0.0,0.0,0.0,0.0,0.0,0.0,0.0,0.0,0.0,0.0,0.0,0.0,0.0,0.0,0.0,0.0,0.0,0.0,0.0,0.0,0.0,0.0,0.0,0.0,0.0,0.0,0.0,0.0,0.0,0.0,0.0,0.0,0.0,0.0,0.0,0.0,0.0,0.0,0.0,0.0,0.0,0.0,0.0,0.0,0.0,0.0,0.0,0.0,0.0,0.0,0.0,0.0,0.0,0.0,0.0,0.0,0.0,0.0,0.0,0.0,0.0,0.0,0.0,0.0,0.0,0.0,0.0,0.0,0.0,0.0,0.0,0.0,0.0,0.0,0.0,0.0,0.0,0.0,0.0,0.0,0.0,0.0,0.0,0.0,0.0,0.0,0.0,0.0,0.0,0.0,0.0,0.0,0.0,0.0,0.0,0.0,0.0,0.0,0.0,0.0,0.0,0.0,0.0,0.0,0.0,0.0,0.0,0.0,0.0,0.0,0.0,0.0,0.0,0.0,0.0,0.0,0.0,0.0,0.0,0.0,0.0,0.0,0.0,0.0,0.0,0.0,0.0,0.0,0.0,0.0,0.0,0.0,0.0,0.0,0.0,0.0,0.0,0.0,0.0,0.0,0.0,0.0,0.0,0.0,0.0,0.0,0.0,0.0,0.0,0.0,0.0,0.0,0.0,0.0,0.0,0.0,0.0,0.0,0.0,0.0,0.0,0.0,0.0,0.0,0.0,0.0,0.0,0.0,0.0,0.0,0.0,0.2157,0.0,0.0,0.0,0.0,0.0,0.0,0.0,0.0,0.0,0.0,0.0,0.0,0.0,0.0,0.0,0.0,0.0,0.0,0.0,0.0,0.0,0.0,0.0,0.0,0.0,0.0,0.0,0.0,0.0,0.0,0.0,0.0,0.0,0.0,0.0,0.0,0.0,0.0,0.0,0.0,0.0,0.0,0.0,0.0,0.0,0.0,0.0,0.0,0.0,0.0,0.0,0.0,0.0,0.0,0.0,0.0,0.0,0.0,0.0,0.0,0.0,0.0,0.0,0.0,0.0,0.0,0.0,0.0,0.0,0.0,0.0,0.0,0.0,0.0,0.0,0.0,0.0,0.0,0.0,0.0,0.0,0.0,0.0,0.0,0.0,0.0,0.0,0.0,0.0,0.0,0.0,0.0,0.0,0.0,0.0,0.0,0.0,0.0,0.0,0.0,0.0,0.0,0.0,0.0,0.0,0.0,0.0,0.0,0.0,0.0,0.0,0.0,0.0,0.0,0.0,0.0,0.0901,0.0509,0.0,0.0,0.0,0.0,0.0,0.0,0.0,0.0,0.0,0.0,0.0,0.0,0.0,0.0,0.0,0.0,0.0,0.0,0.0,0.0,0.0,0.0,0.0,0.0,0.0,0.0,0.0,0.0,0.0,0.0,0.0,0.0,0.0,0.0,0.0,0.0,0.0,0.0,0.0,0.0,0.0,0.0,0.0,0.0,0.0,0.0,0.0,0.0,0.0,0.0,0.0,0.0,0.0,0.0,0.0,0.0,0.0,0.0,0.0,0.0,0.0,0.0,0.0,0.0,0.0,0.0,0.0,0.0,0.0,0.0,0.0,0.0,0.0,0.0,0.0,0.0,0.0,0.0,0.0,0.0,0.0,0.0,0.0,0.0,0.0,0.0,0.0,0.0,0.0,0.0,0.0,0.0,0.0,0.0,0.0,0.0,0.0,0.0,0.0,0.0,0.0,0.0,0.0,0.0,0.0,0.0,0.0,0.0,0.0,0.0,0.0,0.5992,0.5333,0.3582,0.0,0.0,0.0,0.0,0.0,0.0,0.0,0.0,0.0,0.0,0.0,0.0,0.0,0.0,0.0,0.0,0.0,0.0,0.0,0.0,0.0,0.0,0.0,0.0,0.0,0.0,0.0,0.0,0.0,0.0,0.0,0.0,0.0,0.0,0.0,0.0,0.0,0.0,0.0,0.0,0.0,0.0,0.0,0.0,0.0,0.0,0.0,0.0,0.0,0.0,0.0,0.0,0.0,0.0,0.0,0.0,0.0,0.0,0.0,0.0,0.0,0.0,0.0,0.0,0.0,0.0,0.0,0.0,0.0,0.0,0.0,0.0,0.0,0.0,0.0,0.0,0.0,0.0,0.0,0.0,0.0,0.0,0.0,0.0,0.0,0.0,0.0,0.0,0.0,0.0,0.0,0.0,0.0,0.0,0.0,0.0,0.0,0.0,0.0,0.0,0.0,0.0,0.0,0.0,0.0,0.0,0.0,0.0,0.0,0.0,0.0,0.0,0.7336,0.6094,0.5255,0.3286,0.0,0.0,0.0,0.0,0.0,0.0,0.0,0.0,0.0,0.0,0.0,0.0,0.0,0.0,0.0,0.0,0.0,0.0,0.0,0.0,0.0,0.0,0.0,0.0,0.0,0.0,0.0,0.0,0.0,0.0,0.0,0.0,0.0,0.0,0.0,0.0,0.0,0.0,0.0,0.0,0.0,0.0,0.0,0.0,0.0,0.0,0.0,0.0,0.0,0.0,0.0,0.0,0.0,0.0,0.0,0.0,0.0,0.0,0.0,0.0,0.0,0.0,0.0,0.0,0.0,0.0,0.0,0.0,0.0,0.0,0.0,0.0,0.0,0.0,0.0,0.0,0.0,0.0,0.0,0.0,0.0,0.0,0.0,0.0,0.0,0.0,0.0,0.0,0.0,0.0,0.0,0.0,0.0,0.0,0.0,0.0,0.0,0.0,0.0,0.0,0.0,0.0,0.0,0.0,0.0,0.0,0.0,0.0,0.0,0.0,0.8773,0.7796,0.6219,0.559,0.4119,0.1725,0.0,0.0,0.0,0.0,0.0,0.0,0.0,0.0,0.0,0.0,0.0,0.0,0.0,0.0,0.0,0.0,0.0,0.0,0.0,0.0,0.0,0.0,0.0,0.0,0.0,0.0,0.0,0.0,0.0,0.0,0.0,0.0,0.0,0.0,0.0,0.0,0.0,0.0,0.0,0.0,0.0,0.0,0.0,0.0,0.0,0.0,0.0,0.0,0.0,0.0,0.0,0.0,0.0,0.0,0.0,0.0,0.0,0.0,0.0,0.0,0.0,0.0,0.0,0.0,0.0,0.0,0.0,0.0,0.0,0.0,0.0,0.0,0.0,0.0,0.0,0.0,0.0,0.0,0.0,0.0,0.0,0.0,0.0,0.0,0.0,0.0,0.0,0.0,0.0,0.0,0.0,0.0,0.0,0.0,0.0,0.0,0.0,0.0,0.0,0.0,0.0,0.0,0.0,0.0,0.0,0.0,0.0,0.0,0.8247,0.7628,0.6772,0.5949,0.4694,0.4438,0.0,0.0,0.0,0.0,0.0,0.0,0.0,0.0,0.0,0.0,0.0,0.0,0.0,0.0,0.0,0.0,0.0,0.0,0.0,0.0,0.0,0.0,0.0,0.0,0.0,0.0,0.0,0.0,0.0,0.0,0.0,0.0,0.0,0.0,0.0,0.0,0.0,0.0,0.0,0.0,0.0,0.0,0.0,0.0,0.0,0.0,0.0,0.0,0.0,0.0,0.0,0.0,0.0,0.0,0.0,0.0,0.0,0.0,0.0,0.0,0.0,0.0,0.0,0.0,0.0,0.0,0.0,0.0,0.0,0.0,0.0,0.0,0.0,0.0,0.0,0.0,0.0,0.0,0.0,0.0,0.0,0.0,0.0,0.0,0.0,0.0,0.0,0.0,0.0,0.0,0.0,0.0,0.0,0.0,0.0,0.0,0.0,0.0,0.0,0.0,0.0,0.0,0.0,0.0,0.0,0.0,0.0,0.0,0.0,0.7025,0.7203,0.7239,0.7132,0.6438,0.6035,0.0,0.0,0.0,0.0,0.0,0.0,0.0,0.0,0.0,0.0,0.0,0.0,0.0,0.0,0.0,0.0,0.0,0.0,0.0,0.0,0.0,0.0,0.0,0.0,0.0,0.0,0.0,0.0,0.0,0.0,0.0,0.0,0.0,0.0,0.0,0.0,0.0,0.0,0.0,0.0,0.0,0.0,0.0,0.0,0.0,0.0,0.0,0.0,0.0,0.0,0.0,0.0,0.0,0.0,0.0,0.0,0.0,0.0,0.0,0.0,0.0,0.0,0.0,0.0,0.0,0.0,0.0,0.0,0.0,0.0,0.0,0.0,0.0,0.0,0.0,0.0,0.0,0.0,0.0,0.0,0.0,0.0,0.0,0.0,0.0,0.0,0.0,0.0,0.0,0.0,0.0,0.0,0.0,0.0,0.0,0.0,0.0,0.0,0.0,0.0,0.0,0.0,0.0,0.0,0.0,0.0,0.0,0.0,0.0,0.6983,0.0,0.7707,0.7878,0.7552,0.7138,0.0,0.0,0.0,0.0,0.0,0.0,0.0,0.0,0.0,0.0,0.0,0.0,0.0,0.0,0.0,0.0,0.0,0.0,0.0,0.0,0.0,0.0,0.0,0.0,0.0,0.0,0.0,0.0,0.0,0.0,0.0,0.0,0.0,0.0,0.0,0.0,0.0,0.0,0.0,0.0,0.0,0.0,0.0,0.0,0.0,0.0,0.0,0.0,0.0,0.0,0.0,0.0,0.0,0.0,0.0,0.0,0.0,0.0,0.0,0.0,0.0,0.0,0.0,0.0,0.0,0.0,0.0,0.0,0.0,0.0,0.0,0.0,0.0,0.0,0.0,0.0,0.0,0.0,0.0,0.0,0.0,0.0,0.0,0.0,0.0,0.0,0.0,0.0,0.0,0.0,0.0,0.0,0.0,0.0,0.0,0.0,0.0,0.0,0.0,0.0,0.0,0.0,0.0,0.0,0.0,0.0,0.0,0.0,0.9583,0.8187,0.7948,0.8027,0.7877,0.7883,0.7744,0.0,0.0,0.0,0.0,0.0,0.0,0.0,0.0,0.0,0.0,0.0,0.0,0.0,0.0,0.0,0.0,0.0,0.0,0.0,0.0,0.0,0.0,0.0,0.0,0.0,0.0,0.0,0.0,0.0,0.0,0.0,0.0,0.0,0.0,0.0,0.0,0.0,0.0,0.0,0.0,0.0,0.0,0.0,0.0,0.0,0.0,0.0,0.0,0.0,0.0,0.0,0.0,0.0,0.0,0.0,0.0,0.0,0.0,0.0,0.0,0.0,0.0,0.0,0.0,0.0,0.0,0.0,0.0,0.0,0.0,0.0,0.0,0.0,0.0,0.0,0.0,0.0,0.0,0.0,0.0,0.0,0.0,0.0,0.0,0.0,0.0,0.0,0.0,0.0,0.0,0.0,0.0,0.0,0.0,0.0,0.0,0.0,0.0,0.0,0.0,0.0,0.0,0.0,0.0,0.0,0.0,0.0,0.0,0.0,0.957,0.9022,0.904,0.9634,0.8871,0.8688,0.0,0.0,0.0,0.0,0.0,0.0,0.0,0.0,0.0,0.0,0.0,0.0,0.0,0.0,0.0,0.0,0.0,0.0,0.0,0.0,0.0,0.0,0.0,0.0,0.0,0.0,0.0,0.0,0.0,0.0,0.0,0.0,0.0,0.0,0.0,0.0,0.0,0.0,0.0,0.0,0.0,0.0,0.0,0.0,0.0,0.0,0.0,0.0,0.0,0.0,0.0,0.0,0.0,0.0,0.0,0.0,0.0,0.0,0.0,0.0,0.0,0.0,0.0,0.0,0.0,0.0,0.0,0.0,0.0,0.0,0.0,0.0,0.0,0.0,0.0,0.0,0.0,0.0,0.0,0.0,0.0,0.0,0.0,0.0,0.0,0.0,0.0,0.0,0.0,0.0,0.0,0.0,0.0,0.0,0.0,0.0,0.0,0.0,0.0,0.0,0.0,0.0,0.0,0.0,0.0,0.0,0.0,0.0,0.0,1.0602,1.0052,0.9903,1.0575,0.9869,0.9606,0.9803,0.0,0.0,0.0,0.0,0.0,0.0,0.0,0.0,0.0,0.0,0.0,0.0,0.0,0.0,0.0,0.0,0.0,0.0,0.0,0.0,0.0,0.0,0.0,0.0,0.0,0.0,0.0,0.0,0.0,0.0,0.0,0.0,0.0,0.0,0.0,0.0,0.0,0.0,0.0,0.0,0.0,0.0,0.0,0.0,0.0,0.0,0.0,0.0,0.0,0.0,0.0,0.0,0.0,0.0,0.0,0.0,0.0,0.0,0.0,0.0,0.0,0.0,0.0,0.0,0.0,0.0,0.0,0.0,0.0,0.0,0.0,0.0,0.0,0.0,0.0,0.0,0.0,0.0,0.0,0.0,0.0,0.0,0.0,0.0,0.0,0.0,0.0,0.0,0.0,0.0,0.0,0.0,0.0,0.0,0.0,0.0,0.0,0.0,0.0,0.0,0.0,0.0,0.0,0.0,0.0,0.0,0.0,0.0,1.1226,1.0826,1.069,1.0799,1.0622,1.0385,0.0,0.0,0.0,0.0,0.0,0.0,0.0,0.0,0.0,0.0,0.0,0.0,0.0,0.0,0.0,0.0,0.0,0.0,0.0,0.0,0.0,0.0,0.0,0.0,0.0,0.0,0.0,0.0,0.0,0.0,0.0,0.0,0.0,0.0,0.0,0.0,0.0,0.0,0.0,0.0,0.0,0.0,0.0,0.0,0.0,0.0,0.0,0.0,0.0,0.0,0.0,0.0,0.0,0.0,0.0,0.0,0.0,0.0,0.0,0.0,0.0,0.0,0.0,0.0,0.0,0.0,0.0,0.0,0.0,0.0,0.0,0.0,0.0,0.0,0.0,0.0,0.0,0.0,0.0,0.0,0.0,0.0,0.0,0.0,0.0,0.0,0.0,0.0,0.0,0.0,0.0,0.0,0.0,0.0,0.0,0.0,0.0,0.0,0.0,0.0,0.0,0.0,0.0,0.0,0.0,0.0,0.0,0.0,0.0,1.1972,1.2094,1.2006,1.1714,1.1138,1.0738,0.0,0.0,0.0,0.0,0.0,0.0,0.0,0.0,0.0,0.0,0.0,0.0,0.0,0.0,0.0,0.0,0.0,0.0,0.0,0.0,0.0,0.0,0.0,0.0,0.0,0.0,0.0,0.0,0.0,0.0,0.0,0.0,0.0,0.0,0.0,0.0,0.0,0.0,0.0,0.0,0.0,0.0,0.0,0.0,0.0,0.0,0.0,0.0,0.0,0.0,0.0,0.0,0.0,0.0,0.0,0.0,0.0,0.0,0.0,0.0,0.0,0.0,0.0,0.0,0.0,0.0,0.0,0.0,0.0,0.0,0.0,0.0,0.0,0.0,0.0,0.0,0.0,0.0,0.0,0.0,0.0,0.0,0.0,0.0,0.0,0.0,0.0,0.0,0.0,0.0,0.0,0.0,0.0,0.0,0.0,0.0,0.0,0.0,0.0,0.0,0.0,0.0,0.0,0.0,0.0,0.0,0.0,0.0,1.2192,1.2467,1.3132,1.3295,1.2915,1.206,1.1355,0.0,0.0,0.0,0.0,0.0,0.0,0.0,0.0,0.0,0.0,0.0,0.0,0.0,0.0,0.0,0.0,0.0,0.0,0.0,0.0,0.0,0.0,0.0,0.0,0.0,0.0,0.0,0.0,0.0,0.0,0.0,0.0,0.0,0.0,0.0,0.0,0.0,0.0,0.0,0.0,0.0,0.0,0.0,0.0,0.0,0.0,0.0,0.0,0.0,0.0,0.0,0.0,0.0,0.0,0.0,0.0,0.0,0.0,0.0,0.0,0.0,0.0,0.0,0.0,0.0,0.0,0.0,0.0,0.0,0.0,0.0,0.0,0.0,0.0,0.0,0.0,0.0,0.0,0.0,0.0,0.0,0.0,0.0,0.0,0.0,0.0,0.0,0.0,0.0,0.0,0.0,0.0,0.0,0.0,0.0,0.0,0.0,0.0,0.0,0.0,0.0,0.0,0.0,0.0,0.0,0.0,0.0,0.0,1.2454,1.2854,1.3946,1.4414,1.415,1.3098,1.2054,0.0,0.0,0.0,0.0,0.0,0.0,0.0,0.0,0.0,0.0,0.0,0.0,0.0,0.0,0.0,0.0,0.0,0.0,0.0,0.0,0.0,0.0,0.0,0.0,0.0,0.0,0.0,0.0,0.0,0.0,0.0,0.0,0.0,0.0,0.0,0.0,0.0,0.0,0.0,0.0,0.0,0.0,0.0,0.0,0.0,0.0,0.0,0.0,0.0,0.0,0.0,0.0,0.0,0.0,0.0,0.0,0.0,0.0,0.0,0.0,0.0,0.0,0.0,0.0,0.0,0.0,0.0,0.0,0.0,0.0,0.0,0.0,0.0,0.0,0.0,0.0,0.0,0.0,0.0,0.0,0.0,0.0,0.0,0.0,0.0,0.0,0.0,0.0,0.0,0.0,0.0,0.0,0.0,0.0,0.0,0.0,0.0,0.0,0.0,0.0,0.0,0.0,0.0,0.0,0.0,0.0,0.0,0.0,1.3027,1.3593,1.4319,1.4719,1.4774,1.3417,1.2305,0.0,0.0,0.0,0.0,0.0,0.0,0.0,0.0,0.0,0.0,0.0,0.0,0.0,0.0,0.0,0.0,0.0,0.0,0.0,0.0,0.0,0.0,0.0,0.0,0.0,0.0,0.0,0.0,0.0,0.0,0.0,0.0,0.0,0.0,0.0,0.0,0.0,0.0,0.0,0.0,0.0,0.0,0.0,0.0,0.0,0.0,0.0,0.0,0.0,0.0,0.0,0.0,0.0,0.0,0.0,0.0,0.0,0.0,0.0,0.0,0.0,0.0,0.0,0.0,0.0,0.0,0.0,0.0,0.0,0.0,0.0,0.0,0.0,0.0,0.0,0.0,0.0,0.0,0.0,0.0,0.0,0.0,0.0,0.0,0.0,0.0,0.0,0.0,0.0,0.0,0.0,0.0,0.0,0.0,0.0,0.0,0.0,0.0,0.0,0.0,0.0,0.0,0.0,0.0,0.0,0.0,0.0,0.0,1.3824,1.4034,1.4713,1.5059,1.5025,1.3885,1.2766,0.0,0.0,0.0,0.0,0.0,0.0,0.0,0.0,0.0,0.0,0.0,0.0,0.0,0.0,0.0,0.0,0.0,0.0,0.0,0.0,0.0,0.0,0.0,0.0,0.0,0.0,0.0,0.0,0.0,0.0,0.0,0.0,0.0,0.0,0.0,0.0,0.0,0.0,0.0,0.0,0.0,0.0,0.0,0.0,0.0,0.0,0.0,0.0,0.0,0.0,0.0,0.0,0.0,0.0,0.0,0.0,0.0,0.0,0.0,0.0,0.0,0.0,0.0,0.0,0.0,0.0,0.0,0.0,0.0,0.0,0.0,0.0,0.0,0.0,0.0,0.0,0.0,0.0,0.0,0.0,0.0,0.0,0.0,0.0,0.0,0.0,0.0,0.0,0.0,0.0,0.0,0.0,0.0,0.0,0.0,0.0,0.0,0.0,0.0,0.0,0.0,0.0,0.0,0.0,0.0,0.0,0.0,1.4045,1.4703,1.4387,1.5106,1.5384,1.5174,1.4333,1.3241,1.1925,0.0,0.0,0.0,0.0,0.0,0.0,0.0,0.0,0.0,0.0,0.0,0.0,0.0,0.0,0.0,0.0,0.0,0.0,0.0,0.0,0.0,0.0,0.0,0.0,0.0,0.0,0.0,0.0,0.0,0.0,0.0,0.0,0.0,0.0,0.0,0.0,0.0,0.0,0.0,0.0,0.0,0.0,0.0,0.0,0.0,0.0,0.0,0.0,0.0,0.0,0.0,0.0,0.0,0.0,0.0,0.0,0.0,0.0,0.0,0.0,0.0,0.0,0.0,0.0,0.0,0.0,0.0,0.0,0.0,0.0,0.0,0.0,0.0,0.0,0.0,0.0,0.0,0.0,0.0,0.0,0.0,0.0,0.0,0.0,0.0,0.0,0.0,0.0,0.0,0.0,0.0,0.0,0.0,0.0,0.0,0.0,0.0,0.0,0.0,0.0,0.0,0.0,0.0,0.0,0.0,1.2917,1.4563,1.5204,1.4848,1.5466,1.5588,1.5181,1.4441,1.3403,1.2094,0.0,0.0,0.0,0.0,0.0,0.0,0.0,0.0,0.0,0.0,0.0,0.0,0.0,0.0,0.0,0.0,0.0,0.0,0.0,0.0,0.0,0.0,0.0,0.0,0.0,0.0,0.0,0.0,0.0,0.0,0.0,0.0,0.0,0.0,0.0,0.0,0.0,0.0,0.0,0.0,0.0,0.0,0.0,0.0,0.0,0.0,0.0,0.0,0.0,0.0,0.0,0.0,0.0,0.0,0.0,0.0,0.0,0.0,0.0,0.0,0.0,0.0,0.0,0.0,0.0,0.0,0.0,0.0,0.0,0.0,0.0,0.0,0.0,0.0,0.0,0.0,0.0,0.0,0.0,0.0,0.0,0.0,0.0,0.0,0.0,0.0,0.0,0.0,0.0,0.0,0.0,0.0,0.0,0.0,0.0,0.0,0.0,0.0,0.0,0.0,0.0,0.0,0.0,0.0,0.0,1.317,1.4691,1.5291,1.5174,1.5554,1.5567,1.5181,1.438,1.3431,0.0,0.0,0.0,0.0,0.0,0.0,0.0,0.0,0.0,0.0,0.0,0.0,0.0,0.0,0.0,0.0,0.0,0.0,0.0,0.0,0.0,0.0,0.0,0.0,0.0,0.0,0.0,0.0,0.0,0.0,0.0,0.0,0.0,0.0,0.0,0.0,0.0,0.0,0.0,0.0,0.0,0.0,0.0,0.0,0.0,0.0,0.0,0.0,0.0,0.0,0.0,0.0,0.0,0.0,0.0,0.0,0.0,0.0,0.0,0.0,0.0,0.0,0.0,0.0,0.0,0.0,0.0,0.0,0.0,0.0,0.0,0.0,0.0,0.0,0.0,0.0,0.0,0.0,0.0,0.0,0.0,0.0,0.0,0.0,0.0,0.0,0.0,0.0,0.0,0.0,0.0,0.0,0.0,0.0,0.0,0.0,0.0,0.0,0.0,0.0,0.0,0.0,0.0,0.0,0.0,0.0,1.3565,1.4696,1.5258,1.5384,1.5622,1.5554,1.5181,1.434,1.3451,0.0,0.0,0.0,0.0,0.0,0.0,0.0,0.0,0.0,0.0,0.0,0.0,0.0,0.0,0.0,0.0,0.0,0.0,0.0,0.0,0.0,0.0,0.0,0.0,0.0,0.0,0.0,0.0,0.0,0.0,0.0,0.0,0.0,0.0,0.0,0.0,0.0,0.0,0.0,0.0,0.0,0.0,0.0,0.0,0.0,0.0,0.0,0.0,0.0,0.0,0.0,0.0,0.0,0.0,0.0,0.0,0.0,0.0,0.0,0.0,0.0,0.0,0.0,0.0,0.0,0.0,0.0,0.0,0.0,0.0,0.0,0.0,0.0,0.0,0.0,0.0,0.0,0.0,0.0,0.0,0.0,0.0,0.0,0.0,0.0,0.0,0.0,0.0,0.0,0.0,0.0,0.0,0.0,0.0,0.0,0.0,0.0,0.0,0.0,0.0,0.0,0.0,0.0,0.0,0.0,0.0,1.4045,1.5145,1.554,1.5398,1.5818,1.5757,1.5194,1.4441,1.3559,0.0,0.0,0.0,0.0,0.0,0.0,0.0,0.0,0.0,0.0,0.0,0.0,0.0,0.0,0.0,0.0,0.0,0.0,0.0,0.0,0.0,0.0,0.0,0.0,0.0,0.0,0.0,0.0,0.0,0.0,0.0,0.0,0.0,0.0,0.0,0.0,0.0,0.0,0.0,0.0,0.0,0.0,0.0,0.0,0.0,0.0,0.0,0.0,0.0,0.0,0.0,0.0,0.0,0.0,0.0,0.0,0.0,0.0,0.0,0.0,0.0,0.0,0.0,0.0,0.0,0.0,0.0,0.0,0.0,0.0,0.0,0.0,0.0,0.0,0.0,0.0,0.0,0.0,0.0,0.0,0.0,0.0,0.0,0.0,0.0,0.0,0.0,0.0,0.0,0.0,0.0,0.0,0.0,0.0,0.0,0.0,0.0,0.0,0.0,0.0,0.0,0.0,0.0,0.0,0.0,1.127,1.4174,1.5089,1.5596,1.552,1.573,1.5622,1.5194,1.4299,1.3492,0.0,0.0,0.0,0.0,0.0,0.0,0.0,0.0,0.0,0.0,0.0,0.0,0.0,0.0,0.0,0.0,0.0,0.0,0.0,0.0,0.0,0.0,0.0,0.0,0.0,0.0,0.0,0.0,0.0,0.0,0.0,0.0,0.0,0.0,0.0,0.0,0.0,0.0,0.0,0.0,0.0,0.0,0.0,0.0,0.0,0.0,0.0,0.0,0.0,0.0,0.0,0.0,0.0,0.0,0.0,0.0,0.0,0.0,0.0,0.0,0.0,0.0,0.0,0.0,0.0,0.0,0.0,0.0,0.0,0.0,0.0,0.0,0.0,0.0,0.0,0.0,0.0,0.0,0.0,0.0,0.0,0.0,0.0,0.0,0.0,0.0,0.0,0.0,0.0,0.0,0.0,0.0,0.0,0.0,0.0,0.0,0.0,0.0,0.0,0.0,0.0,0.0,0.0,0.0,0.0,0.0,1.4495,1.5161,1.5591,1.5669,1.5689,1.5533,1.5181,1.4285,0.0,0.0,0.0,0.0,0.0,0.0,0.0,0.0,0.0,0.0,0.0,0.0,0.0,0.0,0.0,0.0,0.0,0.0,0.0,0.0,0.0,0.0,0.0,0.0,0.0,0.0,0.0,0.0,0.0,0.0,0.0,0.0,0.0,0.0,0.0,0.0,0.0,0.0,0.0,0.0,0.0,0.0,0.0,0.0,0.0,0.0,0.0,0.0,0.0,0.0,0.0,0.0,0.0,0.0,0.0,0.0,0.0,0.0,0.0,0.0,0.0,0.0,0.0,0.0,0.0,0.0,0.0,0.0,0.0,0.0,0.0,0.0,0.0,0.0,0.0,0.0,0.0,0.0,0.0,0.0,0.0,0.0,0.0,0.0,0.0,0.0,0.0,0.0,0.0,0.0,0.0,0.0,0.0,0.0,0.0,0.0,0.0,0.0,0.0,0.0,0.0,0.0,0.0,0.0,0.0,0.0,0.0,1.5,1.5454,1.5646,1.5811,1.5839,1.5628,1.5187,1.4577,1.3851,0.0,0.0,0.0,0.0,0.0,0.0,0.0,0.0,0.0,0.0,0.0,0.0,0.0,0.0,0.0,0.0,0.0,0.0,0.0,0.0,0.0,0.0,0.0,0.0,0.0,0.0,0.0,0.0,0.0,0.0,0.0,0.0,0.0,0.0,0.0,0.0,0.0,0.0,0.0,0.0,0.0,0.0,0.0,0.0,0.0,0.0,0.0,0.0,0.0,0.0,0.0,0.0,0.0,0.0,0.0,0.0,0.0,0.0,0.0,0.0,0.0,0.0,0.0,0.0,0.0,0.0,0.0,0.0,0.0,0.0,0.0,0.0,0.0,0.0,0.0,0.0,0.0,0.0,0.0,0.0,0.0,0.0,0.0,0.0,0.0,0.0,0.0,0.0,0.0,0.0,0.0,0.0,0.0,0.0,0.0,0.0,0.0,0.0,0.0,0.0,0.0,0.0,0.0,0.0,0.0,1.2099,1.5185,1.5889,1.6081,1.5967,1.5995,1.5825,1.5472,1.4794,1.4055,0.0,0.0,0.0,0.0,0.0,0.0,0.0,0.0,0.0,0.0,0.0,0.0,0.0,0.0,0.0,0.0,0.0,0.0,0.0,0.0,0.0,0.0,0.0,0.0,0.0,0.0,0.0,0.0,0.0,0.0,0.0,0.0,0.0,0.0,0.0,0.0,0.0,0.0,0.0,0.0,0.0,0.0,0.0,0.0,0.0,0.0,0.0,0.0,0.0,0.0,0.0,0.0,0.0,0.0,0.0,0.0,0.0,0.0,0.0,0.0,0.0,0.0,0.0,0.0,0.0,0.0,0.0,0.0,0.0,0.0,0.0,0.0,0.0,0.0,0.0,0.0,0.0,0.0,0.0,0.0,0.0,0.0,0.0,0.0,0.0,0.0,0.0,0.0,0.0,0.0,0.0,0.0,0.0,0.0,0.0,0.0,0.0,0.0,0.0,0.0,0.0,0.0,0.0,0.0,0.0,1.2155,1.5232,1.5964,1.6472,1.6205,1.6171,1.6008,1.5696,1.5018,1.4319,0.0,0.0,0.0,0.0,0.0,0.0,0.0,0.0,0.0,0.0,0.0,0.0,0.0,0.0,0.0,0.0,0.0,0.0,0.0,0.0,0.0,0.0,0.0,0.0,0.0,0.0,0.0,0.0,0.0,0.0,0.0,0.0,0.0,0.0,0.0,0.0,0.0,0.0,0.0,0.0,0.0,0.0,0.0,0.0,0.0,0.0,0.0,0.0,0.0,0.0,0.0,0.0,0.0,0.0,0.0,0.0,0.0,0.0,0.0,0.0,0.0,0.0,0.0,0.0,0.0,0.0,0.0,0.0,0.0,0.0,0.0,0.0,0.0,0.0,0.0,0.0,0.0,0.0,0.0,0.0,0.0,0.0,0.0,0.0,0.0,0.0,0.0,0.0,0.0,0.0,0.0,0.0,0.0,0.0,0.0,0.0,0.0,0.0,0.0,0.0,0.0,0.0,0.0,0.0,0.0,0.0,1.5168,1.5996,1.6579,1.6476,1.6374,1.6164,1.5852,1.5276,1.4679,1.4061,0.0,0.0,0.0,0.0,0.0,0.0,0.0,0.0,0.0,0.0,0.0,0.0,0.0,0.0,0.0,0.0,0.0,0.0,0.0,0.0,0.0,0.0,0.0,0.0,0.0,0.0,0.0517,0.0,0.0,0.0,0.0,0.0,0.0,0.0,0.0,0.0,0.0,0.0,0.0,0.0,0.0,0.0,0.0,0.0,0.0,0.0,0.0,0.0,0.0,0.0,0.0,0.0,0.0,0.0,0.0,0.0,0.0,0.0,0.0,0.0,0.0,0.0,0.0,0.0,0.0,0.0,0.0,0.0,0.0,0.0,0.0,0.0,0.0,0.0,0.0,0.0,0.0,0.0,1.3962,0.0,0.0,0.0,0.0,0.0,0.0,0.0,0.0,0.0,0.0,0.0,1.2102,1.2474,0.0,0.0,0.0,0.0,0.0,0.0,0.0,0.0,0.0,0.0,0.0,0.0,1.2475,1.5013,1.6205,1.6835,1.6653,1.6625,1.6456,1.6157,1.5676,1.4943,1.4305,0.0,0.0,0.0,0.0,0.0,0.0,0.0,0.0,0.0,0.0,0.0,0.0,0.0,0.0,0.0,0.0,0.0,0.0,0.0,0.0,0.0,0.0,0.0,0.0,0.0,0.7009,0.0,0.0,0.0,0.0,0.0,0.0,0.0,0.0,0.0,0.0,0.0,0.0,0.0,0.2914,0.4847,0.4711,0.3365,0.195,0.0,0.0,0.0,0.0,0.0,0.0,0.0,0.0,0.0,0.0,0.0,0.0,0.0,0.0,0.0,0.0,0.0,0.0,0.0,0.0,0.0,0.0,0.0,0.0,0.0,0.0,0.0,0.0,0.0,0.0,0.0,0.0,0.0,0.0,0.0,1.51,0.0,0.0,0.0,0.0,0.0,0.0,0.0,0.0,1.304,1.2816,1.2631,1.3003,1.3363,0.0,1.3315,1.2915,0.0,0.0,0.0,0.0,0.0,0.0,0.0,0.0,1.2548,1.4805,1.6166,1.6992,1.6795,1.6775,1.6659,1.6463,1.5872,1.5079,1.4235,1.3832,1.299,0.0,0.0,0.0,0.0,0.0,0.0,0.0,0.0,0.0,0.0,0.0,0.0,0.0,0.0,0.0,0.0,0.0,0.0,0.0,0.0,0.0,0.0,0.0,0.8208,0.0,0.0,0.0,0.0,0.0,0.0,0.0,0.0,0.0,0.4785,0.2667,0.1662,0.2448,0.3884,0.5495,0.6923,0.0,0.0,0.0,0.0,0.0,0.0,0.0,0.0,0.0,0.0,0.0,0.0,0.0,0.0,0.0,0.0,0.0,0.0,0.0,0.0,0.0,0.0,0.0,0.0,0.0,0.0,0.0,0.0,0.0,0.0,0.0,0.0,0.0,0.0,2.0032,1.9199,0.0,1.9325,0.0,0.0,0.0,0.0,0.0,0.0,0.0,0.0,1.4743,1.3587,1.3158,1.3789,1.4203,1.4563,1.4062,1.3804,1.361,1.3485,0.0,0.0,0.0,0.0,0.0,0.0,1.2489,1.399,1.5897,1.7063,1.6944,1.6836,1.6955,1.6907,1.5879,1.5092,1.4401,1.4442,1.4152,1.3394,1.2901,0.0,0.0,0.0,0.0,0.0,0.0,0.0,0.0,0.0,0.0,0.0,0.0,0.0,0.0,0.0,0.0,0.0,0.0,0.0,0.0,0.9071,0.0,0.0,0.0,0.0,0.0,0.0,0.0,0.0,0.0,0.0,1.2459,0.7911,0.4791,0.7041,0.0,0.0,0.0,0.0,0.7155,0.7405,0.343,0.0,0.0,0.0,0.0,0.0,0.0,0.0,0.0,0.0,0.0,0.0,0.0,0.0,0.0,0.0,0.0,0.0,0.0,0.0,0.0,0.0,0.0,2.3833,0.0,0.0,0.0,0.0,1.9984,2.1545,2.389,2.2094,2.1965,2.3053,2.1263,0.0,0.0,0.0,0.0,0.0,0.0,1.8627,1.9757,1.9599,1.7429,1.4088,1.8305,2.0459,2.0478,2.0403,1.9303,1.7518,1.9052,1.7323,1.2678,0.0,0.0,0.0,0.0,1.2777,1.4473,1.6096,1.6967,1.6971,1.879,1.9608,1.9444,1.6846,1.533,1.4624,1.7485,1.7543,1.414,1.3506,0.0,0.0,0.0,0.0,0.0,0.0,0.0,0.0,0.0,0.0,0.0,0.0,0.0,0.0,0.0,0.0,0.0,0.0,0.0,1.078,1.1213,1.1077,0.0,0.0,0.0,0.0,0.0,0.0,0.0,0.0,0.0,1.2824,1.048,0.8292,0.0,0.0,0.5329,0.5016,0.7042,0.8302,0.7359,0.0,0.0,0.0,0.0,0.0,0.0,0.0,0.0,0.0,0.0,0.0,0.0,0.0,0.0,0.0,0.0,0.0,0.0,0.0,0.0,0.0,0.0,0.0,2.808,2.4217,2.3223,2.3013,2.3413,2.3833,2.5282,2.7473,2.5866,2.5699,2.6364,2.4826,2.32,2.1394,2.0674,0.0,0.0,0.0,2.18,2.3304,2.2568,2.0648,1.8201,2.1404,2.4237,2.6272,2.4334,2.2347,2.0705,2.2222,2.0705,1.6668,0.0,0.0,1.4475,1.3223,1.335,1.4702,1.8457,2.0331,2.0271,2.0828,2.1403,2.1977,1.8874,1.6605,1.5128,1.7158,1.7112,1.4414,1.3902,1.3596,0.0,0.0,0.0,0.0,0.0,0.0,0.0,0.0,0.0,0.0,0.0,1.1277,1.1113,0.0,0.0,0.0,1.1348,1.1708,1.1952,1.2234,0.0,0.0,0.0,0.0,0.0,0.0,0.0,1.0304,1.1265,1.1927,1.2489,1.1708,1.0429,0.8861,0.854,0.8375,0.8054,0.0,0.9968,0.9873,0.9968,0.9027,0.6169,0.4107,0.2225,0.0345,0.0,0.0,0.0,0.0,0.0,0.0,0.0,0.0,0.0,0.0,0.0,0.0,0.0,0.0,0.0,0.0,0.0,3.153,3.0889,2.8817,2.8011,2.8178,2.8462,2.9247,3.0488,3.0501,2.9818,2.859,2.9277,2.7571,2.3994,2.2572,0.0,0.0,2.3709,2.4175,2.6676,2.4668,2.3704,2.3572,2.3946,2.6794,3.1664,2.6839,2.4239,2.3467,2.3988,2.355,2.2726,2.0018,1.8209,1.7511,1.4812,1.4062,1.5452,2.2294,2.5829,2.541,2.2765,2.2369,2.4747,2.1771,1.898,1.639,1.4937,1.4618,1.5362,1.4671,1.4147,1.377,0.0,0.0,0.0,0.0,0.0,0.0,0.0,0.0,0.0,0.0,0.0,0.0,0.0,0.0,0.0,1.2054,0.0,1.2508,1.2246,0.0,0.0,0.0,1.2189,1.1384,1.1415,1.1275,1.1415,0.0,0.0,0.0,0.0,1.1788,1.0904,1.0232,1.0909,1.3832,1.2402,1.1992,1.3566,1.4057,1.4326,1.3281,1.017,0.6523,0.2667,0.0536,0.0,0.0,0.0,0.0,0.0,0.0,0.0,0.0,0.0,0.0,0.0,0.0,0.0,0.0,0.0,0.0,3.3334,3.2759,3.2204,3.1284,3.0373,3.0836,3.1168,3.1677,3.169,3.149,3.0942,3.0902,3.0162,2.9132,2.8693,2.8925,2.943,2.8936,2.9179,2.9961,2.9794,2.9444,2.9073,2.9921,3.132,3.2858,3.1373,2.9492,2.7592,2.9147,2.8387,2.5042,2.4202,2.2464,1.9831,1.6051,1.6567,2.176,2.8148,3.046,2.8291,2.5563,2.5348,2.7554,2.4649,2.2632,2.182,1.7262,1.7848,2.4235,1.8113,1.4228,1.4147,1.3336,0.0,0.0,0.0,0.0,0.0,0.0,0.0,0.0,0.0,1.2067,1.2444,0.0,1.1959,0.0,1.2291,1.2637,1.2671,1.2487,0.0,0.0,1.2866,1.2915,1.2467,1.2503,1.2762,1.2655,1.2896,1.3254,1.2959,1.3184,1.3219,1.3006,1.1571,1.1444,1.3789,1.3219,1.2472,1.3108,1.376,1.4231,1.4245,1.3401,1.1999,1.112,0.5001,0.0,0.0,0.0,0.0,0.0,0.0,0.0,0.0,0.0,0.0,0.0,0.0,0.0,0.0,0.0,0.0,3.4322,3.3988,3.3868,3.3347,3.2585,3.2358,3.2345,3.2492,3.2492,3.2398,3.2225,3.181,3.1383,3.0996,3.1129,3.1183,3.1196,3.1316,3.161,3.2011,3.2171,3.2036,3.1565,3.2472,3.3224,3.3796,3.3224,3.2051,3.0738,3.2235,3.1594,2.9068,2.9165,2.814,2.5328,1.9628,1.8533,2.2283,2.9538,3.2559,3.1151,2.8381,2.7683,2.9396,2.6409,2.4887,2.5251,2.2818,2.1618,2.1917,1.879,1.6077,1.4069,1.3343,1.2895,0.0,0.0,0.0,0.0,0.0,0.0,0.0,0.0,0.0,0.0,0.0,1.2628,0.0,1.2793,0.0,1.2935,1.2762,1.2728,1.2807,1.32,1.3283,1.3024,1.3234,1.3349,1.3268,1.3458,1.362,1.3695,1.3844,1.4,1.3968,1.3083,1.2803,1.3939,1.3667,1.3378,1.3462,1.3892,1.4306,1.4326,1.4401,1.4434,1.3846,0.9871,0.6281,0.6276,0.2684,0.0,0.0,0.0,0.0,0.0,0.0,0.0,0.0,0.0,0.0,0.0,0.0,0.0,3.4923,3.4897,3.4563,3.4416,3.4309,3.3494,3.3146,3.3146,3.3146,3.3133,3.3053,3.2519,3.1984,3.153,3.1784,3.1917,3.1971,3.2211,3.2625,3.3133,3.3146,3.2986,3.2786,3.3211,3.3883,3.4165,3.3668,3.34,3.3173,3.3681,3.3654,3.2934,3.3386,3.2742,3.0777,2.4328,2.0973,2.1326,2.8918,3.3041,3.3147,3.0602,2.959,3.0253,2.7298,2.6028,2.6822,2.835,2.496,1.5843,1.8174,1.7891,1.3749,1.3349,1.3157,0.0,1.2712,0.0,0.0,0.0,0.0,0.0,0.0,0.0,0.0,1.3054,1.3095,1.318,1.3322,1.3349,1.3214,1.305,1.3063,1.3234,1.3418,1.348,1.3444,1.3573,1.3654,1.3654,1.3783,1.3926,1.4034,1.4082,1.4156,1.4265,1.4265,1.4082,1.4319,1.4312,1.4319,1.4326,1.4346,1.4394,1.4401,1.4475,1.4516,1.4441,1.3957,1.4376,1.3964,0.7563,0.0,0.0,0.0,0.0,0.0,0.0,0.0,0.0,0.0,0.0,0.0,0.0,0.0,3.5819,3.5778,3.5257,3.4897,3.4643,3.4242,3.4068,3.4068,3.4068,3.3935,3.3694,3.332,3.3106,3.3,3.3053,3.3213,3.3467,3.3521,3.3734,3.4068,3.4068,3.4122,3.3997,3.4162,3.4189,3.4242,3.4175,3.4122,3.4068,3.4189,3.3646,3.2492,3.2351,3.1201,0.0,0.0,0.0,0.0,2.9411,3.0726,3.1849,2.9984,2.9068,2.8723,2.7353,0.0,2.4992,2.549,2.3681,1.9111,1.8055,0.0,0.0,0.0,0.0,0.0,0.0,0.0,0.0,0.0,0.0,0.0,1.3526,1.3654,1.3387,1.3356,1.3295,1.3356,1.3383,1.339,1.3363,1.3305,1.3372,1.3546,1.3641,1.3729,1.3756,1.3783,1.3797,1.3804,1.3939,1.4034,1.4075,1.4177,1.4265,1.4292,1.4299,1.4353,1.4634,1.4462,1.4468,1.4475,1.4557,1.4645,1.4658,1.4665,1.4672,1.4672,1.449,1.4524,1.4713,1.3782,0.8795,0.0,0.0,0.0,0.0,0.0,0.0,0.0,0.0,0.0,0.0,0.0,0.0,3.6714,0.0,3.6246,3.5965,0.0,3.5525,3.5391,3.5351,3.4629,3.4242,3.4095,3.3718,3.3855,3.3868,3.3855,3.3948,3.4095,3.4095,3.4255,3.4536,3.4536,3.4616,3.475,3.4603,3.4616,3.4736,3.4456,3.4469,3.475,3.475,3.4462,3.3694,3.355,3.2827,3.156,3.2136,3.2338,3.2353,3.1816,3.1768,3.2598,3.1784,3.0632,2.9554,0.0,0.0,0.0,0.0,0.0,0.0,0.0,0.0,0.0,0.0,0.0,1.3782,1.4703,1.4695,1.3782,1.3519,1.3593,1.3838,1.4201,1.4103,1.3867,1.3748,1.3682,1.3831,1.3777,1.3729,1.3736,1.3626,1.364,1.3749,1.3974,1.4016,1.3851,1.3912,1.3953,1.3966,1.4095,1.4183,1.4183,1.4245,1.4299,1.4299,1.4299,1.4326,1.4401,1.4468,1.4529,1.4604,1.4604,1.4624,1.4631,1.4699,1.4713,1.4665,1.4753,1.4828,1.5174,1.5174,1.3327,0.8351,0.5554,0.3704,0.3569,0.1867,0.0,0.0,0.0,0.0,0.0,0.0,0.0,3.7622,3.7582,3.7235,3.7061,3.6994,3.6714,3.6553,3.642,0.0,0.0,0.0,3.4336,3.4309,3.4322,3.4322,3.4349,3.4402,3.4402,3.4563,3.483,3.4843,3.4963,3.5177,3.495,3.4963,3.5164,3.4696,3.475,3.5257,3.5217,3.5257,3.5324,3.5257,3.5204,3.5204,3.5244,3.5301,3.5374,3.4287,3.3585,3.3665,3.3118,3.1944,3.0379,2.9733,2.8314,2.6163,2.2943,2.0941,2.0737,2.3178,2.3283,1.9975,2.0416,1.8777,1.4717,1.6165,1.6301,1.4084,1.3861,1.3988,1.4292,1.4299,1.4373,1.4298,1.4098,1.4014,1.4245,1.4143,1.4061,1.4034,1.3881,1.384,1.3892,1.4084,1.4105,1.3933,1.4027,1.4109,1.4122,1.4217,1.4299,1.4292,1.4292,1.4299,1.4299,1.4299,1.4333,1.438,1.4496,1.4631,1.4787,1.4767,1.4658,1.4658,1.4753,1.476,1.4895,1.5053,1.5156,1.5271,1.5243,1.5121,1.4506,1.1573,0.9347,0.87,0.6006,0.2435,0.1535,0.0,0.0,0.0,0.0,0.0,3.8531,3.8491,3.7929,3.7542,3.7301,3.7008,3.674,3.642,3.5485,3.4937,3.4683,3.4896,3.4787,3.4322,3.4322,3.4456,3.4696,3.4696,3.4857,0.0,3.5137,3.5164,3.5191,3.5151,3.5151,3.5191,3.511,3.5244,3.5511,3.5324,3.5444,3.5832,3.5444,3.5204,3.5217,3.5205,3.5498,3.5828,3.5193,3.4255,3.2647,3.1114,3.0169,2.9396,2.8814,2.7769,2.6698,2.4753,2.355,2.3457,2.6146,2.733,2.6734,2.4174,2.1017,1.7594,1.7463,1.6625,1.4407,1.4251,1.4278,1.4299,1.4299,1.4278,1.4245,1.4238,1.4204,1.4122,1.4095,1.4014,1.3905,1.3827,1.3894,1.4055,1.4156,1.4231,1.4217,1.4245,1.4258,1.4258,1.4285,1.4299,1.4299,1.4299,1.4299,1.4299,1.4299,1.4387,1.459,1.4692,1.4821,1.5045,1.5106,1.5086,1.5031,1.5092,1.5065,1.5092,1.5099,1.5133,1.5286,1.5286,1.5126,1.5208,1.4209,1.3858,1.3743,1.3731,1.0872,0.7516,0.4065,0.0,0.0,0.0,0.0,3.9199,3.9172,3.8891,3.8611,3.8303,3.7676,3.7155,3.67,3.6383,3.5966,3.5485,3.5576,3.5415,3.503,3.503,3.5017,3.5004,3.5004,3.507,3.5191,3.5204,3.5271,3.5165,3.5257,3.5364,3.5645,3.5511,3.5658,3.6059,3.5965,3.6046,3.6273,3.5885,3.5444,3.5191,3.5082,3.563,3.6571,3.5693,3.4803,3.3967,3.2776,3.2085,3.1675,3.1179,3.0496,2.9788,2.8357,2.7334,2.6748,2.7982,2.8671,2.8645,2.7177,2.376,1.8592,1.9391,1.8518,1.4723,1.4356,1.4323,1.4242,1.4236,1.438,1.4306,1.4299,1.4272,1.4204,1.4197,1.417,1.4095,1.415,1.4015,1.4197,1.4258,1.4299,1.4299,1.4299,1.4299,1.4299,1.4299,1.4299,1.4299,1.4299,1.4299,1.4299,1.4299,1.4414,1.4692,1.474,1.4848,1.5106,1.512,1.5072,1.5072,1.5065,1.5065,1.4879,1.5126,1.5174,1.5181,1.5181,1.5194,1.5208,1.5215,1.5255,1.533,1.5377,1.4304,1.2909,1.061,0.8902,0.8389,0.4414,0.0,3.976,3.9693,3.9626,3.9386,3.8998,3.825,3.7649,3.7221,3.6941,3.6687,3.646,3.6206,3.5952,3.5738,3.5658,3.5498,3.5311,3.5231,3.5231,3.5284,3.5284,3.5219,3.5204,3.5258,3.5672,3.6112,3.5939,3.6139,3.6647,3.6633,3.6567,3.6487,3.6273,3.5922,3.5436,3.5489,3.6042,3.706,3.6168,3.5605,3.5378,3.4883,3.4482,3.4175,3.3587,3.3,3.2412,3.1826,3.081,2.9637,2.9673,2.9614,2.9488,2.9296,2.6528,2.1151,2.2001,2.0561,1.5357,1.4448,1.4401,1.4443,1.443,1.437,1.4421,1.4401,1.4387,1.4353,1.4346,1.436,1.4387,1.4401,1.4394,1.4394,1.4367,1.4373,1.4394,1.4373,1.4346,1.4346,1.438,1.4387,1.4326,1.436,1.4407,1.4414,1.4373,1.4468,1.4537,1.4604,1.4903,1.5072,1.5086,1.5038,1.5018,1.5025,1.5031,1.4825,1.5106,1.5167,1.5181,1.5181,1.5181,1.5187,1.5181,1.5221,1.5337,1.5411,1.5328,1.4912,1.4617,1.5374,1.47,0.9665,0.0,4.0227,3.9974,3.972,3.9265,3.8784,3.8384,3.8183,3.8076,3.7303,3.7171,3.7502,3.6786,3.6329,3.6006,3.5778,3.5645,3.5565,3.5324,3.5351,3.5578,3.5591,3.5497,3.5305,3.5763,3.6383,3.6705,3.646,3.6714,3.7235,3.7034,3.678,3.6527,3.6473,3.6254,3.6022,3.6,3.6498,3.7748,3.7708,3.7041,3.6032,3.5672,3.5364,3.507,3.4496,3.3908,3.3293,3.3151,3.2557,3.157,3.1407,3.1185,3.0731,3.0214,2.8552,2.5797,2.582,2.2789,1.5732,1.4692,1.4892,1.5135,1.4923,1.4671,1.4719,1.4699,1.4638,1.455,1.4509,1.4543,1.4679,1.4497,1.4477,1.4652,1.4383,1.4363,1.4638,1.4577,1.4489,1.4489,1.459,1.4604,1.4407,1.4523,1.4665,1.447,1.4563,1.4597,1.4671,1.4738,1.4977,1.5126,1.516,1.5153,1.5147,1.516,1.5147,1.5153,1.5167,1.5181,1.5181,1.5181,1.5181,1.5181,1.5181,1.5194,1.5248,1.5309,1.5432,1.5554,1.5723,1.592,1.6083,1.4543,1.052,4.0401,4.0294,4.0174,3.988,3.9439,3.8811,3.8531,3.8491,3.7514,3.7543,3.7756,3.7552,3.7162,3.658,3.646,3.6233,3.5885,3.5765,3.5872,3.6126,3.6153,3.5917,3.5806,3.6401,3.6821,3.7471,3.7114,3.7235,3.7542,3.7502,3.7395,3.7288,3.7275,3.7038,3.6538,3.6894,3.7515,3.8379,3.8393,3.7965,3.7088,3.6473,3.5925,3.5471,3.5044,3.4563,3.3961,3.36,3.3103,3.2673,3.275,3.238,3.1826,3.1329,2.9814,2.7509,2.4283,2.0592,1.5897,1.5355,1.5472,1.564,1.5423,1.5167,1.521,1.5004,1.5004,1.5011,1.4801,1.4679,1.474,1.4557,1.4551,1.4733,1.4685,1.486,1.4726,1.4685,1.4645,1.4652,1.4699,1.4706,1.4604,1.4665,1.4551,1.4551,1.4679,1.4943,1.4943,1.497,1.5031,1.5147,1.5181,1.5181,1.5181,1.5181,1.5181,1.5181,1.5181,1.5181,1.5181,1.5181,1.5181,1.5181,1.5181,1.5221,1.5316,1.5357,1.5432,1.5533,1.5676,1.6083,1.6158,1.6171,1.3469,4.0481,4.0468,4.0388,4.0187,3.9867,3.9239,3.8918,3.8798,3.8114,3.7888,3.8063,3.8318,3.7796,3.7328,3.7141,3.6821,3.646,3.6353,3.6473,3.6727,3.674,3.6759,3.6669,3.7025,3.7502,3.8197,3.7863,3.7903,3.813,3.7996,3.7929,3.7929,3.7863,3.7596,3.7168,3.7662,3.8264,3.8937,3.8883,3.8573,3.7969,3.7275,3.6553,3.5912,3.5431,3.495,3.4456,3.3855,3.344,3.3439,3.3334,3.3229,3.2786,3.2283,3.0728,2.8173,2.3866,2.0492,1.8441,1.6637,1.5906,1.6036,1.5794,1.5712,1.5744,1.5499,1.5357,1.5418,1.5174,1.5004,1.4984,1.4798,1.4798,1.4984,1.5114,1.508,1.4984,1.4903,1.4821,1.4855,1.493,1.4923,1.4903,1.4835,1.4577,1.4664,1.5066,1.5299,1.5259,1.514,1.5194,1.5242,1.5276,1.5269,1.5208,1.5181,1.5181,1.5181,1.5181,1.5181,1.5181,1.5181,1.5181,1.5181,1.5181,1.5208,1.5282,1.5357,1.5533,1.5696,1.5811,1.5879,1.6151,1.6198,1.6219,4.0481,4.0441,4.0174,3.9933,3.9613,3.9573,3.9399,3.9159,3.8831,3.8671,3.8704,3.8664,3.8504,3.8157,3.7676,3.7368,3.7275,3.7008,3.7061,3.7328,3.7342,3.7502,3.7769,3.7782,3.8358,3.9154,3.8896,3.8758,3.8998,3.8504,3.8237,3.8223,3.7996,3.7729,3.7712,3.7752,3.8273,3.9232,3.9044,3.8678,3.8597,3.805,3.7288,3.646,3.5658,3.5084,3.471,3.3944,3.3396,3.3382,3.3479,3.3381,3.3341,3.2875,3.1295,2.8485,2.5702,2.3967,2.2828,1.8714,1.6138,1.6103,1.6035,1.6131,1.6098,1.5856,1.5662,1.5642,1.5622,1.5581,1.556,1.5308,1.5321,1.5513,1.5316,1.5309,1.5527,1.5194,1.5059,1.5126,1.5242,1.5296,1.5337,1.5004,1.4943,1.5072,1.5348,1.5598,1.554,1.5493,1.5506,1.5452,1.5479,1.5513,1.5255,1.5215,1.5208,1.5181,1.5181,1.5181,1.5181,1.5181,1.5181,1.5181,1.5181,1.5201,1.5248,1.5411,1.5669,1.5818,1.544,1.5689,1.594,1.6371,1.6381,4.0481,4.0468,4.0361,4.0254,4.0147,3.996,3.9813,3.9693,3.9256,3.9123,3.9265,3.9092,3.8945,3.8825,3.8611,3.8197,3.7676,3.7542,3.7662,3.7916,3.7943,3.8103,3.8384,3.8326,3.8771,3.9519,3.9474,3.9252,3.9105,3.8744,3.8557,3.8544,3.845,3.83,3.828,3.8319,3.8778,3.9386,3.942,3.9259,3.8931,3.8223,3.7475,3.6807,3.6126,3.5444,3.4776,3.4608,3.4299,3.3435,3.3681,3.3708,3.3493,3.316,3.1797,2.9025,2.6307,2.3412,1.9735,1.7807,1.6585,1.6604,1.6368,1.632,1.6433,1.6205,1.6164,1.6083,1.6062,1.6035,1.59,1.5562,1.5442,1.5428,1.5739,1.5671,1.5486,1.5425,1.535,1.5248,1.5316,1.5411,1.5398,1.5262,1.5026,1.5113,1.5519,1.5602,1.5911,1.5808,1.5628,1.5581,1.5594,1.5567,1.5371,1.533,1.5309,1.5221,1.5181,1.5194,1.5194,1.5201,1.5201,1.5181,1.5181,1.5248,1.5309,1.5493,1.575,1.5791,1.5616,1.5716,1.5927,1.6426,1.6591,4.0481,4.0481,4.0481,4.0481,4.0454,4.0254,4.012,4.0027,3.9813,3.968,3.9573,3.9399,3.9319,3.9292,3.9306,3.8998,3.841,3.8303,3.8303,3.8397,3.841,3.8517,3.8731,3.8751,3.8964,3.9608,3.9864,3.9653,3.9412,3.9052,3.8918,3.8998,3.8918,3.8751,3.8728,3.8781,3.9189,3.9877,3.9635,3.9474,3.9172,3.833,3.7582,3.7061,3.6433,3.5712,3.4937,3.5098,3.4841,3.3957,3.4082,3.4111,3.3601,3.3467,3.2106,2.9297,2.7569,2.3584,1.7771,1.6872,1.6927,1.703,1.6804,1.6585,1.6742,1.6483,1.6402,1.6334,1.6307,1.6259,1.6164,1.6015,1.5689,1.5798,1.5938,1.589,1.5635,1.5635,1.556,1.5466,1.5459,1.5506,1.5533,1.5314,1.5288,1.5288,1.552,1.5808,1.6077,1.5959,1.575,1.5723,1.5764,1.5703,1.5574,1.5527,1.5445,1.5357,1.5323,1.5296,1.5242,1.5242,1.5221,1.5201,1.5235,1.5309,1.5432,1.5601,1.5696,1.5764,1.5872,1.6001,1.6123,1.6522,1.6659,4.0481,4.0481,4.0481,4.0481,4.0481,4.0441,4.0294,4.0094,4.0321,4.0173,3.9733,3.9877,3.9864,3.9599,3.9559,3.9533,3.9359,3.9118,3.8905,3.8744,3.8731,3.8731,3.8784,3.8831,3.911,3.9864,3.988,3.9974,3.984,3.9372,3.9239,3.9439,3.9265,3.9043,3.8795,3.9335,3.976,4.0146,4.0047,3.9622,3.9426,3.8477,3.7729,3.7315,3.6567,3.5872,3.5244,3.516,3.4944,3.4435,3.4236,3.4189,3.3921,3.3627,3.2196,3.0177,2.9354,2.5348,1.9099,1.7432,1.701,1.6989,1.6968,1.6913,1.6804,1.668,1.6388,1.6374,1.6354,1.6327,1.6341,1.6172,1.6132,1.6123,1.6172,1.6131,1.5974,1.5811,1.5696,1.5771,1.5723,1.571,1.5771,1.5515,1.5248,1.5455,1.573,1.6014,1.6055,1.6144,1.5981,1.592,1.5913,1.5879,1.5805,1.573,1.5615,1.5321,1.5314,1.5294,1.5384,1.5343,1.5303,1.5282,1.5377,1.5452,1.5594,1.5757,1.5872,1.5954,1.6042,1.6096,1.6239,1.6388,1.6735,4.0481,4.0481,4.0481,4.0481,4.0481,4.0481,4.0414,4.0348,4.0348,4.0294,4.0174,4.0,3.9907,3.984,3.9706,3.9493,3.9292,3.9199,3.9105,3.9025,3.9012,3.9012,3.9105,3.8742,3.9018,3.9588,3.9773,3.9626,3.9439,3.9252,3.9212,3.9279,3.9412,3.9349,3.9336,3.9628,3.9787,4.0509,4.024,4.0011,3.9573,3.8838,3.8103,3.7422,3.6901,3.6393,3.5819,3.5375,3.5025,3.4998,3.4904,3.481,3.4429,3.4015,3.3422,3.275,3.089,2.9977,2.773,2.1289,1.7174,1.7012,1.6965,1.6897,1.7058,1.6788,1.6707,1.6625,1.6612,1.6578,1.649,1.649,1.6279,1.6185,1.6051,1.6171,1.6185,1.5974,1.5886,1.5961,1.5879,1.5818,1.5839,1.5798,1.5784,1.5582,1.5839,1.6089,1.6192,1.6042,1.6076,1.6029,1.6056,1.6035,1.592,1.5866,1.5825,1.571,1.5475,1.5442,1.5341,1.5472,1.5418,1.5418,1.5506,1.5615,1.5757,1.59,1.6029,1.6069,1.6096,1.6185,1.6091,1.6429,1.6797,4.0481,4.0481,4.0481,4.0481,4.0481,4.0481,4.0481,4.0481,4.0481,4.0481,4.0428,4.0281,4.0201,4.0134,3.9893,3.9666,3.9479,3.9372,3.9319,3.9292,3.9185,3.9212,3.9359,3.927,3.9228,3.9481,3.9601,3.9599,3.9332,3.9332,3.9372,3.9506,3.9666,3.9893,3.9906,3.9933,4.0053,4.0414,4.0334,4.0052,3.9493,3.8905,3.829,3.7742,3.7315,3.6874,3.638,3.5765,3.5522,3.5321,3.5133,3.5012,3.4723,3.4322,3.4135,3.3844,3.2865,3.237,3.2684,2.5301,1.8971,1.7565,1.706,1.6978,1.6965,1.6944,1.6842,1.6768,1.6741,1.6707,1.6632,1.6666,1.6686,1.648,1.6503,1.6381,1.6501,1.6144,1.6035,1.6062,1.5995,1.5947,1.594,1.594,1.594,1.5934,1.594,1.6151,1.6056,1.6076,1.6083,1.6083,1.6076,1.6035,1.5974,1.5981,1.6022,1.5927,1.5825,1.5757,1.5676,1.5649,1.5608,1.5581,1.5635,1.571,1.5845,1.6042,1.6185,1.6178,1.6198,1.6145,1.6286,1.6558,1.6893,4.0481,4.0481,4.0481,4.0481,4.0481,4.0481,4.0481,4.0481,4.0481,4.0481,4.0468,4.0441,4.0454,4.0401,4.012,3.996,3.996,3.968,3.9586,3.9546,3.9426,3.9426,3.972,3.9974,3.9813,3.976,4.0,3.9853,3.9559,3.9599,3.976,3.9947,4.0014,4.0174,4.0388,4.0454,4.0428,4.0321,3.992,3.9653,3.9533,3.8825,3.8303,3.8197,3.7729,3.7315,3.6981,3.6401,3.5962,3.5431,3.5334,3.5079,3.4776,3.4523,3.4362,3.4429,3.4389,3.4227,3.3104,2.8446,2.2633,1.7593,1.7066,1.6978,1.6965,1.689,1.6815,1.6795,1.6788,1.6775,1.6788,1.6863,1.6937,1.6937,1.6934,1.6735,1.6354,1.6327,1.6279,1.6151,1.6096,1.6083,1.6069,1.6062,1.6069,1.609,1.6096,1.611,1.6144,1.6164,1.611,1.6103,1.6117,1.6062,1.6015,1.6022,1.6056,1.6022,1.5934,1.5872,1.5798,1.5771,1.5798,1.5771,1.5791,1.5852,1.5967,1.6185,1.6307,1.632,1.6212,1.6161,1.644,1.6686,1.6962,4.0481,4.0481,4.0481,4.0481,4.0481,4.0481,4.0481,4.0481,4.0481,4.0481,4.0481,4.0481,4.0481,4.0441,4.0161,4.0027,3.996,3.9746,3.9733,3.988,3.9853,3.9974,4.0201,4.0308,4.0241,4.0321,4.0027,3.988,3.964,3.98,3.9947,4.004,4.0241,4.0388,4.0468,4.0481,4.0334,3.9906,3.9747,3.9415,3.9292,3.9065,3.8704,3.8263,3.8103,3.7863,3.7582,3.7051,3.6507,3.5979,3.5404,3.5191,3.5324,3.4937,3.475,3.491,3.495,3.486,3.387,2.9756,2.3657,1.7826,1.7053,1.6978,1.6978,1.6944,1.6917,1.6917,1.6917,1.6917,1.6924,1.6951,1.6978,1.6971,1.7092,1.6948,1.6551,1.6558,1.6537,1.6307,1.6252,1.6205,1.6137,1.611,1.6144,1.6218,1.6252,1.6481,1.6307,1.6259,1.6212,1.6191,1.6185,1.6117,1.6076,1.6076,1.6076,1.6076,1.6022,1.5967,1.59,1.5845,1.5906,1.5954,1.6029,1.6096,1.6205,1.6361,1.6408,1.6469,1.6537,1.644,1.6487,1.6741,1.7023,4.0481,4.0481,4.0481,4.0481,4.0481,4.0481,4.0481,4.0481,4.0481,4.0481,4.0481,4.0481,4.0481,4.0441,4.0161,4.004,4.0,3.9867,3.988,4.0014,4.0147,4.0294,4.0441,4.0481,4.0589,4.0347,4.0054,3.9867,3.9693,3.9893,4.0014,4.008,4.0321,4.0468,4.0481,4.0468,4.0308,3.9787,3.9375,3.9085,3.9185,3.9038,3.8825,3.8504,3.845,3.8317,3.8023,3.7702,3.6958,3.6513,3.6019,3.5778,3.5752,3.5378,3.5204,3.5364,3.5271,3.5086,3.4728,3.168,2.6103,1.9099,1.7026,1.6951,1.6965,1.6978,1.6978,1.6971,1.6978,1.6978,1.6978,1.6978,1.6978,1.6978,1.6978,1.6876,1.6639,1.6693,1.6632,1.6476,1.6395,1.6374,1.6273,1.6259,1.6098,1.6158,1.6402,1.6646,1.668,1.6388,1.6307,1.6273,1.6205,1.6117,1.613,1.6144,1.6144,1.6137,1.613,1.6076,1.6035,1.5967,1.6035,1.613,1.6246,1.6341,1.6415,1.6497,1.6578,1.6632,1.6666,1.672,1.6795,1.6809,1.6883,4.0481,4.0481,4.0481,4.0481,4.0481,4.0481,4.0481,4.0481,4.0481,4.0481,4.0481,4.0481,4.0481,4.0454,4.0241,4.0094,4.0094,4.0094,4.0094,4.0187,4.0308,4.0468,4.0468,4.0481,4.0603,4.0428,4.0107,3.9974,3.9893,4.0014,4.008,4.0174,4.0374,4.0468,4.0454,4.0441,4.0254,3.9681,3.9138,3.8874,3.8857,3.8931,3.8838,3.8798,3.8758,3.8624,3.8587,3.8063,3.7635,3.6825,3.6974,3.6393,3.5896,3.5819,3.5645,3.5578,3.5404,3.5351,3.5192,3.44,3.0982,2.2161,1.8708,1.7524,1.7868,1.7706,1.7066,1.7032,1.7005,1.7005,1.6978,1.6978,1.6978,1.6978,1.6978,1.691,1.6815,1.6775,1.6714,1.6571,1.6544,1.6544,1.6524,1.6312,1.6101,1.6312,1.653,1.6728,1.6714,1.6422,1.6347,1.63,1.6212,1.6103,1.6157,1.6218,1.6218,1.6212,1.6024,1.6004,1.6198,1.6171,1.6212,1.6293,1.6415,1.649,1.6544,1.6632,1.6734,1.6788,1.6815,1.689,1.6958,1.6924,1.6951,4.0481,4.0481,4.0481,4.0481,4.0481,4.0481,4.0481,4.0481,4.0481,4.0481,4.0481,4.0481,4.0481,4.0468,4.0401,4.0388,4.0361,4.0361,4.0388,4.0388,4.0428,4.0481,4.0481,4.0481,4.0441,4.0374,4.0374,4.0334,4.0308,4.0281,4.0374,4.0388,4.0414,4.0481,4.0454,4.0522,4.0253,3.9693,3.8913,3.8897,3.8764,3.9025,3.9052,3.9038,3.9038,3.8905,3.8691,3.8571,3.7981,3.7158,3.6892,3.674,3.642,3.6112,3.5872,3.5672,3.5565,3.5444,3.5284,3.4926,3.415,3.0036,2.3024,1.866,2.1568,1.9014,1.7683,1.7182,1.7148,1.7087,1.6998,1.6978,1.6978,1.6978,1.6978,1.6971,1.6937,1.6924,1.6849,1.6748,1.6693,1.6659,1.6551,1.6558,1.6379,1.6446,1.644,1.6605,1.6537,1.6463,1.6381,1.6327,1.6191,1.611,1.6218,1.63,1.6354,1.6347,1.6347,1.6374,1.6368,1.6361,1.6388,1.6476,1.6592,1.6653,1.6686,1.6788,1.689,1.6924,1.6944,1.6965,1.6978,1.6978,1.7005,4.0481,4.0481,4.0481,4.0481,4.0481,4.0481,4.0481,4.0481,4.0481,4.0481,4.0481,4.0481,4.0481,4.0481,4.0481,4.0481,4.0481,4.0481,4.0481,4.0468,4.0481,4.0481,4.0481,4.0481,4.0481,4.0481,4.0481,4.0481,4.0481,4.0481,4.0468,4.0481,4.0481,4.0481,4.0441,4.0455,4.0253,3.98,3.9256,3.9017,3.895,3.9265,3.9265,3.9185,3.9145,3.9025,3.8744,3.8718,3.845,3.7782,3.7317,3.6892,3.67,3.6313,3.6006,3.5859,3.5525,3.5391,3.5217,3.5084,3.5017,3.4913,2.8634,2.554,2.3612,2.084,1.883,1.7655,1.7182,1.7134,1.6998,1.6978,1.6978,1.6978,1.6978,1.6978,1.6978,1.6978,1.6958,1.6876,1.6856,1.6822,1.6768,1.67,1.6727,1.6822,1.6614,1.6775,1.6426,1.6346,1.6415,1.632,1.6171,1.6144,1.6273,1.6381,1.6497,1.6503,1.6503,1.6551,1.6783,1.6769,1.6558,1.6646,1.672,1.6781,1.6836,1.6937,1.6978,1.6971,1.6965,1.6971,1.6985,1.6985,1.7039,4.0481,4.0481,4.0481,4.0481,4.0481,4.0481,4.0481,4.0481,4.0481,4.0481,4.0481,4.0481,4.0481,4.0481,4.0481,4.0481,4.0481,4.0481,4.0481,4.0481,4.0481,4.0481,4.0481,4.0481,4.0481,4.0481,4.0481,4.0481,4.0481,4.0481,4.0481,4.0481,4.0481,4.0428,4.0361,4.0401,4.0186,3.9561,3.9586,3.9506,3.9546,3.9599,3.9533,3.9319,3.9172,3.9012,3.8784,3.8691,3.8557,3.8722,3.7689,3.7026,3.6733,3.6473,3.6099,3.6059,3.5605,3.5324,3.5204,3.5254,3.52,3.5151,3.4807,3.1571,2.6317,2.2858,2.0642,1.88,1.7875,1.7134,1.6998,1.6978,1.6978,1.6978,1.6978,1.6978,1.6978,1.6978,1.6971,1.6971,1.6937,1.691,1.6924,1.6897,1.6951,1.6971,1.6965,1.691,1.6554,1.6194,1.6252,1.6374,1.6259,1.6307,1.6442,1.6578,1.668,1.668,1.668,1.6707,1.6968,1.6968,1.6748,1.6761,1.6829,1.6876,1.691,1.6951,1.6978,1.6978,1.6978,1.6978,1.6985,1.6998,1.708,4.0481,4.0481,4.0481,4.0481,4.0481,4.0481,4.0481,4.0481,4.0481,4.0481,4.0481,4.0481,4.0481,4.0481,4.0481,4.0481,4.0481,4.0481,4.0481,4.0468,4.0454,4.0441,4.0441,4.0428,4.0441,4.0481,4.0481,4.0481,4.0481,4.0481,4.0481,4.0481,4.0481,4.0388,4.0134,4.0132,4.0011,3.9481,3.9796,4.002,3.9944,3.9813,3.9786,3.9493,3.9279,3.9012,3.8798,3.8691,3.8721,3.8719,3.8089,3.7502,3.7061,3.6647,3.634,3.6046,3.5698,3.5364,3.5217,3.5164,3.5137,3.5217,3.5257,3.3961,2.9484,2.5096,2.2156,2.0261,1.8359,1.7134,1.6998,1.6978,1.6978,1.6978,1.6978,1.6978,1.6978,1.6978,1.6978,1.6978,1.6978,1.6978,1.6978,1.6978,1.6978,1.6958,1.6924,1.6876,1.6768,1.6605,1.6442,1.6402,1.6368,1.6497,1.6646,1.6788,1.689,1.687,1.6863,1.6863,1.6904,1.6931,1.6944,1.6904,1.6897,1.6937,1.6965,1.6978,1.6978,1.6978,1.6978,1.6978,1.6998,1.7032,1.7353,4.0481,4.0481,4.0481,4.0481,4.0481,4.0481,4.0481,4.0481,4.0481,4.0481,4.0481,4.0481,4.0481,4.0481,4.0481,4.0481,4.0481,4.0481,4.0481,4.0454,4.0334,4.0267,4.0522,4.0267,4.0495,4.0549,4.0401,4.0481,4.0481,4.0481,4.0481,4.0481,4.0481,4.0321,4.008,3.9933,3.9813,3.9495,3.9958,4.0528,4.024,4.008,3.988,3.9599,3.9306,3.9025,3.8784,3.8718,3.8611,3.8587,3.8143,3.7556,3.7144,3.6706,3.6527,3.6112,3.5685,3.5378,3.5231,3.5204,3.5191,3.5204,3.5112,3.4728,3.2069,2.807,2.3377,2.01,1.883,1.7134,1.6998,1.6978,1.6978,1.6978,1.6978,1.6978,1.6978,1.6978,1.6978,1.6978,1.6978,1.6978,1.6978,1.6978,1.6978,1.6951,1.6904,1.6849,1.6989,1.6859,1.651,1.6497,1.651,1.6619,1.6754,1.687,1.6978,1.6978,1.6978,1.6978,1.6978,1.6978,1.6978,1.6958,1.6978,1.6978,1.6978,1.6978,1.6978,1.6978,1.6978,1.6985,1.7019,1.7291,1.7415,4.0481,4.0481,4.0481,4.0481,4.0481,4.0481,4.0481,4.0481,4.0481,4.0428,4.0388,4.0374,4.0334,4.0321,4.0361,4.0401,4.0468,4.0481,4.0481,4.0414,4.0201,4.008,4.012,4.008,4.012,4.0536,4.0374,4.0481,4.0481,4.0481,4.0481,4.0481,4.0468,4.0321,4.008,3.9734,3.9747,3.976,4.0294,4.0455,4.0267,4.0147,3.9853,3.9546,3.9279,3.9025,3.8758,3.8718,3.8664,3.8517,3.833,3.7835,3.7276,3.7011,3.674,3.6246,3.5645,3.5351,3.5284,3.5204,3.5204,3.5204,3.5204,3.5086,3.3612,2.9371,2.4205,1.96,1.7538,1.7161,1.7026,1.6978,1.6978,1.6978,1.6978,1.6978,1.6978,1.6978,1.6978,1.6978,1.6978,1.6978,1.6978,1.6978,1.6978,1.6978,1.6937,1.6924,1.7065,1.6768,1.6666,1.6646,1.6666,1.6754,1.6842,1.6897,1.6971,1.6978,1.6978,1.6978,1.6978,1.6978,1.6978,1.6978,1.6978,1.6978,1.6978,1.6978,1.6978,1.6978,1.6978,1.7012,1.7073,1.7182,1.7532,4.0481,4.0481,4.0481,4.0481,4.0481,4.0481,4.0481,4.0481,4.0481,4.0321,4.012,4.0094,3.9987,3.9893,4.0054,4.0254,4.0401,4.0481,4.0454,4.0374,4.0161,3.988,3.9771,3.9867,4.0174,4.0549,4.0428,4.0481,4.0481,4.0481,4.0481,4.0481,4.0454,4.0334,4.0054,3.9813,3.9507,3.976,4.0294,4.0361,4.012,4.0054,3.972,3.9412,3.9159,3.9025,3.8784,3.8744,3.8638,3.8667,3.8587,3.8627,3.8303,3.7512,3.6994,3.662,3.6139,3.5578,3.5525,3.5338,3.5204,3.5204,3.5204,3.5217,3.3286,2.9788,2.4842,2.19,1.9088,1.727,1.7073,1.6992,1.6985,1.6978,1.6978,1.6978,1.6978,1.6978,1.6978,1.6978,1.6978,1.6978,1.6978,1.6978,1.6978,1.6978,1.6971,1.6958,1.6931,1.6849,1.6802,1.6775,1.6781,1.6863,1.689,1.6951,1.6965,1.6978,1.6978,1.6978,1.6978,1.6978,1.6978,1.6978,1.6978,1.6978,1.6978,1.6978,1.6978,1.6992,1.7005,1.7073,1.6936,1.7283,1.7655,4.0481,4.0481,4.0481,4.0481,4.0481,4.0481,4.0481,4.0481,4.0481,4.0308,4.0067,4.0027,3.996,3.988,4.0147,4.0254,4.0281,4.0401,4.0361,4.0254,4.0107,3.984,3.9626,3.984,4.0147,4.0509,4.0401,4.0481,4.0481,4.0481,4.0481,4.0481,4.0468,4.0321,4.0107,4.0201,3.9893,3.9867,4.0174,4.0281,4.0201,3.9987,3.9746,3.9626,3.9185,3.8972,3.8685,3.8771,3.8691,3.8775,3.8775,3.8533,3.817,3.7569,3.7328,3.6887,3.6446,3.5992,3.5658,3.5378,3.5257,3.5204,3.4993,3.4544,3.2586,2.9315,2.5331,2.2045,1.926,1.7614,1.7175,1.7107,1.7046,1.7019,1.7012,1.6998,1.6992,1.6978,1.6978,1.6978,1.6978,1.6978,1.6978,1.6978,1.6978,1.6978,1.6978,1.6971,1.6965,1.6937,1.6904,1.6897,1.6917,1.6951,1.6951,1.6971,1.6971,1.6978,1.6978,1.6978,1.6978,1.6978,1.6978,1.6978,1.6978,1.6978,1.6978,1.6978,1.6978,1.7012,1.7046,1.6915,1.7009,1.7433,1.7799,4.0361,4.0361,4.0374,4.0401,4.0454,4.0334,4.0294,4.0361,4.0267,4.008,3.9853,3.9733,3.9746,3.9933,4.0094,4.012,4.0067,4.0334,4.0267,4.012,4.004,3.984,3.988,4.012,4.0094,4.0428,4.0401,4.0468,4.0481,4.0481,4.0481,4.0481,4.0481,4.0361,4.0267,4.0308,4.0334,3.9946,4.0348,4.0388,4.0281,4.0027,3.9907,3.9693,3.9359,3.8764,3.8804,3.8618,3.8718,3.8704,3.8571,3.8344,3.813,3.7782,3.7529,3.7141,3.674,3.6299,3.5912,3.5591,3.5351,3.5271,3.5204,3.4544,3.2586,2.9326,2.6428,2.3627,2.0843,1.8769,1.7538,1.7036,1.7003,1.7141,1.708,1.7053,1.7019,1.6998,1.6978,1.6978,1.6978,1.6978,1.6978,1.6978,1.6978,1.6978,1.6978,1.6978,1.6978,1.6971,1.6965,1.6944,1.6958,1.6978,1.6978,1.6978,1.6978,1.6978,1.6978,1.6978,1.6978,1.6978,1.6978,1.6978,1.6978,1.6978,1.6978,1.6978,1.6978,1.7012,1.706,1.6962,1.7311,1.7534,1.7916,4.0054,4.0067,4.0054,4.0201,4.0401,3.988,3.9827,4.004,3.98,3.9559,3.9306,3.9038,3.9252,3.9546,3.9733,3.9853,4.0027,4.0334,4.0241,4.0107,4.0054,4.0174,4.0227,4.0201,4.0161,4.0388,4.0468,4.0468,4.0481,4.0481,4.0481,4.0481,4.0481,4.0468,4.0428,4.0428,4.0468,4.0374,4.0454,4.0348,4.0281,4.0161,4.0134,3.976,3.9573,3.9163,3.8649,3.8632,3.8718,3.8718,3.8286,3.8193,3.8317,3.7916,3.7635,3.7408,3.6981,3.6593,3.6313,3.5859,3.5365,3.5258,3.5139,3.498,3.4108,3.1923,2.9203,2.6052,2.3062,2.0379,1.8524,1.7177,1.7157,1.7256,1.7154,1.7107,1.706,1.7005,1.6985,1.6978,1.6985,1.6992,1.7032,1.7046,1.6998,1.6992,1.6978,1.6978,1.6978,1.6978,1.6978,1.6971,1.6971,1.6978,1.6978,1.6978,1.6978,1.6978,1.6978,1.6978,1.6978,1.6978,1.6978,1.6978,1.6978,1.6978,1.6978,1.6978,1.6985,1.7012,1.7093,1.7049,1.7224,1.765,1.7765,3.9773,3.9746,3.9573,3.9666,3.992,3.9693,3.9666,3.9746,3.9653,3.9439,3.9145,3.8804,3.8857,3.9319,3.9533,3.9653,3.98,4.0067,4.008,4.0067,4.0067,4.0214,4.0267,4.0254,4.0187,4.0414,4.0481,4.0481,4.0481,4.0481,4.0481,4.0481,4.0481,4.0481,4.0481,4.0481,4.0481,4.0481,4.0481,4.0401,4.0348,4.0201,4.0174,4.0174,3.9479,3.9189,3.907,3.8698,3.8784,3.8678,3.8557,3.8286,3.8207,3.8036,3.7796,3.7622,3.7168,3.6954,3.6633,3.6099,3.5591,3.5139,3.5244,3.5204,3.498,3.2573,3.0811,2.8145,2.5096,2.1991,2.0579,1.8611,1.75,1.7344,1.7243,1.7195,1.7141,1.7093,1.7053,1.7073,1.7039,1.7019,1.7073,1.7121,1.706,1.7005,1.6992,1.6985,1.7019,1.7005,1.7012,1.6998,1.6992,1.6978,1.6978,1.6978,1.6978,1.6978,1.6978,1.6978,1.6978,1.6978,1.6978,1.6978,1.6978,1.6978,1.6978,1.6978,1.6998,1.7032,1.7202,1.7203,1.7384,1.7772,1.7819,3.9466,3.9439,3.9252,3.9332,3.9559,3.9412,3.9386,3.9439,3.9359,3.9239,3.9025,3.8778,3.8831,3.9185,3.9346,3.9452,3.9546,3.9746,3.9867,3.992,3.9987,4.0187,4.0053,4.0321,4.0308,4.0454,4.0481,4.0481,4.0481,4.0481,4.0481,4.0481,4.0481,4.0481,4.0481,4.0481,4.0481,4.0481,4.0481,4.0481,4.0428,4.0308,4.0254,4.0348,3.9813,3.9519,3.9189,3.8884,3.8605,3.8718,3.8611,3.8504,3.837,3.8183,3.7916,3.7649,3.7408,3.7248,3.6834,3.6504,3.5845,3.5297,3.5217,3.5204,3.4544,3.3235,3.2336,3.0395,2.694,2.409,2.2855,1.9604,1.7861,1.7521,1.7439,1.7385,1.7311,1.7256,1.7202,1.7175,1.7154,1.7175,1.7202,1.727,1.7249,1.7202,1.7195,1.7188,1.7182,1.7148,1.708,1.7053,1.7019,1.6998,1.6978,1.6985,1.6992,1.6978,1.6978,1.6978,1.6978,1.6992,1.6992,1.6978,1.6978,1.6978,1.6985,1.6985,1.7019,1.7053,1.7069,1.7324,1.7684,1.7826,1.784,3.9172,3.9172,3.9145,3.9306,3.9466,3.8985,3.8918,3.9118,3.8931,3.8798,3.8784,3.8771,3.8905,3.9078,3.9145,3.9225,3.9359,3.9546,3.9706,3.984,3.9974,3.9933,4.0066,4.0132,4.0348,4.0454,4.0481,4.0481,4.0481,4.0481,4.0481,4.0481,4.0481,4.0481,4.0481,4.0481,4.0481,4.0481,4.0481,4.0481,4.0468,4.0414,4.0441,4.0361,4.008,3.9786,3.9282,3.899,3.8711,3.8744,3.8775,3.8517,3.8597,3.821,3.7943,3.7769,3.7555,3.7301,3.6927,3.638,3.5872,3.5431,3.5404,3.5338,3.5244,3.4782,3.3896,3.196,2.9979,2.7166,2.3864,1.9921,1.8587,1.7677,1.7589,1.7507,1.7433,1.7372,1.7311,1.7277,1.7351,1.7405,1.7412,1.7426,1.7439,1.7426,1.7412,1.7392,1.7344,1.7283,1.7195,1.7114,1.7073,1.7019,1.7005,1.6998,1.6998,1.6985,1.7026,1.7073,1.708,1.7093,1.7066,1.7019,1.7012,1.7046,1.7026,1.6998,1.7114,1.7249,1.7217,1.7425,1.7779,1.786,1.786,3.8878,3.8865,3.8865,3.8931,3.8985,3.8811,3.8784,3.8851,3.8771,3.8718,3.8718,3.8718,3.8758,3.8851,3.8931,3.9065,3.9412,3.9506,3.9693,4.0134,4.0094,4.0214,4.0092,4.0079,4.0308,4.0428,4.0481,4.0481,4.0481,4.0481,4.0481,4.0481,4.0481,4.0481,4.0481,4.0481,4.0481,4.0481,4.0481,4.0481,4.0481,4.0481,4.0481,4.0468,4.0187,3.992,3.9402,3.9096,3.8831,3.8592,3.8624,3.8651,3.8731,3.8397,3.821,3.7996,3.7769,3.7622,3.7101,3.6553,3.645,3.5912,3.5725,3.5645,3.5525,3.5485,3.4728,3.3498,3.1935,2.9123,2.5625,2.0552,1.8565,1.7895,1.7609,1.7541,1.7473,1.7433,1.7385,1.7378,1.7419,1.7514,1.7548,1.7595,1.7616,1.7589,1.7568,1.7487,1.7433,1.7385,1.7317,1.7209,1.7141,1.7073,1.7032,1.7087,1.7121,1.7127,1.6989,1.7083,1.7069,1.7222,1.7236,1.7229,1.7168,1.7121,1.7141,1.7182,1.7338,1.7494,1.7391,1.7485,1.7812,1.786,1.786,3.8664,3.8584,3.8678,3.8651,3.8597,3.8678,3.8718,3.8718,3.8718,3.8718,3.8718,3.8718,3.8718,3.8718,3.8758,3.8945,3.9426,3.9452,3.976,4.0241,4.0134,4.0161,4.0214,4.0254,4.0281,4.0374,4.0441,4.0481,4.0481,4.0481,4.0481,4.0481,4.0481,4.0481,4.0481,4.0481,4.0481,4.0481,4.0481,4.0481,4.0481,4.0481,4.0481,4.0428,4.0281,4.0067,3.9786,3.9282,3.8794,3.8817,3.8671,3.8618,3.8605,3.8704,3.8424,3.809,3.7676,3.7502,3.7008,3.6821,3.6553,3.6406,3.6463,3.6235,3.5792,3.5672,3.5538,3.4528,3.3298,3.0858,2.7791,2.2483,2.077,2.0326,1.8128,1.8065,1.7623,1.7582,1.7575,1.7555,1.7555,1.7636,1.7684,1.7751,1.7799,1.7971,1.793,1.7841,1.7541,1.7507,1.746,1.7372,1.7283,1.7229,1.7216,1.7243,1.7263,1.7056,1.7136,1.7237,1.7405,1.7559,1.7607,1.7419,1.7338,1.7283,1.7311,1.7385,1.7494,1.7589,1.7684,1.7772,1.7846,1.786,1.786,3.8544,3.8317,3.8584,3.8517,3.833,3.8557,3.8691,3.8718,3.8718,3.8718,3.8718,3.8718,3.8718,3.8718,3.8718,3.8931,3.9212,3.9252,3.9653,3.9987,4.0134,4.0401,4.0482,4.0576,4.0576,4.0522,4.0576,4.0481,4.0481,4.0388,4.0401,4.0454,4.0414,4.0428,4.0441,4.0481,4.0481,4.0481,4.0481,4.0481,4.0481,4.0481,4.0481,4.0454,4.0401,4.0227,4.0027,3.9628,3.919,3.8966,3.8742,3.8649,3.8778,3.8618,3.8384,3.7916,3.7422,3.7195,3.7155,3.7114,3.6954,3.6834,3.6745,3.649,3.6262,3.5872,3.5685,3.5511,3.4476,3.286,3.0384,2.7833,2.526,2.2639,1.9141,1.8473,1.804,1.7812,1.7806,1.7799,1.7792,1.7819,1.7806,1.786,1.786,1.7833,1.8012,1.7785,1.7711,1.767,1.7623,1.7561,1.748,1.7419,1.7405,1.7385,1.7412,1.721,1.7473,1.7548,1.771,1.7926,1.7765,1.7555,1.7473,1.7439,1.7453,1.7514,1.7609,1.7697,1.7765,1.7799,1.786,1.786,1.786,3.8544,3.8277,3.8357,3.821,3.801,3.8263,3.8504,3.8704,3.8718,3.8718,3.8718,3.8718,3.8718,3.8718,3.8718,3.9025,3.9306,3.9546,3.9893,4.0134,4.0308,4.0348,4.0374,4.0414,4.0414,4.0401,4.0428,4.0481,4.0428,4.0321,4.0334,4.0428,4.0321,4.0334,4.0414,4.0481,4.0468,4.0454,4.0454,4.0481,4.0481,4.0481,4.0481,4.0481,4.0481,4.0321,4.0134,4.008,3.984,3.9426,3.9265,3.9118,3.8825,3.8758,3.8544,3.845,3.7996,3.7635,3.7529,3.7158,3.696,3.7025,3.7021,3.6754,3.646,3.6112,3.5859,3.5658,3.5391,3.371,3.2697,3.0807,2.7982,2.4683,2.1172,1.853,1.8095,1.8088,1.8088,1.786,1.786,1.786,1.786,1.786,1.786,1.786,1.786,1.786,1.7846,1.7799,1.7758,1.769,1.7643,1.7575,1.7528,1.75,1.7548,1.7371,1.7629,1.7677,1.7916,1.7923,1.7944,1.769,1.7623,1.7595,1.7589,1.765,1.7704,1.7772,1.7833,1.7846,1.786,1.786,1.7867,3.8183,3.7943,3.8036,3.7969,3.7863,3.801,3.825,3.8531,3.8664,3.8718,3.8718,3.8718,3.8718,3.8718,3.8758,3.9025,3.9559,3.9599,3.9893,4.0334,4.0481,4.0374,4.0616,4.0414,4.0388,4.0401,4.0428,4.0481,4.0401,4.0348,4.0348,4.0441,4.0254,4.0321,4.0428,4.0468,4.0388,4.0361,4.0374,4.0454,4.0468,4.0468,4.0481,4.0481,4.0481,4.0361,4.0227,4.0468,4.024,3.9904,3.9573,3.9017,3.8698,3.8552,3.8544,3.8384,3.8076,3.7863,3.7649,3.7582,3.745,3.733,3.7184,3.6865,3.67,3.6299,3.6059,3.5819,3.5245,3.4795,3.4315,3.3362,3.0026,2.6711,2.2742,1.9,1.8551,1.8323,1.8316,1.8088,1.786,1.786,1.786,1.786,1.786,1.786,1.786,1.786,1.786,1.7846,1.7812,1.7779,1.7751,1.7711,1.7663,1.7629,1.7677,1.7717,1.7758,1.7806,1.786,1.7846,1.7806,1.7792,1.7779,1.7745,1.7711,1.7731,1.7779,1.7833,1.7867,1.7867,1.7867,1.786,1.7867,3.7622,3.7328,3.7595,3.7676,3.7756,3.7756,3.7969,3.8263,3.8517,3.8678,3.8704,3.8718,3.8718,3.8718,3.8731,3.9012,3.9399,3.9573,3.9853,4.0441,4.0468,4.0388,4.0562,4.0549,4.0509,4.0468,4.0455,4.0241,4.0334,4.0254,4.0214,4.0428,4.0388,4.0388,4.0454,4.0401,4.0281,3.9906,3.9946,4.0026,4.0374,4.0414,4.0454,4.0481,4.0481,4.0454,4.0454,4.0454,4.0454,4.0201,3.9667,3.9032,3.8623,3.8552,3.8464,3.833,3.8157,3.8103,3.809,3.7821,3.7929,3.8009,3.7582,3.7025,3.6861,3.6366,3.6059,3.5845,3.5285,3.5152,3.4833,3.4463,3.2109,2.8912,2.5099,2.1972,2.063,1.9699,1.8088,1.786,1.786,1.786,1.786,1.786,1.786,1.786,1.786,1.786,1.786,1.786,1.7853,1.7833,1.7812,1.7799,1.7799,1.7779,1.7806,1.7846,1.786,1.786,1.786,1.786,1.786,1.7846,1.7826,1.784,1.7833,1.7826,1.7819,1.784,1.7867,1.7874,1.788,1.7907,1.7921,3.7368,3.6727,3.6794,3.6941,3.7168,3.7395,3.7782,3.8223,3.86,3.8573,3.8664,3.8718,3.8718,3.8718,3.8718,3.8958,3.9239,3.9493,3.98,4.0107,4.0308,4.0348,4.0549,4.0442,4.012,4.0,3.9933,3.9893,3.9907,3.9893,3.996,4.0134,4.0201,4.0294,4.0414,4.0562,4.012,3.9654,3.9336,3.9694,4.008,4.0161,4.0214,4.0374,4.0454,4.0454,4.0468,4.0481,4.0468,4.0385,3.972,3.9123,3.8671,3.8704,3.8624,3.8584,3.8491,3.8424,3.8397,3.8344,3.8439,3.8157,3.7676,3.7368,3.6967,3.6406,3.6006,3.5805,3.5658,3.5578,3.5405,3.5076,3.4426,3.0929,2.7924,2.5654,2.3162,2.0385,1.8309,1.786,1.786,1.786,1.786,1.786,1.786,1.786,1.786,1.786,1.786,1.786,1.786,1.7853,1.7853,1.7846,1.786,1.786,1.786,1.786,1.786,1.786,1.7867,1.786,1.786,1.786,1.786,1.786,1.786,1.7853,1.7853,1.7887,1.7914,1.7941,1.8016,1.8063,1.8057,3.6834,3.6513,3.6513,3.6593,3.678,3.7061,3.7448,3.7782,3.8194,3.8224,3.8464,3.8544,3.8597,3.8691,3.8718,3.8865,3.9132,3.9306,3.9559,3.9827,4.0027,4.0388,4.0361,4.028,3.9734,3.9375,3.972,3.964,3.9559,3.9786,3.9947,4.0027,4.0107,4.0227,4.0562,4.0374,4.0132,3.9111,3.894,3.9019,3.9706,3.98,3.9987,4.0187,4.0294,4.0334,4.0468,4.0468,4.0482,4.0092,3.9586,3.9199,3.8865,3.8718,3.8704,3.8704,3.8691,3.8718,3.8691,3.8584,3.8397,3.8063,3.725,3.6616,3.7162,3.6638,3.6126,3.5925,3.5912,3.5832,3.5899,3.5502,3.5646,3.359,3.168,2.981,2.4706,2.0103,1.8515,1.786,1.786,1.786,1.786,1.786,1.786,1.7867,1.7867,1.7874,1.7874,1.786,1.786,1.786,1.786,1.786,1.786,1.786,1.786,1.786,1.786,1.7867,1.7874,1.7867,1.786,1.7901,1.7901,1.786,1.786,1.7894,1.7941,1.7982,1.8002,1.8023,1.8118,1.8226,1.8247,3.6219,3.638,3.638,3.642,3.65,3.6767,3.7088,3.7368,3.7355,3.7689,3.8223,3.8493,3.8654,3.8638,3.8731,3.8905,3.9065,3.9185,3.9372,3.9506,3.9626,3.9827,4.0092,3.9998,3.9653,3.9335,3.9216,3.9412,3.9386,3.9653,3.988,4.0,4.0147,4.0522,4.0588,4.0173,3.9931,3.9123,3.895,3.8937,3.9292,3.9452,3.9773,3.9947,4.0094,4.0227,4.0401,4.0401,4.0522,4.0119,3.9412,3.9038,3.8825,3.8718,3.8718,3.8718,3.8718,3.8718,3.8678,3.8721,3.856,3.7996,3.6814,3.6418,3.6974,3.6759,3.6246,3.6206,3.6179,3.6126,3.6193,3.6122,3.6241,3.6036,3.4566,3.213,2.5796,2.0308,1.9206,1.8336,1.7914,1.7914,1.7901,1.7901,1.7901,1.7901,1.7887,1.7894,1.7894,1.7874,1.786,1.786,1.786,1.786,1.786,1.7867,1.7867,1.786,1.7867,1.7874,1.7907,1.7982,1.8016,1.7982,1.7975,1.7975,1.7962,1.7989,1.8036,1.8077,1.8124,1.8158,1.8287,1.8382,1.8685,3.5952,3.5792,3.5792,3.5939,3.6179,3.6473,3.6887,3.7288,3.7141,3.7475,3.801,3.8278,3.8425,3.8704,3.8718,3.8798,3.8878,3.9012,3.9132,3.9252,3.9399,3.9559,3.9599,3.9729,3.9447,3.9092,3.8778,3.8931,3.9118,3.9466,3.9573,3.9426,3.992,4.0226,4.0487,4.006,3.9608,3.9159,3.9172,3.942,3.9265,3.9466,3.9733,4.0,4.0267,4.0374,4.0428,4.0509,4.052,4.0141,3.9447,3.8878,3.8758,3.8718,3.8718,3.8718,3.8718,3.8691,3.8597,3.8627,3.8439,3.7582,3.6525,3.6418,3.674,3.6593,3.646,3.6593,3.6527,3.6326,3.638,3.6633,3.656,3.6414,3.5378,3.0975,2.5558,2.2634,2.0867,1.9381,1.8342,1.8314,1.8057,1.8063,1.786,1.7833,1.7989,1.7982,1.7955,1.7914,1.7867,1.786,1.786,1.786,1.786,1.7867,1.7867,1.7867,1.7901,1.8198,1.8294,1.8186,1.8199,1.8138,1.8145,1.8165,1.8152,1.807,1.8118,1.8165,1.824,1.8314,1.8437,1.8484,1.8511]}]]